Time,TemperatureF,DewpointF,PressureIn,WindDirection,WindDirectionDegrees,WindSpeedMPH,WindSpeedGustMPH,Humidity,HourlyPrecipIn,Conditions,Clouds,dailyrainin,SoftwareType,DateUTC
2013-06-24 00:00:00,76.8,65.5,30.00,SE,135,4.0,4.7,68,0.00,,---,0.00,VWS V14.01,2013-06-24 05:00:00,
2013-06-24 00:01:00,76.7,65.3,30.00,SE,135,3.6,4.0,68,0.00,,---,0.00,VWS V14.01,2013-06-24 05:01:00,
2013-06-24 00:02:00,76.7,65.3,30.00,South,180,7.8,7.8,68,0.00,,---,0.00,VWS V14.01,2013-06-24 05:02:00,
2013-06-24 00:03:00,76.7,65.3,30.00,ESE,112,1.3,7.8,68,0.00,,---,0.00,VWS V14.01,2013-06-24 05:03:00,
2013-06-24 00:04:00,76.7,65.3,30.00,South,180,2.7,4.7,68,0.00,,---,0.00,VWS V14.01,2013-06-24 05:04:00,
2013-06-24 00:05:00,76.7,65.3,30.00,SE,135,3.8,7.4,68,0.00,,---,0.00,VWS V14.01,2013-06-24 05:05:00,
2013-06-24 00:06:00,76.7,65.3,30.00,East,90,2.9,4.0,68,0.00,,---,0.00,VWS V14.01,2013-06-24 05:06:00,
2013-06-24 00:07:00,76.7,65.3,30.00,SW,225,1.1,4.0,68,0.00,,---,0.00,VWS V14.01,2013-06-24 05:07:00,
2013-06-24 00:08:00,76.5,65.1,30.00,SE,135,3.6,4.7,68,0.00,,---,0.00,VWS V14.01,2013-06-24 05:08:00,
2013-06-24 00:09:00,76.5,65.6,30.00,SSE,158,7.2,7.2,69,0.00,,---,0.00,VWS V14.01,2013-06-24 05:09:00,
2013-06-24 00:10:00,76.5,65.1,30.00,South,180,2.9,3.1,68,0.00,,---,0.00,VWS V14.01,2013-06-24 05:10:00,
2013-06-24 00:11:00,76.5,65.6,30.00,NNE,22,5.4,5.4,69,0.00,,---,0.00,VWS V14.01,2013-06-24 05:11:00,
2013-06-24 00:12:00,76.5,65.6,30.00,South,180,3.6,5.4,69,0.00,,---,0.00,VWS V14.01,2013-06-24 05:12:00,
2013-06-24 00:13:00,76.5,65.6,30.00,SE,135,0.0,5.8,69,0.00,,---,0.00,VWS V14.01,2013-06-24 05:13:00,
2013-06-24 00:14:00,76.3,65.0,30.00,SE,135,2.0,5.8,68,0.00,,---,0.00,VWS V14.01,2013-06-24 05:14:00,
2013-06-24 00:15:00,76.3,65.0,30.00,East,90,3.8,3.8,68,0.00,,---,0.00,VWS V14.01,2013-06-24 05:15:00,
2013-06-24 00:16:00,76.3,65.4,30.00,SSE,158,2.5,3.8,69,0.00,,---,0.00,VWS V14.01,2013-06-24 05:16:00,
2013-06-24 00:17:00,76.3,65.4,30.00,SSW,202,2.7,3.8,69,0.00,,---,0.00,VWS V14.01,2013-06-24 05:17:00,
2013-06-24 00:18:00,76.1,65.2,30.00,SE,135,0.9,4.7,69,0.00,,---,0.00,VWS V14.01,2013-06-24 05:18:00,
2013-06-24 00:19:00,76.1,65.2,30.00,SSE,158,3.8,4.9,69,0.00,,---,0.00,VWS V14.01,2013-06-24 05:19:00,
2013-06-24 00:20:00,76.1,65.2,30.00,ESE,112,3.4,3.8,69,0.00,,---,0.00,VWS V14.01,2013-06-24 05:20:00,
2013-06-24 00:21:00,76.1,65.2,30.00,SSW,202,1.6,3.4,69,0.00,,---,0.00,VWS V14.01,2013-06-24 05:21:00,
2013-06-24 00:22:00,76.1,65.6,30.00,ESE,112,6.5,6.5,70,0.00,,---,0.00,VWS V14.01,2013-06-24 05:22:00,
2013-06-24 00:23:00,76.1,65.6,30.00,SE,135,2.5,6.5,70,0.00,,---,0.00,VWS V14.01,2013-06-24 05:23:00,
2013-06-24 00:24:00,75.9,65.9,30.00,SSE,158,2.2,3.6,71,0.00,,---,0.00,VWS V14.01,2013-06-24 05:24:00,
2013-06-24 00:25:00,75.9,65.5,30.00,South,180,2.5,3.1,70,0.00,,---,0.00,VWS V14.01,2013-06-24 05:25:00,
2013-06-24 00:26:00,75.9,65.5,30.00,South,180,1.6,2.5,70,0.00,,---,0.00,VWS V14.01,2013-06-24 05:26:00,
2013-06-24 00:27:00,75.8,65.3,30.00,SSW,202,4.7,4.7,70,0.00,,---,0.00,VWS V14.01,2013-06-24 05:27:00,
2013-06-24 00:28:00,75.8,65.7,30.00,ESE,112,5.8,5.8,71,0.00,,---,0.00,VWS V14.01,2013-06-24 05:28:00,
2013-06-24 00:29:00,75.8,65.7,30.00,South,180,4.0,5.8,71,0.00,,---,0.00,VWS V14.01,2013-06-24 05:29:00,
2013-06-24 00:30:00,75.8,66.1,30.00,South,180,4.9,4.9,72,0.00,,---,0.00,VWS V14.01,2013-06-24 05:30:00,
2013-06-24 00:31:00,75.8,66.1,30.00,NE,45,2.0,4.9,72,0.00,,---,0.00,VWS V14.01,2013-06-24 05:31:00,
2013-06-24 00:32:00,75.8,66.5,30.00,South,180,8.5,8.5,73,0.00,,---,0.00,VWS V14.01,2013-06-24 05:32:00,
2013-06-24 00:33:00,75.8,66.5,30.00,ESE,112,3.8,8.5,73,0.00,,---,0.00,VWS V14.01,2013-06-24 05:33:00,
2013-06-24 00:34:00,75.8,66.5,30.00,SSW,202,6.3,6.9,73,0.00,,---,0.00,VWS V14.01,2013-06-24 05:34:00,
2013-06-24 00:35:00,75.8,66.5,30.00,NNW,338,4.7,9.8,73,0.00,,---,0.00,VWS V14.01,2013-06-24 05:35:00,
2013-06-24 00:36:00,75.8,66.5,30.00,SSE,158,4.0,4.7,73,0.00,,---,0.00,VWS V14.01,2013-06-24 05:36:00,
2013-06-24 00:37:00,75.8,66.5,30.00,SE,135,5.6,5.6,73,0.00,,---,0.00,VWS V14.01,2013-06-24 05:37:00,
2013-06-24 00:38:00,75.8,66.5,30.00,ENE,68,2.2,5.6,73,0.00,,---,0.00,VWS V14.01,2013-06-24 05:38:00,
2013-06-24 00:39:00,75.8,66.5,30.00,ESE,112,1.6,4.0,73,0.00,,---,0.00,VWS V14.01,2013-06-24 05:39:00,
2013-06-24 00:40:00,75.6,66.3,30.00,SW,225,2.0,6.5,73,0.00,,---,0.00,VWS V14.01,2013-06-24 05:40:00,
2013-06-24 00:41:00,75.6,66.3,30.00,South,180,3.4,3.6,73,0.00,,---,0.00,VWS V14.01,2013-06-24 05:41:00,
2013-06-24 00:42:00,75.6,66.7,30.00,ESE,112,4.3,5.6,74,0.00,,---,0.00,VWS V14.01,2013-06-24 05:42:00,
2013-06-24 00:43:00,75.6,66.7,30.00,SE,135,2.2,6.3,74,0.00,,---,0.00,VWS V14.01,2013-06-24 05:43:00,
2013-06-24 00:44:00,75.6,66.3,30.00,East,90,4.7,6.5,73,0.00,,---,0.00,VWS V14.01,2013-06-24 05:44:00,
2013-06-24 00:45:00,75.6,66.7,30.00,South,180,2.9,4.7,74,0.00,,---,0.00,VWS V14.01,2013-06-24 05:45:00,
2013-06-24 00:46:00,75.4,66.2,30.00,SE,135,3.6,5.8,73,0.00,,---,0.00,VWS V14.01,2013-06-24 05:46:00,
2013-06-24 00:47:00,75.6,66.7,30.00,SSW,202,2.9,4.0,74,0.00,,---,0.00,VWS V14.01,2013-06-24 05:47:00,
2013-06-24 00:48:00,75.4,66.2,30.00,SE,135,0.9,3.6,73,0.00,,---,0.00,VWS V14.01,2013-06-24 05:48:00,
2013-06-24 00:49:00,75.4,66.2,30.00,South,180,3.1,3.1,73,0.00,,---,0.00,VWS V14.01,2013-06-24 05:49:00,
2013-06-24 00:50:00,75.2,66.4,30.00,SE,135,2.5,6.0,74,0.00,,---,0.00,VWS V14.01,2013-06-24 05:50:00,
2013-06-24 00:51:00,75.2,66.0,30.00,SSE,158,4.7,4.7,73,0.00,,---,0.00,VWS V14.01,2013-06-24 05:51:00,
2013-06-24 00:52:00,75.2,66.0,30.00,WSW,248,2.7,4.7,73,0.00,,---,0.00,VWS V14.01,2013-06-24 05:52:00,
2013-06-24 00:53:00,75.2,66.0,30.00,ESE,112,1.6,3.4,73,0.00,,---,0.00,VWS V14.01,2013-06-24 05:53:00,
2013-06-24 00:54:00,75.2,66.0,30.00,ESE,112,3.6,4.0,73,0.00,,---,0.00,VWS V14.01,2013-06-24 05:54:00,
2013-06-24 00:55:00,75.1,66.2,30.00,East,90,0.0,3.6,74,0.00,,---,0.00,VWS V14.01,2013-06-24 05:55:00,
2013-06-24 00:56:00,75.1,65.8,30.00,SSW,202,2.2,4.3,73,0.00,,---,0.00,VWS V14.01,2013-06-24 05:56:00,
2013-06-24 00:57:00,74.9,65.7,30.00,SE,135,0.0,2.2,73,0.00,,---,0.00,VWS V14.01,2013-06-24 05:57:00,
2013-06-24 00:58:00,75.1,66.2,30.00,ESE,112,4.0,4.0,74,0.00,,---,0.00,VWS V14.01,2013-06-24 05:58:00,
2013-06-24 00:59:00,74.9,66.0,30.00,SW,225,1.3,4.9,74,0.00,,---,0.00,VWS V14.01,2013-06-24 05:59:00,
2013-06-24 01:00:00,74.9,66.0,30.00,East,90,1.6,3.6,74,0.00,,---,0.00,VWS V14.01,2013-06-24 06:00:00,
2013-06-24 01:01:00,74.9,66.4,30.00,SSE,158,3.1,5.6,75,0.00,,---,0.00,VWS V14.01,2013-06-24 06:01:00,
2013-06-24 01:02:00,74.9,66.4,29.97,ESE,112,2.9,4.5,75,0.00,,---,0.00,VWS V14.01,2013-06-24 06:02:00,
2013-06-24 01:03:00,74.9,66.4,29.97,SSE,158,3.8,6.0,75,0.00,,---,0.00,VWS V14.01,2013-06-24 06:03:00,
2013-06-24 01:04:00,74.9,66.4,29.97,SE,135,4.3,5.4,75,0.00,,---,0.00,VWS V14.01,2013-06-24 06:04:00,
2013-06-24 01:05:00,74.9,66.4,29.97,SSW,202,2.7,7.6,75,0.00,,---,0.00,VWS V14.01,2013-06-24 06:05:00,
2013-06-24 01:06:00,74.9,66.4,29.97,East,90,6.3,6.3,75,0.00,,---,0.00,VWS V14.01,2013-06-24 06:06:00,
2013-06-24 01:07:00,74.7,66.3,29.97,East,90,5.8,6.3,75,0.00,,---,0.00,VWS V14.01,2013-06-24 06:07:00,
2013-06-24 01:08:00,74.9,66.8,29.97,SE,135,2.9,6.3,76,0.00,,---,0.00,VWS V14.01,2013-06-24 06:08:00,
2013-06-24 01:09:00,74.7,66.6,29.97,North,0,2.0,2.9,76,0.00,,---,0.00,VWS V14.01,2013-06-24 06:09:00,
2013-06-24 01:10:00,74.7,66.3,29.97,East,90,0.9,2.0,75,0.00,,---,0.00,VWS V14.01,2013-06-24 06:10:00,
2013-06-24 01:11:00,74.7,66.6,29.97,ESE,112,8.1,8.1,76,0.00,,---,0.00,VWS V14.01,2013-06-24 06:11:00,
2013-06-24 01:12:00,74.7,66.6,29.97,SSE,158,2.7,8.1,76,0.00,,---,0.00,VWS V14.01,2013-06-24 06:12:00,
2013-06-24 01:13:00,74.7,66.6,29.97,South,180,2.9,4.7,76,0.00,,---,0.00,VWS V14.01,2013-06-24 06:13:00,
2013-06-24 01:14:00,74.7,66.6,29.97,SE,135,3.1,6.5,76,0.00,,---,0.00,VWS V14.01,2013-06-24 06:14:00,
2013-06-24 01:15:00,74.7,66.6,29.97,ESE,112,2.7,4.0,76,0.00,,---,0.00,VWS V14.01,2013-06-24 06:15:00,
2013-06-24 01:16:00,74.7,66.6,29.97,SE,135,4.0,7.4,76,0.00,,---,0.00,VWS V14.01,2013-06-24 06:16:00,
2013-06-24 01:17:00,74.5,66.8,30.00,SSE,158,2.2,4.0,77,0.00,,---,0.00,VWS V14.01,2013-06-24 06:17:00,
2013-06-24 01:18:00,74.5,66.8,30.00,South,180,5.4,7.4,77,0.00,,---,0.00,VWS V14.01,2013-06-24 06:18:00,
2013-06-24 01:19:00,74.5,66.8,30.00,South,180,1.1,5.4,77,0.00,,---,0.00,VWS V14.01,2013-06-24 06:19:00,
2013-06-24 01:20:00,74.5,66.8,30.00,South,180,3.8,3.8,77,0.00,,---,0.00,VWS V14.01,2013-06-24 06:20:00,
2013-06-24 01:21:00,74.5,66.8,30.00,East,90,0.0,6.0,77,0.00,,---,0.00,VWS V14.01,2013-06-24 06:21:00,
2013-06-24 01:22:00,74.5,66.8,30.00,East,90,3.8,6.7,77,0.00,,---,0.00,VWS V14.01,2013-06-24 06:22:00,
2013-06-24 01:23:00,74.5,66.8,30.00,SSE,158,2.7,3.8,77,0.00,,---,0.00,VWS V14.01,2013-06-24 06:23:00,
2013-06-24 01:24:00,74.5,66.8,30.00,SSE,158,3.8,3.8,77,0.00,,---,0.00,VWS V14.01,2013-06-24 06:24:00,
2013-06-24 01:25:00,74.5,66.8,30.00,SSW,202,0.9,3.8,77,0.00,,---,0.00,VWS V14.01,2013-06-24 06:25:00,
2013-06-24 01:26:00,74.5,66.8,30.00,SE,135,3.4,3.4,77,0.00,,---,0.00,VWS V14.01,2013-06-24 06:26:00,
2013-06-24 01:27:00,74.3,66.7,30.00,SSE,158,3.1,3.4,77,0.00,,---,0.00,VWS V14.01,2013-06-24 06:27:00,
2013-06-24 01:28:00,74.3,66.7,30.00,WSW,248,3.6,5.6,77,0.00,,---,0.00,VWS V14.01,2013-06-24 06:28:00,
2013-06-24 01:29:00,74.3,67.1,30.00,East,90,3.6,3.6,78,0.00,,---,0.00,VWS V14.01,2013-06-24 06:29:00,
2013-06-24 01:30:00,74.3,67.1,30.00,SW,225,0.9,3.8,78,0.00,,---,0.00,VWS V14.01,2013-06-24 06:30:00,
2013-06-24 01:31:00,74.3,67.1,30.00,SE,135,2.0,4.7,78,0.00,,---,0.00,VWS V14.01,2013-06-24 06:31:00,
2013-06-24 01:32:00,74.3,67.1,30.00,East,90,2.9,3.6,78,0.00,,---,0.00,VWS V14.01,2013-06-24 06:32:00,
2013-06-24 01:33:00,74.2,66.9,30.00,SSE,158,2.0,4.0,78,0.00,,---,0.00,VWS V14.01,2013-06-24 06:33:00,
2013-06-24 01:34:00,74.2,66.9,30.00,SE,135,2.0,3.4,78,0.00,,---,0.00,VWS V14.01,2013-06-24 06:34:00,
2013-06-24 01:35:00,74.2,66.9,30.00,South,180,2.9,2.9,78,0.00,,---,0.00,VWS V14.01,2013-06-24 06:35:00,
2013-06-24 01:36:00,74.2,66.9,30.00,ESE,112,3.8,5.6,78,0.00,,---,0.00,VWS V14.01,2013-06-24 06:36:00,
2013-06-24 01:37:00,74.0,66.7,30.00,SE,135,4.0,4.0,78,0.00,,---,0.00,VWS V14.01,2013-06-24 06:37:00,
2013-06-24 01:38:00,74.0,66.7,30.00,SE,135,2.9,4.3,78,0.00,,---,0.00,VWS V14.01,2013-06-24 06:38:00,
2013-06-24 01:39:00,74.0,66.7,30.00,SSE,158,5.8,5.8,78,0.00,,---,0.00,VWS V14.01,2013-06-24 06:39:00,
2013-06-24 01:40:00,74.0,67.1,30.00,SSW,202,3.8,4.7,79,0.00,,---,0.00,VWS V14.01,2013-06-24 06:40:00,
2013-06-24 01:41:00,74.0,66.7,30.00,East,90,1.6,4.7,78,0.00,,---,0.00,VWS V14.01,2013-06-24 06:41:00,
2013-06-24 01:42:00,74.0,66.7,30.00,SW,225,1.1,2.9,78,0.00,,---,0.00,VWS V14.01,2013-06-24 06:42:00,
2013-06-24 01:43:00,74.0,66.7,30.00,South,180,2.7,3.4,78,0.00,,---,0.00,VWS V14.01,2013-06-24 06:43:00,
2013-06-24 01:44:00,74.0,67.1,30.00,ESE,112,5.6,5.8,79,0.00,,---,0.00,VWS V14.01,2013-06-24 06:44:00,
2013-06-24 01:45:00,74.0,67.1,30.00,SSW,202,0.0,6.3,79,0.00,,---,0.00,VWS V14.01,2013-06-24 06:45:00,
2013-06-24 01:46:00,73.8,66.9,30.00,ESE,112,2.5,4.0,79,0.00,,---,0.00,VWS V14.01,2013-06-24 06:46:00,
2013-06-24 01:47:00,73.8,66.9,30.00,ESE,112,1.6,3.8,79,0.00,,---,0.00,VWS V14.01,2013-06-24 06:47:00,
2013-06-24 01:48:00,73.8,66.9,30.00,ESE,112,3.8,5.4,79,0.00,,---,0.00,VWS V14.01,2013-06-24 06:48:00,
2013-06-24 01:49:00,73.8,66.9,30.00,SE,135,2.5,5.8,79,0.00,,---,0.00,VWS V14.01,2013-06-24 06:49:00,
2013-06-24 01:50:00,73.8,66.9,30.00,South,180,1.3,4.0,79,0.00,,---,0.00,VWS V14.01,2013-06-24 06:50:00,
2013-06-24 01:51:00,73.8,66.9,30.00,South,180,2.9,3.1,79,0.00,,---,0.00,VWS V14.01,2013-06-24 06:51:00,
2013-06-24 01:52:00,73.8,66.9,30.00,SE,135,0.0,2.9,79,0.00,,---,0.00,VWS V14.01,2013-06-24 06:52:00,
2013-06-24 01:53:00,73.8,66.9,30.00,SE,135,3.1,3.1,79,0.00,,---,0.00,VWS V14.01,2013-06-24 06:53:00,
2013-06-24 01:54:00,73.8,66.9,30.00,SE,135,2.0,3.1,79,0.00,,---,0.00,VWS V14.01,2013-06-24 06:54:00,
2013-06-24 01:55:00,73.6,66.7,30.00,East,90,1.3,2.7,79,0.00,,---,0.00,VWS V14.01,2013-06-24 06:55:00,
2013-06-24 01:56:00,73.6,66.7,30.00,SSE,158,3.6,3.6,79,0.00,,---,0.00,VWS V14.01,2013-06-24 06:56:00,
2013-06-24 01:57:00,73.6,67.1,30.00,SE,135,2.9,6.0,80,0.00,,---,0.00,VWS V14.01,2013-06-24 06:57:00,
2013-06-24 01:58:00,73.6,66.7,30.00,SSW,202,2.2,2.9,79,0.00,,---,0.00,VWS V14.01,2013-06-24 06:58:00,
2013-06-24 01:59:00,73.6,66.7,30.00,East,90,1.1,3.8,79,0.00,,---,0.00,VWS V14.01,2013-06-24 06:59:00,
2013-06-24 02:00:00,73.5,66.6,30.00,ESE,112,0.0,1.1,79,0.00,,---,0.00,VWS V14.01,2013-06-24 07:00:00,
2013-06-24 02:01:00,73.5,66.6,30.00,NE,45,0.0,0.0,79,0.00,,---,0.00,VWS V14.01,2013-06-24 07:01:00,
2013-06-24 02:02:00,73.5,66.6,30.00,ENE,68,0.0,0.0,79,0.00,,---,0.00,VWS V14.01,2013-06-24 07:02:00,
2013-06-24 02:03:00,73.3,66.4,30.00,SE,135,2.9,2.9,79,0.00,,---,0.00,VWS V14.01,2013-06-24 07:03:00,
2013-06-24 02:04:00,73.3,66.4,30.00,South,180,2.9,3.6,79,0.00,,---,0.00,VWS V14.01,2013-06-24 07:04:00,
2013-06-24 02:05:00,73.3,66.4,30.00,East,90,0.0,3.4,79,0.00,,---,0.00,VWS V14.01,2013-06-24 07:05:00,
2013-06-24 02:06:00,73.3,66.4,30.00,SSE,158,2.2,2.2,79,0.00,,---,0.00,VWS V14.01,2013-06-24 07:06:00,
2013-06-24 02:07:00,73.3,66.4,30.00,SW,225,5.4,5.4,79,0.00,,---,0.00,VWS V14.01,2013-06-24 07:07:00,
2013-06-24 02:08:00,73.3,66.8,30.00,ESE,112,6.3,6.3,80,0.00,,---,0.00,VWS V14.01,2013-06-24 07:08:00,
2013-06-24 02:09:00,73.3,67.1,30.00,ESE,112,4.0,7.8,81,0.00,,---,0.00,VWS V14.01,2013-06-24 07:09:00,
2013-06-24 02:10:00,73.3,67.1,30.00,SE,135,3.4,3.4,81,0.00,,---,0.00,VWS V14.01,2013-06-24 07:10:00,
2013-06-24 02:11:00,73.3,67.1,30.00,SE,135,1.1,5.8,81,0.00,,---,0.00,VWS V14.01,2013-06-24 07:11:00,
2013-06-24 02:12:00,73.3,67.1,30.00,South,180,1.6,3.4,81,0.00,,---,0.00,VWS V14.01,2013-06-24 07:12:00,
2013-06-24 02:13:00,73.3,66.8,30.00,ESE,112,1.1,1.6,80,0.00,,---,0.00,VWS V14.01,2013-06-24 07:13:00,
2013-06-24 02:14:00,73.3,67.1,30.00,East,90,6.3,6.3,81,0.00,,---,0.00,VWS V14.01,2013-06-24 07:14:00,
2013-06-24 02:15:00,73.3,67.1,30.00,ESE,112,4.9,6.3,81,0.00,,---,0.00,VWS V14.01,2013-06-24 07:15:00,
2013-06-24 02:16:00,73.3,67.5,30.00,SE,135,3.1,7.8,82,0.00,,---,0.00,VWS V14.01,2013-06-24 07:16:00,
2013-06-24 02:17:00,73.3,67.1,29.97,East,90,3.4,3.4,81,0.00,,---,0.00,VWS V14.01,2013-06-24 07:17:00,
2013-06-24 02:18:00,73.1,66.9,29.97,South,180,5.6,8.5,81,0.00,,---,0.00,VWS V14.01,2013-06-24 07:18:00,
2013-06-24 02:19:00,73.1,66.9,29.97,ESE,112,5.8,5.8,81,0.00,,---,0.00,VWS V14.01,2013-06-24 07:19:00,
2013-06-24 02:20:00,73.1,66.9,29.97,East,90,3.8,5.8,81,0.00,,---,0.00,VWS V14.01,2013-06-24 07:20:00,
2013-06-24 02:21:00,73.1,66.9,29.97,South,180,3.6,4.0,81,0.00,,---,0.00,VWS V14.01,2013-06-24 07:21:00,
2013-06-24 02:22:00,73.1,66.9,29.97,SE,135,7.6,7.6,81,0.00,,---,0.00,VWS V14.01,2013-06-24 07:22:00,
2013-06-24 02:23:00,73.1,66.9,29.97,ESE,112,5.8,7.6,81,0.00,,---,0.00,VWS V14.01,2013-06-24 07:23:00,
2013-06-24 02:24:00,73.1,67.3,29.97,SE,135,6.0,6.3,82,0.00,,---,0.00,VWS V14.01,2013-06-24 07:24:00,
2013-06-24 02:25:00,73.1,67.3,29.97,ESE,112,2.9,6.0,82,0.00,,---,0.00,VWS V14.01,2013-06-24 07:25:00,
2013-06-24 02:26:00,73.1,66.9,29.97,East,90,2.0,5.8,81,0.00,,---,0.00,VWS V14.01,2013-06-24 07:26:00,
2013-06-24 02:27:00,72.9,66.8,29.97,SE,135,2.0,2.9,81,0.00,,---,0.00,VWS V14.01,2013-06-24 07:27:00,
2013-06-24 02:28:00,72.9,66.8,29.97,East,90,4.0,4.9,81,0.00,,---,0.00,VWS V14.01,2013-06-24 07:28:00,
2013-06-24 02:29:00,72.9,66.8,29.97,SSE,158,2.2,4.3,81,0.00,,---,0.00,VWS V14.01,2013-06-24 07:29:00,
2013-06-24 02:30:00,72.9,67.1,29.97,East,90,2.7,6.5,82,0.00,,---,0.00,VWS V14.01,2013-06-24 07:30:00,
2013-06-24 02:31:00,72.9,67.1,29.97,ESE,112,4.7,4.7,82,0.00,,---,0.00,VWS V14.01,2013-06-24 07:31:00,
2013-06-24 02:32:00,72.9,67.1,29.97,ESE,112,2.9,4.5,82,0.00,,---,0.00,VWS V14.01,2013-06-24 07:32:00,
2013-06-24 02:33:00,72.9,67.1,29.97,East,90,6.5,6.5,82,0.00,,---,0.00,VWS V14.01,2013-06-24 07:33:00,
2013-06-24 02:34:00,72.9,67.5,29.97,SSE,158,3.6,6.5,83,0.00,,---,0.00,VWS V14.01,2013-06-24 07:34:00,
2013-06-24 02:35:00,72.9,67.5,29.97,SSE,158,3.4,7.2,83,0.00,,---,0.00,VWS V14.01,2013-06-24 07:35:00,
2013-06-24 02:36:00,72.9,67.5,29.97,SE,135,1.6,3.4,83,0.00,,---,0.00,VWS V14.01,2013-06-24 07:36:00,
2013-06-24 02:37:00,72.9,67.5,29.97,South,180,1.3,2.7,83,0.00,,---,0.00,VWS V14.01,2013-06-24 07:37:00,
2013-06-24 02:38:00,72.9,67.1,29.97,East,90,4.0,4.0,82,0.00,,---,0.00,VWS V14.01,2013-06-24 07:38:00,
2013-06-24 02:39:00,72.9,67.5,29.97,South,180,4.3,4.3,83,0.00,,---,0.00,VWS V14.01,2013-06-24 07:39:00,
2013-06-24 02:40:00,72.9,67.1,29.97,South,180,0.9,4.3,82,0.00,,---,0.00,VWS V14.01,2013-06-24 07:40:00,
2013-06-24 02:41:00,72.9,67.1,29.97,ESE,112,3.1,3.8,82,0.00,,---,0.00,VWS V14.01,2013-06-24 07:41:00,
2013-06-24 02:42:00,72.9,67.5,29.97,NE,45,3.4,7.2,83,0.00,,---,0.00,VWS V14.01,2013-06-24 07:42:00,
2013-06-24 02:43:00,72.9,67.5,29.97,SE,135,2.9,4.9,83,0.00,,---,0.00,VWS V14.01,2013-06-24 07:43:00,
2013-06-24 02:44:00,72.9,67.5,29.97,SSE,158,3.6,5.4,83,0.00,,---,0.00,VWS V14.01,2013-06-24 07:44:00,
2013-06-24 02:45:00,72.9,67.5,29.97,South,180,6.5,6.5,83,0.00,,---,0.00,VWS V14.01,2013-06-24 07:45:00,
2013-06-24 02:46:00,72.9,67.5,29.97,SSE,158,2.7,6.5,83,0.00,,---,0.00,VWS V14.01,2013-06-24 07:46:00,
2013-06-24 02:47:00,72.9,67.5,30.00,South,180,4.3,4.9,83,0.00,,---,0.00,VWS V14.01,2013-06-24 07:47:00,
2013-06-24 02:48:00,72.9,67.5,30.00,SE,135,7.2,7.2,83,0.00,,---,0.00,VWS V14.01,2013-06-24 07:48:00,
2013-06-24 02:49:00,72.9,67.5,30.00,ESE,112,1.1,7.2,83,0.00,,---,0.00,VWS V14.01,2013-06-24 07:49:00,
2013-06-24 02:50:00,72.9,67.5,30.00,SE,135,3.1,3.1,83,0.00,,---,0.00,VWS V14.01,2013-06-24 07:50:00,
2013-06-24 02:51:00,72.9,67.5,30.00,SSW,202,2.9,3.1,83,0.00,,---,0.00,VWS V14.01,2013-06-24 07:51:00,
2013-06-24 02:52:00,72.9,67.5,30.00,South,180,7.4,7.4,83,0.00,,---,0.00,VWS V14.01,2013-06-24 07:52:00,
2013-06-24 02:53:00,72.9,67.8,30.00,East,90,2.5,7.4,84,0.00,,---,0.00,VWS V14.01,2013-06-24 07:53:00,
2013-06-24 02:54:00,72.9,67.8,30.00,South,180,4.0,7.4,84,0.00,,---,0.00,VWS V14.01,2013-06-24 07:54:00,
2013-06-24 02:55:00,72.9,67.8,30.00,ESE,112,2.9,5.6,84,0.00,,---,0.00,VWS V14.01,2013-06-24 07:55:00,
2013-06-24 02:56:00,72.9,67.8,30.00,East,90,2.2,5.8,84,0.00,,---,0.00,VWS V14.01,2013-06-24 07:56:00,
2013-06-24 02:57:00,72.9,67.8,30.00,SW,225,4.0,7.6,84,0.00,,---,0.00,VWS V14.01,2013-06-24 07:57:00,
2013-06-24 02:58:00,72.9,67.8,30.00,ESE,112,2.0,7.6,84,0.00,,---,0.00,VWS V14.01,2013-06-24 07:58:00,
2013-06-24 02:59:00,73.1,68.0,30.00,East,90,2.5,6.5,84,0.00,,---,0.00,VWS V14.01,2013-06-24 07:59:00,
2013-06-24 03:00:00,72.9,67.8,30.00,SE,135,6.5,6.5,84,0.00,,---,0.00,VWS V14.01,2013-06-24 08:00:00,
2013-06-24 03:01:00,73.1,68.0,30.00,ESE,112,1.1,6.5,84,0.00,,---,0.00,VWS V14.01,2013-06-24 08:01:00,
2013-06-24 03:02:00,72.9,67.8,30.00,ESE,112,7.6,7.6,84,0.00,,---,0.00,VWS V14.01,2013-06-24 08:02:00,
2013-06-24 03:03:00,73.1,68.0,30.00,South,180,1.3,11.0,84,0.00,,---,0.00,VWS V14.01,2013-06-24 08:03:00,
2013-06-24 03:04:00,73.1,68.0,30.00,SE,135,2.0,4.7,84,0.00,,---,0.00,VWS V14.01,2013-06-24 08:04:00,
2013-06-24 03:05:00,73.1,68.0,30.00,East,90,5.4,8.5,84,0.00,,---,0.00,VWS V14.01,2013-06-24 08:05:00,
2013-06-24 03:06:00,73.1,68.0,30.00,SE,135,1.6,5.4,84,0.00,,---,0.00,VWS V14.01,2013-06-24 08:06:00,
2013-06-24 03:07:00,73.1,68.0,30.00,ESE,112,3.6,7.4,84,0.00,,---,0.00,VWS V14.01,2013-06-24 08:07:00,
2013-06-24 03:08:00,73.1,68.0,30.00,ENE,68,3.4,4.9,84,0.00,,---,0.00,VWS V14.01,2013-06-24 08:08:00,
2013-06-24 03:09:00,73.1,68.0,30.00,ESE,112,2.0,6.0,84,0.00,,---,0.00,VWS V14.01,2013-06-24 08:09:00,
2013-06-24 03:10:00,73.1,68.0,30.00,South,180,4.0,6.0,84,0.00,,---,0.00,VWS V14.01,2013-06-24 08:10:00,
2013-06-24 03:11:00,73.1,68.0,30.00,SE,135,4.3,6.3,84,0.00,,---,0.00,VWS V14.01,2013-06-24 08:11:00,
2013-06-24 03:12:00,73.1,68.0,30.00,East,90,4.9,6.0,84,0.00,,---,0.00,VWS V14.01,2013-06-24 08:12:00,
2013-06-24 03:13:00,73.1,68.0,30.00,SE,135,6.0,7.8,84,0.00,,---,0.00,VWS V14.01,2013-06-24 08:13:00,
2013-06-24 03:14:00,73.3,68.2,30.00,SSE,158,1.6,7.4,84,0.00,,---,0.00,VWS V14.01,2013-06-24 08:14:00,
2013-06-24 03:15:00,73.1,68.0,30.00,SSW,202,3.8,3.8,84,0.00,,---,0.00,VWS V14.01,2013-06-24 08:15:00,
2013-06-24 03:16:00,73.3,68.2,30.00,ESE,112,2.5,7.2,84,0.00,,---,0.00,VWS V14.01,2013-06-24 08:16:00,
2013-06-24 03:17:00,73.3,68.2,30.00,ESE,112,4.0,8.5,84,0.00,,---,0.00,VWS V14.01,2013-06-24 08:17:00,
2013-06-24 03:18:00,73.3,68.2,30.00,SSE,158,2.9,4.3,84,0.00,,---,0.00,VWS V14.01,2013-06-24 08:18:00,
2013-06-24 03:19:00,73.3,68.2,30.00,East,90,2.0,4.0,84,0.00,,---,0.00,VWS V14.01,2013-06-24 08:19:00,
2013-06-24 03:20:00,73.3,68.2,30.00,East,90,4.7,8.7,84,0.00,,---,0.00,VWS V14.01,2013-06-24 08:20:00,
2013-06-24 03:21:00,73.3,68.2,30.00,SSE,158,3.6,4.0,84,0.00,,---,0.00,VWS V14.01,2013-06-24 08:21:00,
2013-06-24 03:22:00,73.3,68.2,30.00,ENE,68,2.5,3.8,84,0.00,,---,0.00,VWS V14.01,2013-06-24 08:22:00,
2013-06-24 03:23:00,73.3,67.8,30.00,SE,135,5.4,5.4,83,0.00,,---,0.00,VWS V14.01,2013-06-24 08:23:00,
2013-06-24 03:24:00,73.3,67.8,30.00,South,180,0.0,5.4,83,0.00,,---,0.00,VWS V14.01,2013-06-24 08:24:00,
2013-06-24 03:25:00,73.3,67.8,30.00,SW,225,6.5,6.5,83,0.00,,---,0.00,VWS V14.01,2013-06-24 08:25:00,
2013-06-24 03:26:00,73.3,67.8,30.00,SSE,158,6.3,6.5,83,0.00,,---,0.00,VWS V14.01,2013-06-24 08:26:00,
2013-06-24 03:27:00,73.3,67.8,30.00,SSW,202,2.5,3.1,83,0.00,,---,0.00,VWS V14.01,2013-06-24 08:27:00,
2013-06-24 03:28:00,73.3,68.2,30.00,SE,135,3.1,6.9,84,0.00,,---,0.00,VWS V14.01,2013-06-24 08:28:00,
2013-06-24 03:29:00,73.3,68.2,30.00,South,180,2.2,2.5,84,0.00,,---,0.00,VWS V14.01,2013-06-24 08:29:00,
2013-06-24 03:30:00,73.3,68.2,30.00,East,90,3.1,6.3,84,0.00,,---,0.00,VWS V14.01,2013-06-24 08:30:00,
2013-06-24 03:31:00,73.3,68.2,30.00,East,90,4.3,6.3,84,0.00,,---,0.00,VWS V14.01,2013-06-24 08:31:00,
2013-06-24 03:32:00,73.3,68.2,30.00,SE,135,4.0,4.3,84,0.00,,---,0.00,VWS V14.01,2013-06-24 08:32:00,
2013-06-24 03:33:00,73.3,67.8,30.00,ESE,112,3.8,5.8,83,0.00,,---,0.00,VWS V14.01,2013-06-24 08:33:00,
2013-06-24 03:34:00,73.3,67.8,30.00,SSE,158,3.1,3.1,83,0.00,,---,0.00,VWS V14.01,2013-06-24 08:34:00,
2013-06-24 03:35:00,73.3,67.8,30.00,SE,135,2.7,4.0,83,0.00,,---,0.00,VWS V14.01,2013-06-24 08:35:00,
2013-06-24 03:36:00,73.1,67.6,30.00,East,90,2.9,3.4,83,0.00,,---,0.00,VWS V14.01,2013-06-24 08:36:00,
2013-06-24 03:37:00,73.1,67.6,30.00,SSW,202,4.0,4.9,83,0.00,,---,0.00,VWS V14.01,2013-06-24 08:37:00,
2013-06-24 03:38:00,73.1,67.6,30.00,East,90,2.5,4.3,83,0.00,,---,0.00,VWS V14.01,2013-06-24 08:38:00,
2013-06-24 03:39:00,73.1,67.6,30.00,SE,135,6.5,6.5,83,0.00,,---,0.00,VWS V14.01,2013-06-24 08:39:00,
2013-06-24 03:40:00,73.1,67.6,30.00,WSW,248,3.1,6.5,83,0.00,,---,0.00,VWS V14.01,2013-06-24 08:40:00,
2013-06-24 03:41:00,73.1,67.6,30.00,South,180,3.6,6.3,83,0.00,,---,0.00,VWS V14.01,2013-06-24 08:41:00,
2013-06-24 03:42:00,73.1,67.6,30.00,South,180,4.7,4.7,83,0.00,,---,0.00,VWS V14.01,2013-06-24 08:42:00,
2013-06-24 03:43:00,73.1,67.6,30.00,ESE,112,6.3,6.3,83,0.00,,---,0.00,VWS V14.01,2013-06-24 08:43:00,
2013-06-24 03:44:00,73.1,67.6,30.00,SSW,202,3.6,4.0,83,0.00,,---,0.00,VWS V14.01,2013-06-24 08:44:00,
2013-06-24 03:45:00,73.1,67.6,30.00,SSW,202,3.1,4.0,83,0.00,,---,0.00,VWS V14.01,2013-06-24 08:45:00,
2013-06-24 03:46:00,73.1,67.6,30.00,SE,135,2.5,4.3,83,0.00,,---,0.00,VWS V14.01,2013-06-24 08:46:00,
2013-06-24 03:47:00,73.1,67.6,30.00,SE,135,1.6,2.5,83,0.00,,---,0.00,VWS V14.01,2013-06-24 08:47:00,
2013-06-24 03:48:00,73.1,67.3,30.00,East,90,2.5,4.0,82,0.00,,---,0.00,VWS V14.01,2013-06-24 08:48:00,
2013-06-24 03:49:00,73.1,67.6,30.00,ENE,68,4.7,4.7,83,0.00,,---,0.00,VWS V14.01,2013-06-24 08:49:00,
2013-06-24 03:50:00,73.1,67.6,30.00,South,180,2.7,4.7,83,0.00,,---,0.00,VWS V14.01,2013-06-24 08:50:00,
2013-06-24 03:51:00,72.9,67.5,30.00,ESE,112,0.0,3.4,83,0.00,,---,0.00,VWS V14.01,2013-06-24 08:51:00,
2013-06-24 03:52:00,72.9,67.5,30.00,SSE,158,2.9,3.8,83,0.00,,---,0.00,VWS V14.01,2013-06-24 08:52:00,
2013-06-24 03:53:00,72.9,67.5,30.00,ESE,112,2.7,5.8,83,0.00,,---,0.00,VWS V14.01,2013-06-24 08:53:00,
2013-06-24 03:54:00,72.9,67.5,30.00,SW,225,2.7,5.8,83,0.00,,---,0.00,VWS V14.01,2013-06-24 08:54:00,
2013-06-24 03:55:00,72.9,67.5,30.00,SSW,202,2.9,4.0,83,0.00,,---,0.00,VWS V14.01,2013-06-24 08:55:00,
2013-06-24 03:56:00,72.9,67.5,30.00,South,180,1.3,3.8,83,0.00,,---,0.00,VWS V14.01,2013-06-24 08:56:00,
2013-06-24 03:57:00,72.9,67.5,30.00,SSE,158,1.1,3.6,83,0.00,,---,0.00,VWS V14.01,2013-06-24 08:57:00,
2013-06-24 03:58:00,72.9,67.5,30.00,WNW,292,0.0,3.6,83,0.00,,---,0.00,VWS V14.01,2013-06-24 08:58:00,
2013-06-24 03:59:00,72.9,67.5,30.00,NE,45,2.0,4.3,83,0.00,,---,0.00,VWS V14.01,2013-06-24 08:59:00,
2013-06-24 04:00:00,72.9,67.8,30.00,SE,135,4.0,4.0,84,0.00,,---,0.00,VWS V14.01,2013-06-24 09:00:00,
2013-06-24 04:01:00,72.9,67.5,30.00,ESE,112,7.4,7.4,83,0.00,,---,0.00,VWS V14.01,2013-06-24 09:01:00,
2013-06-24 04:02:00,72.9,67.5,30.00,SSE,158,2.7,7.4,83,0.00,,---,0.00,VWS V14.01,2013-06-24 09:02:00,
2013-06-24 04:03:00,72.9,67.5,30.00,SE,135,3.4,6.9,83,0.00,,---,0.00,VWS V14.01,2013-06-24 09:03:00,
2013-06-24 04:04:00,72.9,67.5,30.00,SSE,158,3.6,5.4,83,0.00,,---,0.00,VWS V14.01,2013-06-24 09:04:00,
2013-06-24 04:05:00,72.9,67.5,30.00,SSE,158,2.5,5.4,83,0.00,,---,0.00,VWS V14.01,2013-06-24 09:05:00,
2013-06-24 04:06:00,72.9,67.5,30.00,SE,135,2.5,4.0,83,0.00,,---,0.00,VWS V14.01,2013-06-24 09:06:00,
2013-06-24 04:07:00,72.9,67.8,30.00,South,180,2.2,3.4,84,0.00,,---,0.00,VWS V14.01,2013-06-24 09:07:00,
2013-06-24 04:08:00,72.9,67.8,30.00,SSW,202,0.0,3.1,84,0.00,,---,0.00,VWS V14.01,2013-06-24 09:08:00,
2013-06-24 04:09:00,72.9,67.8,30.00,East,90,4.7,4.7,84,0.00,,---,0.00,VWS V14.01,2013-06-24 09:09:00,
2013-06-24 04:10:00,72.9,67.8,30.00,South,180,2.0,2.0,84,0.00,,---,0.00,VWS V14.01,2013-06-24 09:10:00,
2013-06-24 04:11:00,72.9,67.8,30.00,WSW,248,1.3,2.7,84,0.00,,---,0.00,VWS V14.01,2013-06-24 09:11:00,
2013-06-24 04:12:00,72.8,67.6,30.00,ESE,112,4.0,4.0,84,0.00,,---,0.00,VWS V14.01,2013-06-24 09:12:00,
2013-06-24 04:13:00,72.8,67.6,30.00,South,180,3.8,5.8,84,0.00,,---,0.00,VWS V14.01,2013-06-24 09:13:00,
2013-06-24 04:14:00,72.8,68.0,30.00,ESE,112,0.0,5.6,85,0.00,,---,0.00,VWS V14.01,2013-06-24 09:14:00,
2013-06-24 04:15:00,72.8,67.6,30.00,SE,135,1.3,3.1,84,0.00,,---,0.00,VWS V14.01,2013-06-24 09:15:00,
2013-06-24 04:16:00,72.8,67.6,30.00,ESE,112,2.0,5.8,84,0.00,,---,0.00,VWS V14.01,2013-06-24 09:16:00,
2013-06-24 04:17:00,72.8,67.6,30.00,SE,135,4.3,4.9,84,0.00,,---,0.00,VWS V14.01,2013-06-24 09:17:00,
2013-06-24 04:18:00,72.8,67.6,30.00,South,180,2.2,7.2,84,0.00,,---,0.00,VWS V14.01,2013-06-24 09:18:00,
2013-06-24 04:19:00,72.8,67.6,30.00,SSE,158,4.9,4.9,84,0.00,,---,0.00,VWS V14.01,2013-06-24 09:19:00,
2013-06-24 04:20:00,72.8,67.6,30.00,SE,135,4.7,4.9,84,0.00,,---,0.00,VWS V14.01,2013-06-24 09:20:00,
2013-06-24 04:21:00,72.8,67.6,30.00,SE,135,2.2,4.7,84,0.00,,---,0.00,VWS V14.01,2013-06-24 09:21:00,
2013-06-24 04:22:00,72.8,67.6,30.00,South,180,0.9,3.1,84,0.00,,---,0.00,VWS V14.01,2013-06-24 09:22:00,
2013-06-24 04:23:00,72.8,67.6,30.00,South,180,0.0,2.7,84,0.00,,---,0.00,VWS V14.01,2013-06-24 09:23:00,
2013-06-24 04:24:00,72.8,67.6,30.00,SSW,202,3.8,6.0,84,0.00,,---,0.00,VWS V14.01,2013-06-24 09:24:00,
2013-06-24 04:25:00,72.8,67.6,30.00,ESE,112,1.3,3.8,84,0.00,,---,0.00,VWS V14.01,2013-06-24 09:25:00,
2013-06-24 04:26:00,72.6,67.5,30.00,East,90,1.3,3.1,84,0.00,,---,0.00,VWS V14.01,2013-06-24 09:26:00,
2013-06-24 04:27:00,72.6,67.5,30.00,East,90,1.1,4.3,84,0.00,,---,0.00,VWS V14.01,2013-06-24 09:27:00,
2013-06-24 04:28:00,72.6,67.5,30.00,South,180,2.9,2.9,84,0.00,,---,0.00,VWS V14.01,2013-06-24 09:28:00,
2013-06-24 04:29:00,72.6,67.5,30.00,SSW,202,0.9,2.9,84,0.00,,---,0.00,VWS V14.01,2013-06-24 09:29:00,
2013-06-24 04:30:00,72.6,67.5,30.00,ESE,112,2.7,2.7,84,0.00,,---,0.00,VWS V14.01,2013-06-24 09:30:00,
2013-06-24 04:31:00,72.6,67.5,30.00,East,90,0.0,2.7,84,0.00,,---,0.00,VWS V14.01,2013-06-24 09:31:00,
2013-06-24 04:32:00,72.4,67.6,29.97,SSE,158,0.0,2.0,85,0.00,,---,0.00,VWS V14.01,2013-06-24 09:32:00,
2013-06-24 04:33:00,72.4,67.6,29.97,East,90,0.0,1.1,85,0.00,,---,0.00,VWS V14.01,2013-06-24 09:33:00,
2013-06-24 04:34:00,72.4,67.6,29.97,SSE,158,0.0,0.9,85,0.00,,---,0.00,VWS V14.01,2013-06-24 09:34:00,
2013-06-24 04:35:00,72.4,67.6,29.97,SE,135,0.0,0.0,85,0.00,,---,0.00,VWS V14.01,2013-06-24 09:35:00,
2013-06-24 04:36:00,72.4,67.6,29.97,SE,135,3.4,3.6,85,0.00,,---,0.00,VWS V14.01,2013-06-24 09:36:00,
2013-06-24 04:37:00,72.4,67.6,29.97,SSW,202,0.9,3.6,85,0.00,,---,0.00,VWS V14.01,2013-06-24 09:37:00,
2013-06-24 04:38:00,72.4,67.6,29.97,East,90,1.1,3.1,85,0.00,,---,0.00,VWS V14.01,2013-06-24 09:38:00,
2013-06-24 04:39:00,72.4,67.6,29.97,SSE,158,0.9,2.7,85,0.00,,---,0.00,VWS V14.01,2013-06-24 09:39:00,
2013-06-24 04:40:00,72.4,67.6,29.97,East,90,0.0,0.9,85,0.00,,---,0.00,VWS V14.01,2013-06-24 09:40:00,
2013-06-24 04:41:00,72.4,67.6,29.97,SW,225,2.5,3.1,85,0.00,,---,0.00,VWS V14.01,2013-06-24 09:41:00,
2013-06-24 04:42:00,72.4,67.6,29.97,South,180,3.1,3.1,85,0.00,,---,0.00,VWS V14.01,2013-06-24 09:42:00,
2013-06-24 04:43:00,72.4,68.0,29.97,North,0,0.9,3.1,86,0.00,,---,0.00,VWS V14.01,2013-06-24 09:43:00,
2013-06-24 04:44:00,72.4,68.0,29.97,East,90,1.1,1.6,86,0.00,,---,0.00,VWS V14.01,2013-06-24 09:44:00,
2013-06-24 04:45:00,72.4,67.6,29.97,East,90,0.9,2.0,85,0.00,,---,0.00,VWS V14.01,2013-06-24 09:45:00,
2013-06-24 04:46:00,72.4,68.0,29.97,WSW,248,3.6,4.3,86,0.00,,---,0.00,VWS V14.01,2013-06-24 09:46:00,
2013-06-24 04:47:00,72.4,68.0,29.97,SSE,158,2.0,3.6,86,0.00,,---,0.00,VWS V14.01,2013-06-24 09:47:00,
2013-06-24 04:48:00,72.4,68.0,29.97,ENE,68,2.7,2.9,86,0.00,,---,0.00,VWS V14.01,2013-06-24 09:48:00,
2013-06-24 04:49:00,72.4,67.6,29.97,South,180,2.2,2.7,85,0.00,,---,0.00,VWS V14.01,2013-06-24 09:49:00,
2013-06-24 04:50:00,72.4,68.0,29.97,SSE,158,3.1,3.1,86,0.00,,---,0.00,VWS V14.01,2013-06-24 09:50:00,
2013-06-24 04:51:00,72.4,68.0,29.97,East,90,0.9,1.1,86,0.00,,---,0.00,VWS V14.01,2013-06-24 09:51:00,
2013-06-24 04:52:00,72.2,67.8,29.97,South,180,2.9,2.9,86,0.00,,---,0.00,VWS V14.01,2013-06-24 09:52:00,
2013-06-24 04:53:00,72.2,67.8,29.97,East,90,0.9,3.1,86,0.00,,---,0.00,VWS V14.01,2013-06-24 09:53:00,
2013-06-24 04:54:00,72.2,67.8,29.97,SSE,158,4.3,6.0,86,0.00,,---,0.00,VWS V14.01,2013-06-24 09:54:00,
2013-06-24 04:55:00,72.2,67.8,29.97,East,90,2.0,4.3,86,0.00,,---,0.00,VWS V14.01,2013-06-24 09:55:00,
2013-06-24 04:56:00,72.2,67.8,29.97,East,90,1.3,2.2,86,0.00,,---,0.00,VWS V14.01,2013-06-24 09:56:00,
2013-06-24 04:57:00,72.2,67.8,29.97,East,90,4.3,4.3,86,0.00,,---,0.00,VWS V14.01,2013-06-24 09:57:00,
2013-06-24 04:58:00,72.2,67.8,29.97,SE,135,4.3,4.3,86,0.00,,---,0.00,VWS V14.01,2013-06-24 09:58:00,
2013-06-24 04:59:00,72.2,67.8,29.97,South,180,2.7,4.3,86,0.00,,---,0.00,VWS V14.01,2013-06-24 09:59:00,
2013-06-24 05:00:00,72.2,67.8,29.97,NE,45,2.9,3.6,86,0.00,,---,0.00,VWS V14.01,2013-06-24 10:00:00,
2013-06-24 05:01:00,72.2,68.1,30.00,SE,135,3.4,3.4,87,0.00,,---,0.00,VWS V14.01,2013-06-24 10:01:00,
2013-06-24 05:02:00,72.2,67.8,30.00,South,180,4.0,6.3,86,0.00,,---,0.00,VWS V14.01,2013-06-24 10:02:00,
2013-06-24 05:03:00,72.2,68.1,30.00,SSW,202,4.0,4.0,87,0.00,,---,0.00,VWS V14.01,2013-06-24 10:03:00,
2013-06-24 05:04:00,72.2,68.1,30.00,East,90,0.9,4.7,87,0.00,,---,0.00,VWS V14.01,2013-06-24 10:04:00,
2013-06-24 05:05:00,72.2,68.1,30.00,West,270,0.0,3.4,87,0.00,,---,0.00,VWS V14.01,2013-06-24 10:05:00,
2013-06-24 05:06:00,72.2,68.1,30.00,ESE,112,0.0,1.6,87,0.00,,---,0.00,VWS V14.01,2013-06-24 10:06:00,
2013-06-24 05:07:00,72.2,68.1,30.00,SSE,158,3.4,5.8,87,0.00,,---,0.00,VWS V14.01,2013-06-24 10:07:00,
2013-06-24 05:08:00,72.2,68.1,30.00,SE,135,0.0,3.4,87,0.00,,---,0.00,VWS V14.01,2013-06-24 10:08:00,
2013-06-24 05:09:00,72.0,68.0,30.00,SW,225,2.7,4.7,87,0.00,,---,0.00,VWS V14.01,2013-06-24 10:09:00,
2013-06-24 05:10:00,72.0,68.0,30.00,WSW,248,2.7,2.7,87,0.00,,---,0.00,VWS V14.01,2013-06-24 10:10:00,
2013-06-24 05:11:00,72.0,67.6,30.00,WSW,248,2.9,2.9,86,0.00,,---,0.00,VWS V14.01,2013-06-24 10:11:00,
2013-06-24 05:12:00,72.0,68.0,30.00,East,90,1.3,2.9,87,0.00,,---,0.00,VWS V14.01,2013-06-24 10:12:00,
2013-06-24 05:13:00,72.0,67.6,30.00,SE,135,3.4,3.8,86,0.00,,---,0.00,VWS V14.01,2013-06-24 10:13:00,
2013-06-24 05:14:00,72.0,67.6,30.00,SW,225,2.5,4.9,86,0.00,,---,0.00,VWS V14.01,2013-06-24 10:14:00,
2013-06-24 05:15:00,72.0,68.0,30.00,ESE,112,3.1,3.1,87,0.00,,---,0.00,VWS V14.01,2013-06-24 10:15:00,
2013-06-24 05:16:00,72.0,68.0,30.00,ESE,112,3.1,5.4,87,0.00,,---,0.00,VWS V14.01,2013-06-24 10:16:00,
2013-06-24 05:17:00,72.0,68.0,29.97,SE,135,1.1,4.7,87,0.00,,---,0.00,VWS V14.01,2013-06-24 10:17:00,
2013-06-24 05:18:00,72.0,68.0,29.97,South,180,2.5,5.4,87,0.00,,---,0.00,VWS V14.01,2013-06-24 10:18:00,
2013-06-24 05:19:00,72.0,68.0,29.97,SSE,158,3.6,5.4,87,0.00,,---,0.00,VWS V14.01,2013-06-24 10:19:00,
2013-06-24 05:20:00,72.0,68.0,29.97,East,90,0.0,3.6,87,0.00,,---,0.00,VWS V14.01,2013-06-24 10:20:00,
2013-06-24 05:21:00,71.9,67.8,29.97,SE,135,5.4,5.4,87,0.00,,---,0.00,VWS V14.01,2013-06-24 10:21:00,
2013-06-24 05:22:00,72.0,68.0,29.97,SE,135,7.8,7.8,87,0.00,,---,0.00,VWS V14.01,2013-06-24 10:22:00,
2013-06-24 05:23:00,72.0,68.0,29.97,ESE,112,2.5,2.5,87,0.00,,---,0.00,VWS V14.01,2013-06-24 10:23:00,
2013-06-24 05:24:00,72.0,68.0,29.97,SSW,202,2.7,6.3,87,0.00,,---,0.00,VWS V14.01,2013-06-24 10:24:00,
2013-06-24 05:25:00,72.0,68.0,29.97,SE,135,5.6,5.6,87,0.00,,---,0.00,VWS V14.01,2013-06-24 10:25:00,
2013-06-24 05:26:00,72.0,68.0,29.97,East,90,6.5,6.5,87,0.00,,---,0.00,VWS V14.01,2013-06-24 10:26:00,
2013-06-24 05:27:00,72.0,68.0,29.97,SSE,158,2.2,6.5,87,0.00,,---,0.00,VWS V14.01,2013-06-24 10:27:00,
2013-06-24 05:28:00,72.0,68.0,29.97,ESE,112,5.6,5.8,87,0.00,,---,0.00,VWS V14.01,2013-06-24 10:28:00,
2013-06-24 05:29:00,72.0,68.0,29.97,ESE,112,2.7,5.6,87,0.00,,---,0.00,VWS V14.01,2013-06-24 10:29:00,
2013-06-24 05:30:00,72.0,68.0,29.97,ESE,112,3.8,5.4,87,0.00,,---,0.00,VWS V14.01,2013-06-24 10:30:00,
2013-06-24 05:31:00,71.9,67.8,29.97,ESE,112,1.3,3.8,87,0.00,,---,0.00,VWS V14.01,2013-06-24 10:31:00,
2013-06-24 05:32:00,71.9,67.8,30.00,East,90,6.0,6.0,87,0.00,,---,0.00,VWS V14.01,2013-06-24 10:32:00,
2013-06-24 05:33:00,71.9,67.8,30.00,SE,135,4.9,6.5,87,0.00,,---,0.00,VWS V14.01,2013-06-24 10:33:00,
2013-06-24 05:34:00,71.9,67.8,30.00,ESE,112,4.9,4.9,87,0.00,,---,0.00,VWS V14.01,2013-06-24 10:34:00,
2013-06-24 05:35:00,71.9,67.8,30.00,SE,135,0.0,4.9,87,0.00,,---,0.00,VWS V14.01,2013-06-24 10:35:00,
2013-06-24 05:36:00,71.9,67.8,30.00,South,180,6.3,6.3,87,0.00,,---,0.00,VWS V14.01,2013-06-24 10:36:00,
2013-06-24 05:37:00,71.9,67.8,30.00,SE,135,5.4,6.3,87,0.00,,---,0.00,VWS V14.01,2013-06-24 10:37:00,
2013-06-24 05:38:00,71.9,67.8,30.00,South,180,3.8,6.0,87,0.00,,---,0.00,VWS V14.01,2013-06-24 10:38:00,
2013-06-24 05:39:00,71.9,67.8,30.00,SE,135,2.7,3.8,87,0.00,,---,0.00,VWS V14.01,2013-06-24 10:39:00,
2013-06-24 05:40:00,71.9,67.8,30.00,SE,135,1.6,4.0,87,0.00,,---,0.00,VWS V14.01,2013-06-24 10:40:00,
2013-06-24 05:41:00,71.9,67.8,30.00,SSE,158,2.0,6.5,87,0.00,,---,0.00,VWS V14.01,2013-06-24 10:41:00,
2013-06-24 05:42:00,71.9,67.8,30.00,East,90,2.7,5.6,87,0.00,,---,0.00,VWS V14.01,2013-06-24 10:42:00,
2013-06-24 05:43:00,71.9,67.8,30.00,ENE,68,3.6,3.6,87,0.00,,---,0.00,VWS V14.01,2013-06-24 10:43:00,
2013-06-24 05:44:00,71.9,67.8,30.00,ESE,112,0.9,3.8,87,0.00,,---,0.00,VWS V14.01,2013-06-24 10:44:00,
2013-06-24 05:45:00,71.9,67.8,30.00,SSW,202,2.7,3.1,87,0.00,,---,0.00,VWS V14.01,2013-06-24 10:45:00,
2013-06-24 05:46:00,71.7,67.6,30.00,SSE,158,3.4,3.4,87,0.00,,---,0.00,VWS V14.01,2013-06-24 10:46:00,
2013-06-24 05:47:00,71.9,67.8,30.00,SSE,158,4.3,5.4,87,0.00,,---,0.00,VWS V14.01,2013-06-24 10:47:00,
2013-06-24 05:48:00,71.7,67.6,30.00,North,0,2.0,4.3,87,0.00,,---,0.00,VWS V14.01,2013-06-24 10:48:00,
2013-06-24 05:49:00,71.7,67.6,30.00,South,180,2.7,4.3,87,0.00,,---,0.00,VWS V14.01,2013-06-24 10:49:00,
2013-06-24 05:50:00,71.7,67.6,30.00,ESE,112,1.1,2.7,87,0.00,,---,0.00,VWS V14.01,2013-06-24 10:50:00,
2013-06-24 05:51:00,71.7,67.6,30.00,ESE,112,2.9,4.7,87,0.00,,---,0.00,VWS V14.01,2013-06-24 10:51:00,
2013-06-24 05:52:00,71.7,67.6,30.00,SE,135,2.7,3.8,87,0.00,,---,0.00,VWS V14.01,2013-06-24 10:52:00,
2013-06-24 05:53:00,71.7,67.6,30.00,South,180,4.7,4.7,87,0.00,,---,0.00,VWS V14.01,2013-06-24 10:53:00,
2013-06-24 05:54:00,71.7,67.6,30.00,NE,45,3.1,3.1,87,0.00,,---,0.00,VWS V14.01,2013-06-24 10:54:00,
2013-06-24 05:55:00,71.7,67.6,30.00,ESE,112,0.9,3.1,87,0.00,,---,0.00,VWS V14.01,2013-06-24 10:55:00,
2013-06-24 05:56:00,71.7,67.6,30.00,ESE,112,2.7,2.7,87,0.00,,---,0.00,VWS V14.01,2013-06-24 10:56:00,
2013-06-24 05:57:00,71.5,67.4,30.00,ESE,112,3.6,6.0,87,0.00,,---,0.00,VWS V14.01,2013-06-24 10:57:00,
2013-06-24 05:58:00,71.7,67.9,30.00,South,180,4.3,5.8,88,0.00,,---,0.00,VWS V14.01,2013-06-24 10:58:00,
2013-06-24 05:59:00,71.7,67.9,30.00,ESE,112,1.3,4.3,88,0.00,,---,0.00,VWS V14.01,2013-06-24 10:59:00,
2013-06-24 06:00:00,71.7,67.9,30.00,East,90,2.9,2.9,88,0.00,,---,0.00,VWS V14.01,2013-06-24 11:00:00,
2013-06-24 06:01:00,71.7,67.9,30.00,SE,135,4.9,4.9,88,0.00,,---,0.00,VWS V14.01,2013-06-24 11:01:00,
2013-06-24 06:02:00,71.7,67.9,30.00,East,90,1.1,4.9,88,0.00,,---,0.00,VWS V14.01,2013-06-24 11:02:00,
2013-06-24 06:03:00,71.7,67.9,30.00,South,180,2.0,2.0,88,0.00,,---,0.00,VWS V14.01,2013-06-24 11:03:00,
2013-06-24 06:04:00,71.7,67.9,30.00,ESE,112,3.4,4.3,88,0.00,,---,0.00,VWS V14.01,2013-06-24 11:04:00,
2013-06-24 06:05:00,71.7,67.9,30.00,SE,135,4.0,4.3,88,0.00,,---,0.00,VWS V14.01,2013-06-24 11:05:00,
2013-06-24 06:06:00,71.7,67.9,30.00,East,90,2.5,4.0,88,0.00,,---,0.00,VWS V14.01,2013-06-24 11:06:00,
2013-06-24 06:07:00,71.7,67.9,30.00,ENE,68,4.3,4.3,88,0.00,,---,0.00,VWS V14.01,2013-06-24 11:07:00,
2013-06-24 06:08:00,71.7,67.9,30.00,South,180,2.7,4.3,88,0.00,,---,0.00,VWS V14.01,2013-06-24 11:08:00,
2013-06-24 06:09:00,71.7,67.9,30.00,SSW,202,3.1,5.6,88,0.00,,---,0.00,VWS V14.01,2013-06-24 11:09:00,
2013-06-24 06:10:00,71.7,67.9,30.00,SE,135,4.0,4.0,88,0.00,,---,0.00,VWS V14.01,2013-06-24 11:10:00,
2013-06-24 06:11:00,71.7,67.9,30.00,ESE,112,2.9,3.6,88,0.00,,---,0.00,VWS V14.01,2013-06-24 11:11:00,
2013-06-24 06:12:00,71.7,67.9,30.00,ESE,112,2.0,3.6,88,0.00,,---,0.00,VWS V14.01,2013-06-24 11:12:00,
2013-06-24 06:13:00,71.9,68.1,30.00,East,90,3.1,3.4,88,0.00,,---,0.00,VWS V14.01,2013-06-24 11:13:00,
2013-06-24 06:14:00,71.9,68.1,30.00,SE,135,1.3,3.4,88,0.00,,---,0.00,VWS V14.01,2013-06-24 11:14:00,
2013-06-24 06:15:00,71.9,68.1,30.00,SE,135,2.5,2.5,88,0.00,,---,0.00,VWS V14.01,2013-06-24 11:15:00,
2013-06-24 06:16:00,71.9,68.1,30.00,ESE,112,2.5,2.5,88,0.00,,---,0.00,VWS V14.01,2013-06-24 11:16:00,
2013-06-24 06:17:00,71.9,68.1,30.00,SE,135,3.4,3.4,88,0.00,,---,0.00,VWS V14.01,2013-06-24 11:17:00,
2013-06-24 06:18:00,72.0,68.3,30.00,SE,135,1.1,4.0,88,0.00,,---,0.00,VWS V14.01,2013-06-24 11:18:00,
2013-06-24 06:19:00,72.0,68.3,30.00,ESE,112,2.7,4.0,88,0.00,,---,0.00,VWS V14.01,2013-06-24 11:19:00,
2013-06-24 06:20:00,72.0,68.3,30.00,East,90,3.1,3.4,88,0.00,,---,0.00,VWS V14.01,2013-06-24 11:20:00,
2013-06-24 06:21:00,72.0,68.3,30.00,SE,135,3.8,4.0,88,0.00,,---,0.00,VWS V14.01,2013-06-24 11:21:00,
2013-06-24 06:22:00,72.0,68.3,30.00,SE,135,0.0,3.8,88,0.00,,---,0.00,VWS V14.01,2013-06-24 11:22:00,
2013-06-24 06:23:00,72.0,68.3,30.00,ESE,112,1.1,1.6,88,0.00,,---,0.00,VWS V14.01,2013-06-24 11:23:00,
2013-06-24 06:24:00,72.0,68.3,30.00,SE,135,3.1,3.1,88,0.00,,---,0.00,VWS V14.01,2013-06-24 11:24:00,
2013-06-24 06:25:00,72.2,68.5,30.00,ESE,112,2.5,4.3,88,0.00,,---,0.00,VWS V14.01,2013-06-24 11:25:00,
2013-06-24 06:26:00,72.2,68.5,30.00,ESE,112,4.0,4.0,88,0.00,,---,0.00,VWS V14.01,2013-06-24 11:26:00,
2013-06-24 06:27:00,72.2,68.5,30.00,SE,135,3.8,4.0,88,0.00,,---,0.00,VWS V14.01,2013-06-24 11:27:00,
2013-06-24 06:28:00,72.4,68.6,30.00,ESE,112,1.6,1.6,88,0.00,,---,0.00,VWS V14.01,2013-06-24 11:28:00,
2013-06-24 06:29:00,72.4,68.6,30.00,ESE,112,0.0,1.6,88,0.00,,---,0.00,VWS V14.01,2013-06-24 11:29:00,
2013-06-24 06:30:00,72.6,68.5,30.00,ESE,112,2.7,3.1,87,0.00,,---,0.00,VWS V14.01,2013-06-24 11:30:00,
2013-06-24 06:31:00,72.6,68.5,30.00,South,180,2.9,3.8,87,0.00,,---,0.00,VWS V14.01,2013-06-24 11:31:00,
2013-06-24 06:32:00,72.8,68.7,30.00,South,180,1.6,2.9,87,0.00,,---,0.00,VWS V14.01,2013-06-24 11:32:00,
2013-06-24 06:33:00,72.8,68.7,30.00,ESE,112,0.9,1.6,87,0.00,,---,0.00,VWS V14.01,2013-06-24 11:33:00,
2013-06-24 06:34:00,72.9,68.8,30.00,East,90,2.2,4.3,87,0.00,,---,0.00,VWS V14.01,2013-06-24 11:34:00,
2013-06-24 06:35:00,72.9,68.8,30.00,ESE,112,2.7,3.1,87,0.00,,---,0.00,VWS V14.01,2013-06-24 11:35:00,
2013-06-24 06:36:00,73.1,69.0,30.00,East,90,1.6,3.1,87,0.00,,---,0.00,VWS V14.01,2013-06-24 11:36:00,
2013-06-24 06:37:00,73.1,69.0,30.00,ESE,112,3.8,3.8,87,0.00,,---,0.00,VWS V14.01,2013-06-24 11:37:00,
2013-06-24 06:38:00,73.3,68.8,30.00,East,90,1.3,3.8,86,0.00,,---,0.00,VWS V14.01,2013-06-24 11:38:00,
2013-06-24 06:39:00,73.3,68.8,30.00,South,180,3.4,4.7,86,0.00,,---,0.00,VWS V14.01,2013-06-24 11:39:00,
2013-06-24 06:40:00,73.5,69.0,30.00,SSE,158,2.5,3.4,86,0.00,,---,0.00,VWS V14.01,2013-06-24 11:40:00,
2013-06-24 06:41:00,73.5,69.0,30.00,SE,135,2.9,5.8,86,0.00,,---,0.00,VWS V14.01,2013-06-24 11:41:00,
2013-06-24 06:42:00,73.6,69.2,30.00,SE,135,0.9,2.9,86,0.00,,---,0.00,VWS V14.01,2013-06-24 11:42:00,
2013-06-24 06:43:00,73.8,69.0,30.00,SE,135,4.9,4.9,85,0.00,,---,0.00,VWS V14.01,2013-06-24 11:43:00,
2013-06-24 06:44:00,73.8,69.0,30.00,South,180,4.3,4.9,85,0.00,,---,0.00,VWS V14.01,2013-06-24 11:44:00,
2013-06-24 06:45:00,73.8,69.0,30.00,ESE,112,3.4,3.4,85,0.00,,---,0.00,VWS V14.01,2013-06-24 11:45:00,
2013-06-24 06:46:00,74.0,69.2,30.00,ESE,112,4.7,4.7,85,0.00,,---,0.00,VWS V14.01,2013-06-24 11:46:00,
2013-06-24 06:47:00,74.2,69.4,30.03,SE,135,1.3,4.7,85,0.00,,---,0.00,VWS V14.01,2013-06-24 11:47:00,
2013-06-24 06:48:00,74.2,69.4,30.03,SE,135,2.0,2.7,85,0.00,,---,0.00,VWS V14.01,2013-06-24 11:48:00,
2013-06-24 06:49:00,74.3,69.2,30.03,SSW,202,3.6,3.6,84,0.00,,---,0.00,VWS V14.01,2013-06-24 11:49:00,
2013-06-24 06:50:00,74.3,69.2,30.03,ESE,112,3.1,3.6,84,0.00,,---,0.00,VWS V14.01,2013-06-24 11:50:00,
2013-06-24 06:51:00,74.7,69.6,30.03,South,180,3.8,3.8,84,0.00,,---,0.00,VWS V14.01,2013-06-24 11:51:00,
2013-06-24 06:52:00,74.9,69.4,30.03,ENE,68,2.2,5.4,83,0.00,,---,0.00,VWS V14.01,2013-06-24 11:52:00,
2013-06-24 06:53:00,74.9,69.4,30.03,SSE,158,6.5,6.5,83,0.00,,---,0.00,VWS V14.01,2013-06-24 11:53:00,
2013-06-24 06:54:00,75.1,69.5,30.03,SE,135,2.9,6.5,83,0.00,,---,0.00,VWS V14.01,2013-06-24 11:54:00,
2013-06-24 06:55:00,75.1,69.5,30.03,ESE,112,6.3,6.3,83,0.00,,---,0.00,VWS V14.01,2013-06-24 11:55:00,
2013-06-24 06:56:00,75.1,69.5,30.03,ESE,112,6.7,8.7,83,0.00,,---,0.00,VWS V14.01,2013-06-24 11:56:00,
2013-06-24 06:57:00,74.9,69.0,30.03,East,90,1.6,1.6,82,0.00,,---,0.00,VWS V14.01,2013-06-24 11:57:00,
2013-06-24 06:58:00,74.9,69.0,30.03,ENE,68,2.2,3.1,82,0.00,,---,0.00,VWS V14.01,2013-06-24 11:58:00,
2013-06-24 06:59:00,74.9,69.0,30.03,South,180,1.3,4.0,82,0.00,,---,0.00,VWS V14.01,2013-06-24 11:59:00,
2013-06-24 07:00:00,74.9,69.0,30.03,ESE,112,5.4,5.4,82,0.00,,---,0.00,VWS V14.01,2013-06-24 12:00:00,
2013-06-24 07:01:00,74.9,69.0,30.03,East,90,3.6,6.5,82,0.00,,---,0.00,VWS V14.01,2013-06-24 12:01:00,
2013-06-24 07:02:00,74.9,69.0,30.03,ENE,68,2.2,3.8,82,0.00,,---,0.00,VWS V14.01,2013-06-24 12:02:00,
2013-06-24 07:03:00,74.9,69.0,30.03,South,180,5.4,5.4,82,0.00,,---,0.00,VWS V14.01,2013-06-24 12:03:00,
2013-06-24 07:04:00,75.1,69.2,30.03,SE,135,3.1,5.4,82,0.00,,---,0.00,VWS V14.01,2013-06-24 12:04:00,
2013-06-24 07:05:00,75.2,69.4,30.03,SSE,158,6.0,6.0,82,0.00,,---,0.00,VWS V14.01,2013-06-24 12:05:00,
2013-06-24 07:06:00,75.4,69.5,30.03,SE,135,3.8,6.0,82,0.00,,---,0.00,VWS V14.01,2013-06-24 12:06:00,
2013-06-24 07:07:00,75.4,69.2,30.03,ESE,112,2.9,5.6,81,0.00,,---,0.00,VWS V14.01,2013-06-24 12:07:00,
2013-06-24 07:08:00,75.6,69.3,30.03,ESE,112,5.8,5.8,81,0.00,,---,0.00,VWS V14.01,2013-06-24 12:08:00,
2013-06-24 07:09:00,75.8,69.5,30.03,SE,135,2.7,5.8,81,0.00,,---,0.00,VWS V14.01,2013-06-24 12:09:00,
2013-06-24 07:10:00,75.8,69.5,30.03,South,180,2.7,4.7,81,0.00,,---,0.00,VWS V14.01,2013-06-24 12:10:00,
2013-06-24 07:11:00,75.9,69.7,30.03,ESE,112,2.5,4.0,81,0.00,,---,0.00,VWS V14.01,2013-06-24 12:11:00,
2013-06-24 07:12:00,75.9,69.7,30.03,ESE,112,5.6,9.6,81,0.00,,---,0.00,VWS V14.01,2013-06-24 12:12:00,
2013-06-24 07:13:00,75.9,69.3,30.03,SSW,202,3.4,9.6,80,0.00,,---,0.00,VWS V14.01,2013-06-24 12:13:00,
2013-06-24 07:14:00,76.1,69.1,30.03,ENE,68,3.4,4.9,79,0.00,,---,0.00,VWS V14.01,2013-06-24 12:14:00,
2013-06-24 07:15:00,76.3,69.3,30.03,East,90,2.5,4.0,79,0.00,,---,0.00,VWS V14.01,2013-06-24 12:15:00,
2013-06-24 07:16:00,76.3,69.3,30.03,SE,135,4.9,5.8,79,0.00,,---,0.00,VWS V14.01,2013-06-24 12:16:00,
2013-06-24 07:17:00,76.5,69.5,30.03,West,270,4.9,4.9,79,0.00,,---,0.00,VWS V14.01,2013-06-24 12:17:00,
2013-06-24 07:18:00,76.5,69.5,30.03,South,180,4.9,4.9,79,0.00,,---,0.00,VWS V14.01,2013-06-24 12:18:00,
2013-06-24 07:19:00,76.7,69.7,30.03,East,90,1.6,4.9,79,0.00,,---,0.00,VWS V14.01,2013-06-24 12:19:00,
2013-06-24 07:20:00,76.8,69.8,30.03,SE,135,4.7,8.7,79,0.00,,---,0.00,VWS V14.01,2013-06-24 12:20:00,
2013-06-24 07:21:00,76.8,69.4,30.03,ENE,68,2.9,8.7,78,0.00,,---,0.00,VWS V14.01,2013-06-24 12:21:00,
2013-06-24 07:22:00,77.0,69.6,30.03,SE,135,3.8,3.8,78,0.00,,---,0.00,VWS V14.01,2013-06-24 12:22:00,
2013-06-24 07:23:00,77.2,69.8,30.03,North,0,4.9,4.9,78,0.00,,---,0.00,VWS V14.01,2013-06-24 12:23:00,
2013-06-24 07:24:00,77.2,69.8,30.03,SE,135,6.5,6.5,78,0.00,,---,0.00,VWS V14.01,2013-06-24 12:24:00,
2013-06-24 07:25:00,77.4,70.0,30.03,South,180,0.0,6.5,78,0.00,,---,0.00,VWS V14.01,2013-06-24 12:25:00,
2013-06-24 07:26:00,77.5,70.1,30.03,South,180,3.6,5.4,78,0.00,,---,0.00,VWS V14.01,2013-06-24 12:26:00,
2013-06-24 07:28:00,77.7,69.9,30.03,SE,135,4.3,6.3,77,0.00,,---,0.00,VWS V14.01,2013-06-24 12:28:00,
2013-06-24 07:29:00,77.7,69.9,30.03,East,90,4.3,6.0,77,0.00,,---,0.00,VWS V14.01,2013-06-24 12:29:00,
2013-06-24 07:30:00,77.7,69.6,30.03,ESE,112,6.3,6.3,76,0.00,,---,0.00,VWS V14.01,2013-06-24 12:30:00,
2013-06-24 07:31:00,77.7,69.6,30.03,East,90,7.4,7.4,76,0.00,,---,0.00,VWS V14.01,2013-06-24 12:31:00,
2013-06-24 07:32:00,77.7,69.6,30.06,SE,135,1.6,7.4,76,0.00,,---,0.00,VWS V14.01,2013-06-24 12:32:00,
2013-06-24 07:33:00,78.1,69.9,30.06,SSE,158,5.4,5.4,76,0.00,,---,0.00,VWS V14.01,2013-06-24 12:33:00,
2013-06-24 07:34:00,78.1,69.9,30.06,ESE,112,6.3,6.3,76,0.00,,---,0.00,VWS V14.01,2013-06-24 12:34:00,
2013-06-24 07:35:00,78.2,69.7,30.06,South,180,3.1,6.3,75,0.00,,---,0.00,VWS V14.01,2013-06-24 12:35:00,
2013-06-24 07:36:00,78.2,69.7,30.06,SE,135,4.3,4.3,75,0.00,,---,0.00,VWS V14.01,2013-06-24 12:36:00,
2013-06-24 07:37:00,78.2,69.7,30.06,SSE,158,3.8,3.8,75,0.00,,---,0.00,VWS V14.01,2013-06-24 12:37:00,
2013-06-24 07:38:00,78.2,69.7,30.06,South,180,4.9,5.4,75,0.00,,---,0.00,VWS V14.01,2013-06-24 12:38:00,
2013-06-24 07:39:00,77.9,68.9,30.06,SE,135,4.0,7.6,74,0.00,,---,0.00,VWS V14.01,2013-06-24 12:39:00,
2013-06-24 07:40:00,77.7,69.2,30.06,ESE,112,3.8,4.7,75,0.00,,---,0.00,VWS V14.01,2013-06-24 12:40:00,
2013-06-24 07:41:00,77.7,69.2,30.06,South,180,5.4,7.6,75,0.00,,---,0.00,VWS V14.01,2013-06-24 12:41:00,
2013-06-24 07:42:00,77.5,69.0,30.06,East,90,3.6,8.1,75,0.00,,---,0.00,VWS V14.01,2013-06-24 12:42:00,
2013-06-24 07:43:00,77.5,69.0,30.06,SSE,158,4.9,4.9,75,0.00,,---,0.00,VWS V14.01,2013-06-24 12:43:00,
2013-06-24 07:44:00,77.5,69.0,30.06,East,90,6.0,6.0,75,0.00,,---,0.00,VWS V14.01,2013-06-24 12:44:00,
2013-06-24 07:45:00,77.5,69.0,30.06,ESE,112,2.5,8.5,75,0.00,,---,0.00,VWS V14.01,2013-06-24 12:45:00,
2013-06-24 07:46:00,77.5,69.4,30.06,SSW,202,0.9,2.5,76,0.00,,---,0.00,VWS V14.01,2013-06-24 12:46:00,
2013-06-24 07:47:00,77.5,69.4,30.06,South,180,3.6,3.6,76,0.00,,---,0.00,VWS V14.01,2013-06-24 12:47:00,
2013-06-24 07:48:00,77.7,69.6,30.06,ENE,68,2.5,8.5,76,0.00,,---,0.00,VWS V14.01,2013-06-24 12:48:00,
2013-06-24 07:49:00,77.7,69.6,30.06,East,90,6.5,6.5,76,0.00,,---,0.00,VWS V14.01,2013-06-24 12:49:00,
2013-06-24 07:50:00,77.7,69.6,30.06,South,180,5.6,6.5,76,0.00,,---,0.00,VWS V14.01,2013-06-24 12:50:00,
2013-06-24 07:51:00,77.9,69.3,30.06,South,180,3.1,5.6,75,0.00,,---,0.00,VWS V14.01,2013-06-24 12:51:00,
2013-06-24 07:52:00,77.9,69.3,30.06,ESE,112,1.6,3.4,75,0.00,,---,0.00,VWS V14.01,2013-06-24 12:52:00,
2013-06-24 07:53:00,77.9,69.3,30.06,SE,135,2.7,8.7,75,0.00,,---,0.00,VWS V14.01,2013-06-24 12:53:00,
2013-06-24 07:54:00,77.7,69.6,30.06,ESE,112,1.3,6.3,76,0.00,,---,0.00,VWS V14.01,2013-06-24 12:54:00,
2013-06-24 07:55:00,77.7,69.6,30.06,ENE,68,3.1,7.6,76,0.00,,---,0.00,VWS V14.01,2013-06-24 12:55:00,
2013-06-24 07:56:00,77.7,69.6,30.06,South,180,2.5,3.8,76,0.00,,---,0.00,VWS V14.01,2013-06-24 12:56:00,
2013-06-24 07:57:00,77.7,69.6,30.06,SE,135,5.8,5.8,76,0.00,,---,0.00,VWS V14.01,2013-06-24 12:57:00,
2013-06-24 07:58:00,77.9,69.3,30.06,SSE,158,6.3,6.3,75,0.00,,---,0.00,VWS V14.01,2013-06-24 12:58:00,
2013-06-24 07:59:00,78.2,69.7,30.06,South,180,2.2,6.3,75,0.00,,---,0.00,VWS V14.01,2013-06-24 12:59:00,
2013-06-24 08:00:00,78.6,70.4,30.06,SE,135,2.2,2.2,76,0.00,,---,0.00,VWS V14.01,2013-06-24 13:00:00,
2013-06-24 08:01:00,78.9,70.4,30.06,SSW,202,2.0,2.7,75,0.00,,---,0.00,VWS V14.01,2013-06-24 13:01:00,
2013-06-24 08:02:00,78.9,70.4,30.06,SE,135,3.4,4.7,75,0.00,,---,0.00,VWS V14.01,2013-06-24 13:02:00,
2013-06-24 08:03:00,79.3,70.3,30.06,SE,135,2.5,4.9,74,0.00,,---,0.00,VWS V14.01,2013-06-24 13:03:00,
2013-06-24 08:04:00,79.7,70.7,30.06,ENE,68,3.4,3.4,74,0.00,,---,0.00,VWS V14.01,2013-06-24 13:04:00,
2013-06-24 08:05:00,79.7,70.7,30.06,SE,135,3.8,4.7,74,0.00,,---,0.00,VWS V14.01,2013-06-24 13:05:00,
2013-06-24 08:06:00,79.8,70.4,30.06,NE,45,4.0,4.0,73,0.00,,---,0.00,VWS V14.01,2013-06-24 13:06:00,
2013-06-24 08:07:00,79.8,69.6,30.06,SE,135,1.3,4.7,71,0.00,,---,0.00,VWS V14.01,2013-06-24 13:07:00,
2013-06-24 08:08:00,79.7,69.8,30.06,East,90,3.1,5.6,72,0.00,,---,0.00,VWS V14.01,2013-06-24 13:08:00,
2013-06-24 08:09:00,79.7,69.8,30.06,SSE,158,2.0,7.8,72,0.00,,---,0.00,VWS V14.01,2013-06-24 13:09:00,
2013-06-24 08:10:00,79.5,69.7,30.06,ESE,112,3.8,6.0,72,0.00,,---,0.00,VWS V14.01,2013-06-24 13:10:00,
2013-06-24 08:11:00,79.5,69.3,30.06,South,180,3.4,4.0,71,0.00,,---,0.00,VWS V14.01,2013-06-24 13:11:00,
2013-06-24 08:12:00,79.5,69.3,30.06,ESE,112,3.1,4.0,71,0.00,,---,0.00,VWS V14.01,2013-06-24 13:12:00,
2013-06-24 08:13:00,80.0,69.8,30.06,South,180,4.3,6.5,71,0.00,,---,0.00,VWS V14.01,2013-06-24 13:13:00,
2013-06-24 08:14:00,80.4,70.1,30.06,ESE,112,2.7,6.5,71,0.00,,---,0.00,VWS V14.01,2013-06-24 13:14:00,
2013-06-24 08:15:00,80.9,70.6,30.06,East,90,3.8,3.8,71,0.00,,---,0.00,VWS V14.01,2013-06-24 13:15:00,
2013-06-24 08:16:00,81.1,70.8,30.06,SE,135,2.9,3.8,71,0.00,,---,0.00,VWS V14.01,2013-06-24 13:16:00,
2013-06-24 08:17:00,80.7,69.6,30.06,South,180,3.4,7.8,69,0.00,,---,0.00,VWS V14.01,2013-06-24 13:17:00,
2013-06-24 08:18:00,80.7,69.2,30.06,South,180,4.7,7.8,68,0.00,,---,0.00,VWS V14.01,2013-06-24 13:18:00,
2013-06-24 08:19:00,81.1,69.5,30.06,East,90,5.6,5.6,68,0.00,,---,0.00,VWS V14.01,2013-06-24 13:19:00,
2013-06-24 08:20:00,81.3,69.7,30.06,ENE,68,2.9,5.6,68,0.00,,---,0.00,VWS V14.01,2013-06-24 13:20:00,
2013-06-24 08:21:00,81.1,69.5,30.06,East,90,3.1,8.7,68,0.00,,---,0.00,VWS V14.01,2013-06-24 13:21:00,
2013-06-24 08:22:00,80.7,68.8,30.06,SSE,158,4.3,5.4,67,0.00,,---,0.00,VWS V14.01,2013-06-24 13:22:00,
2013-06-24 08:23:00,80.6,68.6,30.06,ESE,112,1.6,6.3,67,0.00,,---,0.00,VWS V14.01,2013-06-24 13:23:00,
2013-06-24 08:24:00,80.6,68.6,30.06,East,90,3.4,3.4,67,0.00,,---,0.00,VWS V14.01,2013-06-24 13:24:00,
2013-06-24 08:25:00,80.4,68.4,30.06,SSE,158,2.0,3.4,67,0.00,,---,0.00,VWS V14.01,2013-06-24 13:25:00,
2013-06-24 08:26:00,80.6,69.0,30.06,SSW,202,9.6,9.6,68,0.00,,---,0.00,VWS V14.01,2013-06-24 13:26:00,
2013-06-24 08:27:00,80.6,68.6,30.06,SW,225,2.0,9.6,67,0.00,,---,0.00,VWS V14.01,2013-06-24 13:27:00,
2013-06-24 08:28:00,80.7,68.8,30.06,SE,135,1.6,3.4,67,0.00,,---,0.00,VWS V14.01,2013-06-24 13:28:00,
2013-06-24 08:29:00,80.6,68.6,30.06,South,180,12.1,12.1,67,0.00,,---,0.00,VWS V14.01,2013-06-24 13:29:00,
2013-06-24 08:30:00,80.6,68.2,30.06,SE,135,6.0,12.1,66,0.00,,---,0.00,VWS V14.01,2013-06-24 13:30:00,
2013-06-24 08:31:00,80.6,68.6,30.06,ESE,112,5.6,6.0,67,0.00,,---,0.00,VWS V14.01,2013-06-24 13:31:00,
2013-06-24 08:32:00,80.4,68.0,30.06,SSW,202,2.7,6.3,66,0.00,,---,0.00,VWS V14.01,2013-06-24 13:32:00,
2013-06-24 08:33:00,80.4,68.0,30.06,ESE,112,3.4,7.8,66,0.00,,---,0.00,VWS V14.01,2013-06-24 13:33:00,
2013-06-24 08:34:00,80.2,68.2,30.06,South,180,4.9,4.9,67,0.00,,---,0.00,VWS V14.01,2013-06-24 13:34:00,
2013-06-24 08:35:00,80.4,68.4,30.06,SE,135,1.3,1.3,67,0.00,,---,0.00,VWS V14.01,2013-06-24 13:35:00,
2013-06-24 08:36:00,80.4,68.4,30.06,South,180,3.6,7.2,67,0.00,,---,0.00,VWS V14.01,2013-06-24 13:36:00,
2013-06-24 08:37:00,80.2,67.8,30.06,ESE,112,2.9,3.6,66,0.00,,---,0.00,VWS V14.01,2013-06-24 13:37:00,
2013-06-24 08:38:00,80.2,67.8,30.06,SE,135,3.1,4.9,66,0.00,,---,0.00,VWS V14.01,2013-06-24 13:38:00,
2013-06-24 08:39:00,80.4,68.4,30.06,South,180,1.6,3.1,67,0.00,,---,0.00,VWS V14.01,2013-06-24 13:39:00,
2013-06-24 08:40:00,80.4,68.4,30.06,South,180,2.5,5.6,67,0.00,,---,0.00,VWS V14.01,2013-06-24 13:40:00,
2013-06-24 08:41:00,80.4,68.4,30.06,South,180,5.4,5.4,67,0.00,,---,0.00,VWS V14.01,2013-06-24 13:41:00,
2013-06-24 08:42:00,80.4,68.0,30.06,South,180,5.4,6.9,66,0.00,,---,0.00,VWS V14.01,2013-06-24 13:42:00,
2013-06-24 08:43:00,80.4,67.5,30.06,SE,135,9.8,9.8,65,0.00,,---,0.00,VWS V14.01,2013-06-24 13:43:00,
2013-06-24 08:44:00,80.4,67.5,30.06,South,180,6.0,9.8,65,0.00,,---,0.00,VWS V14.01,2013-06-24 13:44:00,
2013-06-24 08:45:00,80.7,68.3,30.06,East,90,4.0,6.0,66,0.00,,---,0.00,VWS V14.01,2013-06-24 13:45:00,
2013-06-24 08:46:00,80.6,68.2,30.06,East,90,3.8,6.5,66,0.00,,---,0.00,VWS V14.01,2013-06-24 13:46:00,
2013-06-24 08:47:00,80.9,68.5,30.06,SE,135,4.0,4.0,66,0.00,,---,0.00,VWS V14.01,2013-06-24 13:47:00,
2013-06-24 08:48:00,81.1,68.7,30.06,South,180,1.3,4.9,66,0.00,,---,0.00,VWS V14.01,2013-06-24 13:48:00,
2013-06-24 08:49:00,81.1,68.7,30.06,SE,135,3.4,5.4,66,0.00,,---,0.00,VWS V14.01,2013-06-24 13:49:00,
2013-06-24 08:50:00,81.1,68.7,30.06,SE,135,5.6,5.6,66,0.00,,---,0.00,VWS V14.01,2013-06-24 13:50:00,
2013-06-24 08:51:00,80.9,68.1,30.06,NNE,22,5.6,5.6,65,0.00,,---,0.00,VWS V14.01,2013-06-24 13:51:00,
2013-06-24 08:52:00,80.9,68.1,30.06,SE,135,3.8,9.8,65,0.00,,---,0.00,VWS V14.01,2013-06-24 13:52:00,
2013-06-24 08:53:00,80.9,68.1,30.06,ESE,112,3.4,3.4,65,0.00,,---,0.00,VWS V14.01,2013-06-24 13:53:00,
2013-06-24 08:54:00,81.3,68.4,30.06,South,180,3.1,4.0,65,0.00,,---,0.00,VWS V14.01,2013-06-24 13:54:00,
2013-06-24 08:55:00,81.3,68.4,30.06,SE,135,4.0,9.6,65,0.00,,---,0.00,VWS V14.01,2013-06-24 13:55:00,
2013-06-24 08:56:00,81.4,68.6,30.06,ESE,112,4.0,4.0,65,0.00,,---,0.00,VWS V14.01,2013-06-24 13:56:00,
2013-06-24 08:57:00,81.8,68.9,30.06,SSW,202,2.7,4.0,65,0.00,,---,0.00,VWS V14.01,2013-06-24 13:57:00,
2013-06-24 08:58:00,81.8,68.4,30.06,ESE,112,3.6,4.7,64,0.00,,---,0.00,VWS V14.01,2013-06-24 13:58:00,
2013-06-24 08:59:00,82.3,68.9,30.06,East,90,5.4,5.4,64,0.00,,---,0.00,VWS V14.01,2013-06-24 13:59:00,
2013-06-24 09:00:00,82.2,68.3,30.06,SW,225,4.3,6.0,63,0.00,,---,0.00,VWS V14.01,2013-06-24 14:00:00,
2013-06-24 09:01:00,82.0,68.1,30.06,South,180,3.4,7.2,63,0.00,,---,0.00,VWS V14.01,2013-06-24 14:01:00,
2013-06-24 09:02:00,82.2,68.3,30.06,East,90,4.7,4.7,63,0.00,,---,0.00,VWS V14.01,2013-06-24 14:02:00,
2013-06-24 09:03:00,81.8,68.0,30.06,West,270,3.8,8.5,63,0.00,,---,0.00,VWS V14.01,2013-06-24 14:03:00,
2013-06-24 09:04:00,81.6,67.8,30.06,SE,135,3.8,6.5,63,0.00,,---,0.00,VWS V14.01,2013-06-24 14:04:00,
2013-06-24 09:05:00,81.4,67.6,30.06,SE,135,4.3,4.3,63,0.00,,---,0.00,VWS V14.01,2013-06-24 14:05:00,
2013-06-24 09:06:00,81.3,67.5,30.06,SE,135,7.8,7.8,63,0.00,,---,0.00,VWS V14.01,2013-06-24 14:06:00,
2013-06-24 09:07:00,81.8,67.5,30.06,South,180,3.8,7.8,62,0.00,,---,0.00,VWS V14.01,2013-06-24 14:07:00,
2013-06-24 09:08:00,82.0,68.1,30.06,South,180,2.9,3.8,63,0.00,,---,0.00,VWS V14.01,2013-06-24 14:08:00,
2013-06-24 09:09:00,81.8,68.0,30.06,SSW,202,3.1,7.2,63,0.00,,---,0.00,VWS V14.01,2013-06-24 14:09:00,
2013-06-24 09:10:00,81.8,68.0,30.06,SSE,158,7.8,7.8,63,0.00,,---,0.00,VWS V14.01,2013-06-24 14:10:00,
2013-06-24 09:11:00,82.0,68.1,30.06,SSW,202,4.0,7.8,63,0.00,,---,0.00,VWS V14.01,2013-06-24 14:11:00,
2013-06-24 09:12:00,82.3,68.0,30.06,SW,225,3.6,6.5,62,0.00,,---,0.00,VWS V14.01,2013-06-24 14:12:00,
2013-06-24 09:13:00,83.4,69.0,30.06,South,180,7.4,7.4,62,0.00,,---,0.00,VWS V14.01,2013-06-24 14:13:00,
2013-06-24 09:14:00,83.4,69.0,30.06,SE,135,8.5,8.5,62,0.00,,---,0.00,VWS V14.01,2013-06-24 14:14:00,
2013-06-24 09:15:00,83.9,69.0,30.06,East,90,2.7,8.5,61,0.00,,---,0.00,VWS V14.01,2013-06-24 14:15:00,
2013-06-24 09:16:00,84.1,69.2,30.06,SSW,202,3.1,6.5,61,0.00,,---,0.00,VWS V14.01,2013-06-24 14:16:00,
2013-06-24 09:17:00,83.7,68.4,30.06,SE,135,3.1,7.6,60,0.00,,---,0.00,VWS V14.01,2013-06-24 14:17:00,
2013-06-24 09:18:00,83.7,68.4,30.06,South,180,2.7,4.3,60,0.00,,---,0.00,VWS V14.01,2013-06-24 14:18:00,
2013-06-24 09:19:00,83.6,68.2,30.06,ESE,112,4.0,4.0,60,0.00,,---,0.00,VWS V14.01,2013-06-24 14:19:00,
2013-06-24 09:20:00,83.9,68.1,30.06,South,180,3.4,8.7,59,0.00,,---,0.00,VWS V14.01,2013-06-24 14:20:00,
2013-06-24 09:21:00,83.6,67.7,30.06,SSE,158,5.4,5.4,59,0.00,,---,0.00,VWS V14.01,2013-06-24 14:21:00,
2013-06-24 09:22:00,83.9,67.6,30.06,East,90,9.8,9.8,58,0.00,,---,0.00,VWS V14.01,2013-06-24 14:22:00,
2013-06-24 09:23:00,83.6,67.2,30.06,South,180,5.4,9.8,58,0.00,,---,0.00,VWS V14.01,2013-06-24 14:23:00,
2013-06-24 09:24:00,83.4,67.6,30.06,SE,135,6.7,7.2,59,0.00,,---,0.00,VWS V14.01,2013-06-24 14:24:00,
2013-06-24 09:25:00,83.6,67.2,30.06,SE,135,5.4,8.1,58,0.00,,---,0.00,VWS V14.01,2013-06-24 14:25:00,
2013-06-24 09:26:00,83.6,67.2,30.06,SSW,202,2.9,5.8,58,0.00,,---,0.00,VWS V14.01,2013-06-24 14:26:00,
2013-06-24 09:27:00,83.2,66.9,30.06,SSW,202,7.4,19.2,58,0.00,,---,0.00,VWS V14.01,2013-06-24 14:27:00,
2013-06-24 09:28:00,82.7,66.9,30.06,South,180,9.2,9.2,59,0.00,,---,0.00,VWS V14.01,2013-06-24 14:28:00,
2013-06-24 09:29:00,82.7,66.9,30.06,East,90,8.1,9.2,59,0.00,,---,0.00,VWS V14.01,2013-06-24 14:29:00,
2013-06-24 09:30:00,82.7,67.4,30.06,SSW,202,2.9,8.1,60,0.00,,---,0.00,VWS V14.01,2013-06-24 14:30:00,
2013-06-24 09:31:00,82.5,67.2,30.06,East,90,2.5,5.6,60,0.00,,---,0.00,VWS V14.01,2013-06-24 14:31:00,
2013-06-24 09:32:00,82.5,67.2,30.06,SSW,202,3.6,9.4,60,0.00,,---,0.00,VWS V14.01,2013-06-24 14:32:00,
2013-06-24 09:33:00,82.7,66.9,30.06,East,90,5.4,9.4,59,0.00,,---,0.00,VWS V14.01,2013-06-24 14:33:00,
2013-06-24 09:34:00,82.5,66.7,30.06,SSW,202,4.7,12.8,59,0.00,,---,0.00,VWS V14.01,2013-06-24 14:34:00,
2013-06-24 09:35:00,82.5,66.7,30.06,SW,225,3.8,6.0,59,0.00,,---,0.00,VWS V14.01,2013-06-24 14:35:00,
2013-06-24 09:36:00,82.7,67.4,30.06,ESE,112,7.4,7.4,60,0.00,,---,0.00,VWS V14.01,2013-06-24 14:36:00,
2013-06-24 09:37:00,82.3,66.6,30.06,South,180,5.4,7.4,59,0.00,,---,0.00,VWS V14.01,2013-06-24 14:37:00,
2013-06-24 09:38:00,82.2,66.4,30.06,South,180,14.5,14.5,59,0.00,,---,0.00,VWS V14.01,2013-06-24 14:38:00,
2013-06-24 09:39:00,82.0,66.2,30.06,South,180,11.0,15.2,59,0.00,,---,0.00,VWS V14.01,2013-06-24 14:39:00,
2013-06-24 09:40:00,81.8,66.1,30.06,SSE,158,10.1,12.3,59,0.00,,---,0.00,VWS V14.01,2013-06-24 14:40:00,
2013-06-24 09:41:00,81.6,65.9,30.06,SSE,158,9.8,10.1,59,0.00,,---,0.00,VWS V14.01,2013-06-24 14:41:00,
2013-06-24 09:42:00,81.6,65.9,30.06,East,90,5.8,9.8,59,0.00,,---,0.00,VWS V14.01,2013-06-24 14:42:00,
2013-06-24 09:43:00,81.4,65.8,30.06,South,180,2.9,5.8,59,0.00,,---,0.00,VWS V14.01,2013-06-24 14:43:00,
2013-06-24 09:44:00,81.4,65.8,30.06,South,180,7.8,7.8,59,0.00,,---,0.00,VWS V14.01,2013-06-24 14:44:00,
2013-06-24 09:45:00,82.7,67.4,30.06,WSW,248,5.8,7.8,60,0.00,,---,0.00,VWS V14.01,2013-06-24 14:45:00,
2013-06-24 09:46:00,83.2,67.4,30.06,SSW,202,7.8,7.8,59,0.00,,---,0.00,VWS V14.01,2013-06-24 14:46:00,
2013-06-24 09:47:00,83.4,67.6,30.06,East,90,3.1,7.8,59,0.00,,---,0.00,VWS V14.01,2013-06-24 14:47:00,
2013-06-24 09:48:00,83.4,67.1,30.06,South,180,7.6,9.8,58,0.00,,---,0.00,VWS V14.01,2013-06-24 14:48:00,
2013-06-24 09:49:00,84.1,67.7,30.06,SSW,202,9.4,9.4,58,0.00,,---,0.00,VWS V14.01,2013-06-24 14:49:00,
2013-06-24 09:50:00,84.1,67.7,30.06,SE,135,4.0,9.4,58,0.00,,---,0.00,VWS V14.01,2013-06-24 14:50:00,
2013-06-24 09:51:00,84.3,67.9,30.06,South,180,6.5,10.7,58,0.00,,---,0.00,VWS V14.01,2013-06-24 14:51:00,
2013-06-24 09:52:00,84.6,68.2,30.06,SSE,158,3.4,3.4,58,0.00,,---,0.00,VWS V14.01,2013-06-24 14:52:00,
2013-06-24 09:53:00,84.6,68.2,30.06,SE,135,6.0,6.5,58,0.00,,---,0.00,VWS V14.01,2013-06-24 14:53:00,
2013-06-24 09:54:00,84.6,67.7,30.06,ESE,112,5.6,6.0,57,0.00,,---,0.00,VWS V14.01,2013-06-24 14:54:00,
2013-06-24 09:55:00,85.0,67.6,30.06,South,180,7.8,7.8,56,0.00,,---,0.00,VWS V14.01,2013-06-24 14:55:00,
2013-06-24 09:56:00,84.4,66.5,30.06,SE,135,5.4,12.8,55,0.00,,---,0.00,VWS V14.01,2013-06-24 14:56:00,
2013-06-24 09:57:00,84.3,66.9,30.06,SSW,202,6.0,6.0,56,0.00,,---,0.00,VWS V14.01,2013-06-24 14:57:00,
2013-06-24 09:58:00,84.1,66.7,30.06,SW,225,5.4,8.1,56,0.00,,---,0.00,VWS V14.01,2013-06-24 14:58:00,
2013-06-24 09:59:00,84.3,66.9,30.06,SSE,158,8.5,8.5,56,0.00,,---,0.00,VWS V14.01,2013-06-24 14:59:00,
2013-06-24 10:00:00,84.1,66.2,30.06,South,180,9.6,9.6,55,0.00,,---,0.00,VWS V14.01,2013-06-24 15:00:00,
2013-06-24 10:01:00,83.9,66.0,30.06,South,180,3.4,9.6,55,0.00,,---,0.00,VWS V14.01,2013-06-24 15:01:00,
2013-06-24 10:02:00,83.7,65.9,30.06,South,180,5.4,8.5,55,0.00,,---,0.00,VWS V14.01,2013-06-24 15:02:00,
2013-06-24 10:03:00,83.9,65.5,30.06,SE,135,7.6,13.2,54,0.00,,---,0.00,VWS V14.01,2013-06-24 15:03:00,
2013-06-24 10:04:00,83.6,65.7,30.06,South,180,4.5,4.5,55,0.00,,---,0.00,VWS V14.01,2013-06-24 15:04:00,
2013-06-24 10:05:00,83.4,65.5,30.06,ESE,112,6.0,7.2,55,0.00,,---,0.00,VWS V14.01,2013-06-24 15:05:00,
2013-06-24 10:06:00,83.6,65.7,30.06,South,180,2.5,6.9,55,0.00,,---,0.00,VWS V14.01,2013-06-24 15:06:00,
2013-06-24 10:07:00,83.4,65.5,30.06,SSE,158,2.0,5.6,55,0.00,,---,0.00,VWS V14.01,2013-06-24 15:07:00,
2013-06-24 10:08:00,84.1,66.2,30.06,SSE,158,9.4,10.1,55,0.00,,---,0.00,VWS V14.01,2013-06-24 15:08:00,
2013-06-24 10:09:00,84.3,66.4,30.06,South,180,2.5,9.4,55,0.00,,---,0.00,VWS V14.01,2013-06-24 15:09:00,
2013-06-24 10:10:00,85.0,67.0,30.06,SE,135,3.4,4.3,55,0.00,,---,0.00,VWS V14.01,2013-06-24 15:10:00,
2013-06-24 10:11:00,85.0,66.5,30.06,South,180,10.7,10.7,54,0.00,,---,0.00,VWS V14.01,2013-06-24 15:11:00,
2013-06-24 10:12:00,84.3,65.8,30.06,SE,135,12.5,12.5,54,0.00,,---,0.00,VWS V14.01,2013-06-24 15:12:00,
2013-06-24 10:13:00,84.6,66.2,30.06,WSW,248,4.3,12.5,54,0.00,,---,0.00,VWS V14.01,2013-06-24 15:13:00,
2013-06-24 10:14:00,85.0,66.5,30.06,SE,135,3.8,6.5,54,0.00,,---,0.00,VWS V14.01,2013-06-24 15:14:00,
2013-06-24 10:15:00,85.0,65.9,30.06,WSW,248,9.8,9.8,53,0.00,,---,0.00,VWS V14.01,2013-06-24 15:15:00,
2013-06-24 10:16:00,84.6,65.6,30.06,SE,135,5.6,12.8,53,0.00,,---,0.00,VWS V14.01,2013-06-24 15:16:00,
2013-06-24 10:17:00,84.3,65.3,30.06,SSE,158,7.2,7.2,53,0.00,,---,0.00,VWS V14.01,2013-06-24 15:17:00,
2013-06-24 10:18:00,84.3,65.8,30.06,East,90,5.8,7.2,54,0.00,,---,0.00,VWS V14.01,2013-06-24 15:18:00,
2013-06-24 10:19:00,84.3,65.8,30.06,North,0,5.8,5.8,54,0.00,,---,0.00,VWS V14.01,2013-06-24 15:19:00,
2013-06-24 10:20:00,83.9,65.5,30.06,East,90,3.1,10.1,54,0.00,,---,0.00,VWS V14.01,2013-06-24 15:20:00,
2013-06-24 10:21:00,83.9,66.0,30.06,ESE,112,6.5,6.5,55,0.00,,---,0.00,VWS V14.01,2013-06-24 15:21:00,
2013-06-24 10:22:00,84.4,66.5,30.06,SSE,158,4.0,6.5,55,0.00,,---,0.00,VWS V14.01,2013-06-24 15:22:00,
2013-06-24 10:23:00,84.6,66.7,30.06,SSW,202,6.0,9.8,55,0.00,,---,0.00,VWS V14.01,2013-06-24 15:23:00,
2013-06-24 10:24:00,84.8,66.9,30.06,SE,135,5.4,11.0,55,0.00,,---,0.00,VWS V14.01,2013-06-24 15:24:00,
2013-06-24 10:25:00,85.0,66.5,30.06,South,180,12.3,12.3,54,0.00,,---,0.00,VWS V14.01,2013-06-24 15:25:00,
2013-06-24 10:26:00,85.2,66.7,30.06,South,180,3.8,12.3,54,0.00,,---,0.00,VWS V14.01,2013-06-24 15:26:00,
2013-06-24 10:27:00,85.7,67.7,30.06,SE,135,3.4,3.4,55,0.00,,---,0.00,VWS V14.01,2013-06-24 15:27:00,
2013-06-24 10:28:00,86.1,67.5,30.06,South,180,9.8,9.8,54,0.00,,---,0.00,VWS V14.01,2013-06-24 15:28:00,
2013-06-24 10:29:00,86.4,67.8,30.06,South,180,5.8,9.8,54,0.00,,---,0.00,VWS V14.01,2013-06-24 15:29:00,
2013-06-24 10:30:00,86.8,67.0,30.06,SE,135,4.0,6.3,52,0.00,,---,0.00,VWS V14.01,2013-06-24 15:30:00,
2013-06-24 10:31:00,86.9,67.2,30.06,SE,135,8.1,10.7,52,0.00,,---,0.00,VWS V14.01,2013-06-24 15:31:00,
2013-06-24 10:32:00,86.9,66.6,30.06,SSE,158,4.9,9.4,51,0.00,,---,0.00,VWS V14.01,2013-06-24 15:32:00,
2013-06-24 10:33:00,86.9,66.1,30.06,SSW,202,4.0,12.5,50,0.00,,---,0.00,VWS V14.01,2013-06-24 15:33:00,
2013-06-24 10:34:00,86.9,66.1,30.06,South,180,9.4,9.4,50,0.00,,---,0.00,VWS V14.01,2013-06-24 15:34:00,
2013-06-24 10:35:00,86.9,66.1,30.06,SE,135,8.7,9.4,50,0.00,,---,0.00,VWS V14.01,2013-06-24 15:35:00,
2013-06-24 10:36:00,86.9,66.1,30.06,SSW,202,10.5,10.5,50,0.00,,---,0.00,VWS V14.01,2013-06-24 15:36:00,
2013-06-24 10:37:00,86.9,65.5,30.06,South,180,5.6,10.5,49,0.00,,---,0.00,VWS V14.01,2013-06-24 15:37:00,
2013-06-24 10:38:00,87.3,66.4,30.06,SW,225,9.8,9.8,50,0.00,,---,0.00,VWS V14.01,2013-06-24 15:38:00,
2013-06-24 10:39:00,87.5,66.0,30.06,ESE,112,4.3,9.8,49,0.00,,---,0.00,VWS V14.01,2013-06-24 15:39:00,
2013-06-24 10:40:00,87.6,65.5,30.06,SW,225,5.6,11.0,48,0.00,,---,0.00,VWS V14.01,2013-06-24 15:40:00,
2013-06-24 10:41:00,87.8,65.7,30.06,East,90,6.3,9.8,48,0.00,,---,0.00,VWS V14.01,2013-06-24 15:41:00,
2013-06-24 10:42:00,87.8,65.7,30.06,South,180,3.1,16.6,48,0.00,,---,0.00,VWS V14.01,2013-06-24 15:42:00,
2013-06-24 10:43:00,88.2,66.0,30.06,SSE,158,9.6,9.6,48,0.00,,---,0.00,VWS V14.01,2013-06-24 15:43:00,
2013-06-24 10:44:00,88.2,65.4,30.06,SSW,202,3.6,9.6,47,0.00,,---,0.00,VWS V14.01,2013-06-24 15:44:00,
2013-06-24 10:45:00,88.3,65.6,30.06,SE,135,5.4,11.0,47,0.00,,---,0.00,VWS V14.01,2013-06-24 15:45:00,
2013-06-24 10:46:00,88.5,65.1,30.03,South,180,13.0,13.0,46,0.00,,---,0.00,VWS V14.01,2013-06-24 15:46:00,
2013-06-24 10:47:00,88.5,65.1,30.03,South,180,3.8,13.0,46,0.00,,---,0.00,VWS V14.01,2013-06-24 15:47:00,
2013-06-24 10:48:00,88.3,65.0,30.03,SE,135,7.2,7.2,46,0.00,,---,0.00,VWS V14.01,2013-06-24 15:48:00,
2013-06-24 10:49:00,88.3,65.0,30.03,South,180,6.5,12.8,46,0.00,,---,0.00,VWS V14.01,2013-06-24 15:49:00,
2013-06-24 10:50:00,88.3,65.0,30.03,South,180,5.8,9.8,46,0.00,,---,0.00,VWS V14.01,2013-06-24 15:50:00,
2013-06-24 10:51:00,88.7,65.3,30.03,SSE,158,6.0,7.8,46,0.00,,---,0.00,VWS V14.01,2013-06-24 15:51:00,
2013-06-24 10:52:00,88.7,64.7,30.03,ESE,112,4.3,6.3,45,0.00,,---,0.00,VWS V14.01,2013-06-24 15:52:00,
2013-06-24 10:53:00,88.9,64.2,30.03,South,180,15.2,17.0,44,0.00,,---,0.00,VWS V14.01,2013-06-24 15:53:00,
2013-06-24 10:54:00,88.9,64.8,30.03,SE,135,5.4,15.2,45,0.00,,---,0.00,VWS V14.01,2013-06-24 15:54:00,
2013-06-24 10:55:00,89.2,65.8,30.03,SE,135,8.5,8.5,46,0.00,,---,0.00,VWS V14.01,2013-06-24 15:55:00,
2013-06-24 10:56:00,89.4,65.3,30.03,South,180,7.4,8.5,45,0.00,,---,0.00,VWS V14.01,2013-06-24 15:56:00,
2013-06-24 10:57:00,89.4,64.7,30.03,ESE,112,3.4,7.4,44,0.00,,---,0.00,VWS V14.01,2013-06-24 15:57:00,
2013-06-24 10:58:00,88.5,63.8,30.03,South,180,7.2,12.1,44,0.00,,---,0.00,VWS V14.01,2013-06-24 15:58:00,
2013-06-24 10:59:00,88.9,64.2,30.03,East,90,7.4,7.4,44,0.00,,---,0.00,VWS V14.01,2013-06-24 15:59:00,
2013-06-24 11:00:00,88.9,64.2,30.03,SE,135,9.6,9.6,44,0.00,,---,0.00,VWS V14.01,2013-06-24 16:00:00,
2013-06-24 11:01:00,89.6,64.8,30.03,SE,135,8.7,10.7,44,0.00,,---,0.00,VWS V14.01,2013-06-24 16:01:00,
2013-06-24 11:02:00,89.4,64.7,30.03,South,180,8.1,8.7,44,0.00,,---,0.00,VWS V14.01,2013-06-24 16:02:00,
2013-06-24 11:03:00,89.9,65.1,30.03,ESE,112,4.0,8.1,44,0.00,,---,0.00,VWS V14.01,2013-06-24 16:03:00,
2013-06-24 11:04:00,89.8,65.6,30.03,West,270,3.6,5.4,45,0.00,,---,0.00,VWS V14.01,2013-06-24 16:04:00,
2013-06-24 11:05:00,89.9,65.1,30.03,SSW,202,4.9,4.9,44,0.00,,---,0.00,VWS V14.01,2013-06-24 16:05:00,
2013-06-24 11:06:00,90.1,65.3,30.03,SE,135,11.4,11.4,44,0.00,,---,0.00,VWS V14.01,2013-06-24 16:06:00,
2013-06-24 11:07:00,90.5,64.9,30.03,NE,45,8.1,8.1,43,0.00,,---,0.00,VWS V14.01,2013-06-24 16:07:00,
2013-06-24 11:08:00,90.5,64.9,30.03,East,90,6.9,8.1,43,0.00,,---,0.00,VWS V14.01,2013-06-24 16:08:00,
2013-06-24 11:09:00,90.7,65.1,30.03,South,180,3.4,3.4,43,0.00,,---,0.00,VWS V14.01,2013-06-24 16:09:00,
2013-06-24 11:10:00,90.7,65.1,30.03,SW,225,6.0,7.8,43,0.00,,---,0.00,VWS V14.01,2013-06-24 16:10:00,
2013-06-24 11:11:00,90.3,64.8,30.03,South,180,12.3,12.3,43,0.00,,---,0.00,VWS V14.01,2013-06-24 16:11:00,
2013-06-24 11:12:00,90.3,64.8,30.03,SSW,202,7.8,12.3,43,0.00,,---,0.00,VWS V14.01,2013-06-24 16:12:00,
2013-06-24 11:13:00,90.7,65.1,30.03,East,90,5.6,7.8,43,0.00,,---,0.00,VWS V14.01,2013-06-24 16:13:00,
2013-06-24 11:14:00,90.5,64.9,30.03,West,270,3.8,8.1,43,0.00,,---,0.00,VWS V14.01,2013-06-24 16:14:00,
2013-06-24 11:15:00,89.8,65.0,30.03,South,180,14.5,14.5,44,0.00,,---,0.00,VWS V14.01,2013-06-24 16:15:00,
2013-06-24 11:16:00,89.1,63.7,30.06,SSW,202,6.5,17.0,43,0.00,,---,0.00,VWS V14.01,2013-06-24 16:16:00,
2013-06-24 11:17:00,89.8,65.0,30.06,SW,225,3.1,3.1,44,0.00,,---,0.00,VWS V14.01,2013-06-24 16:17:00,
2013-06-24 11:18:00,90.3,65.4,30.06,SW,225,5.6,5.6,44,0.00,,---,0.00,VWS V14.01,2013-06-24 16:18:00,
2013-06-24 11:19:00,90.3,65.4,30.06,South,180,4.3,6.3,44,0.00,,---,0.00,VWS V14.01,2013-06-24 16:19:00,
2013-06-24 11:20:00,89.9,65.1,30.06,SSW,202,7.8,9.6,44,0.00,,---,0.00,VWS V14.01,2013-06-24 16:20:00,
2013-06-24 11:21:00,89.4,64.7,30.06,NE,45,6.5,7.8,44,0.00,,---,0.00,VWS V14.01,2013-06-24 16:21:00,
2013-06-24 11:22:00,89.1,64.3,30.06,SSW,202,4.3,7.4,44,0.00,,---,0.00,VWS V14.01,2013-06-24 16:22:00,
2013-06-24 11:23:00,88.2,64.2,30.06,South,180,7.8,9.6,45,0.00,,---,0.00,VWS V14.01,2013-06-24 16:23:00,
2013-06-24 11:24:00,88.2,64.2,30.06,East,90,3.8,7.8,45,0.00,,---,0.00,VWS V14.01,2013-06-24 16:24:00,
2013-06-24 11:25:00,87.6,63.7,30.06,SE,135,6.0,6.0,45,0.00,,---,0.00,VWS V14.01,2013-06-24 16:25:00,
2013-06-24 11:26:00,87.6,63.7,30.06,South,180,7.2,11.0,45,0.00,,---,0.00,VWS V14.01,2013-06-24 16:26:00,
2013-06-24 11:27:00,87.1,63.8,30.06,SSW,202,3.4,10.3,46,0.00,,---,0.00,VWS V14.01,2013-06-24 16:27:00,
2013-06-24 11:28:00,86.9,63.7,30.06,SSE,158,6.0,7.2,46,0.00,,---,0.00,VWS V14.01,2013-06-24 16:28:00,
2013-06-24 11:29:00,86.8,63.5,30.06,SSW,202,9.2,9.2,46,0.00,,---,0.00,VWS V14.01,2013-06-24 16:29:00,
2013-06-24 11:30:00,86.4,63.2,30.06,WSW,248,4.3,10.5,46,0.00,,---,0.00,VWS V14.01,2013-06-24 16:30:00,
2013-06-24 11:31:00,86.1,63.5,30.03,ENE,68,5.8,12.8,47,0.00,,---,0.00,VWS V14.01,2013-06-24 16:31:00,
2013-06-24 11:32:00,85.9,63.3,30.03,SE,135,3.6,10.1,47,0.00,,---,0.00,VWS V14.01,2013-06-24 16:32:00,
2013-06-24 11:33:00,86.4,64.4,30.03,South,180,5.8,10.7,48,0.00,,---,0.00,VWS V14.01,2013-06-24 16:33:00,
2013-06-24 11:34:00,86.4,64.4,30.03,SSW,202,4.7,10.7,48,0.00,,---,0.00,VWS V14.01,2013-06-24 16:34:00,
2013-06-24 11:35:00,86.4,64.4,30.03,SSW,202,7.8,8.1,48,0.00,,---,0.00,VWS V14.01,2013-06-24 16:35:00,
2013-06-24 11:36:00,86.9,64.9,30.03,SW,225,7.6,7.8,48,0.00,,---,0.00,VWS V14.01,2013-06-24 16:36:00,
2013-06-24 11:37:00,87.1,64.4,30.03,SE,135,5.4,9.6,47,0.00,,---,0.00,VWS V14.01,2013-06-24 16:37:00,
2013-06-24 11:38:00,87.5,65.4,30.03,South,180,5.8,8.1,48,0.00,,---,0.00,VWS V14.01,2013-06-24 16:38:00,
2013-06-24 11:39:00,87.6,64.9,30.03,SSW,202,10.5,10.5,47,0.00,,---,0.00,VWS V14.01,2013-06-24 16:39:00,
2013-06-24 11:40:00,87.3,64.6,30.03,South,180,9.8,10.5,47,0.00,,---,0.00,VWS V14.01,2013-06-24 16:40:00,
2013-06-24 11:41:00,87.6,64.9,30.03,SSW,202,4.3,9.8,47,0.00,,---,0.00,VWS V14.01,2013-06-24 16:41:00,
2013-06-24 11:42:00,87.8,65.1,30.03,South,180,3.8,8.7,47,0.00,,---,0.00,VWS V14.01,2013-06-24 16:42:00,
2013-06-24 11:43:00,87.8,65.1,30.03,SE,135,3.6,3.8,47,0.00,,---,0.00,VWS V14.01,2013-06-24 16:43:00,
2013-06-24 11:44:00,87.8,65.1,30.03,ENE,68,6.0,6.0,47,0.00,,---,0.00,VWS V14.01,2013-06-24 16:44:00,
2013-06-24 11:45:00,88.3,65.0,30.03,South,180,3.4,6.5,46,0.00,,---,0.00,VWS V14.01,2013-06-24 16:45:00,
2013-06-24 11:46:00,88.5,64.5,30.03,South,180,4.0,7.4,45,0.00,,---,0.00,VWS V14.01,2013-06-24 16:46:00,
2013-06-24 11:47:00,88.9,64.8,30.03,SE,135,5.4,7.4,45,0.00,,---,0.00,VWS V14.01,2013-06-24 16:47:00,
2013-06-24 11:48:00,88.5,64.5,30.03,SE,135,6.3,10.1,45,0.00,,---,0.00,VWS V14.01,2013-06-24 16:48:00,
2013-06-24 11:49:00,88.7,64.7,30.03,South,180,6.0,6.3,45,0.00,,---,0.00,VWS V14.01,2013-06-24 16:49:00,
2013-06-24 11:50:00,88.3,64.3,30.03,SSW,202,3.6,8.5,45,0.00,,---,0.00,VWS V14.01,2013-06-24 16:50:00,
2013-06-24 11:51:00,88.3,64.3,30.03,NNW,338,2.7,7.8,45,0.00,,---,0.00,VWS V14.01,2013-06-24 16:51:00,
2013-06-24 11:52:00,89.1,65.0,30.03,South,180,6.7,6.7,45,0.00,,---,0.00,VWS V14.01,2013-06-24 16:52:00,
2013-06-24 11:53:00,89.1,65.0,30.03,SSE,158,6.0,6.7,45,0.00,,---,0.00,VWS V14.01,2013-06-24 16:53:00,
2013-06-24 11:54:00,88.5,63.8,30.03,South,180,4.7,6.0,44,0.00,,---,0.00,VWS V14.01,2013-06-24 16:54:00,
2013-06-24 11:55:00,88.2,64.2,30.03,South,180,8.1,13.0,45,0.00,,---,0.00,VWS V14.01,2013-06-24 16:55:00,
2013-06-24 11:56:00,88.9,64.2,30.03,South,180,13.2,13.2,44,0.00,,---,0.00,VWS V14.01,2013-06-24 16:56:00,
2013-06-24 11:57:00,89.1,64.3,30.03,East,90,10.7,13.2,44,0.00,,---,0.00,VWS V14.01,2013-06-24 16:57:00,
2013-06-24 11:58:00,89.4,64.7,30.03,SSW,202,4.3,10.7,44,0.00,,---,0.00,VWS V14.01,2013-06-24 16:58:00,
2013-06-24 11:59:00,89.6,64.8,30.03,SE,135,6.3,8.1,44,0.00,,---,0.00,VWS V14.01,2013-06-24 16:59:00,
2013-06-24 12:00:00,89.9,64.5,30.03,South,180,10.5,13.2,43,0.00,,---,0.00,VWS V14.01,2013-06-24 17:00:00,
2013-06-24 12:01:00,89.4,64.0,30.03,SW,225,15.9,15.9,43,0.00,,---,0.00,VWS V14.01,2013-06-24 17:01:00,
2013-06-24 12:02:00,89.4,64.0,30.03,South,180,13.2,15.7,43,0.00,,---,0.00,VWS V14.01,2013-06-24 17:02:00,
2013-06-24 12:03:00,89.4,64.0,30.03,South,180,11.0,15.7,43,0.00,,---,0.00,VWS V14.01,2013-06-24 17:03:00,
2013-06-24 12:04:00,89.1,63.7,30.03,SE,135,8.5,11.0,43,0.00,,---,0.00,VWS V14.01,2013-06-24 17:04:00,
2013-06-24 12:05:00,89.1,64.3,30.03,East,90,2.0,8.5,44,0.00,,---,0.00,VWS V14.01,2013-06-24 17:05:00,
2013-06-24 12:06:00,89.9,65.1,30.03,North,0,3.1,3.1,44,0.00,,---,0.00,VWS V14.01,2013-06-24 17:06:00,
2013-06-24 12:07:00,90.5,65.6,30.03,South,180,2.0,5.6,44,0.00,,---,0.00,VWS V14.01,2013-06-24 17:07:00,
2013-06-24 12:08:00,91.0,65.4,30.03,South,180,6.3,6.3,43,0.00,,---,0.00,VWS V14.01,2013-06-24 17:08:00,
2013-06-24 12:09:00,91.4,65.1,30.03,East,90,10.1,10.1,42,0.00,,---,0.00,VWS V14.01,2013-06-24 17:09:00,
2013-06-24 12:10:00,91.7,65.4,30.03,SE,135,4.7,4.7,42,0.00,,---,0.00,VWS V14.01,2013-06-24 17:10:00,
2013-06-24 12:11:00,92.1,65.7,30.03,South,180,4.9,4.9,42,0.00,,---,0.00,VWS V14.01,2013-06-24 17:11:00,
2013-06-24 12:12:00,91.9,65.6,30.03,South,180,1.6,12.3,42,0.00,,---,0.00,VWS V14.01,2013-06-24 17:12:00,
2013-06-24 12:13:00,92.1,65.7,30.03,SSW,202,4.3,7.6,42,0.00,,---,0.00,VWS V14.01,2013-06-24 17:13:00,
2013-06-24 12:14:00,92.1,65.0,30.03,WSW,248,1.6,10.5,41,0.00,,---,0.00,VWS V14.01,2013-06-24 17:14:00,
2013-06-24 12:15:00,92.4,66.0,30.03,SE,135,6.5,6.5,42,0.00,,---,0.00,VWS V14.01,2013-06-24 17:15:00,
2013-06-24 12:16:00,92.8,66.3,30.00,SE,135,0.9,0.9,42,0.00,,---,0.00,VWS V14.01,2013-06-24 17:16:00,
2013-06-24 12:17:00,92.8,65.7,30.00,ESE,112,6.5,7.6,41,0.00,,---,0.00,VWS V14.01,2013-06-24 17:17:00,
2013-06-24 12:18:00,92.8,65.7,30.00,South,180,3.8,6.5,41,0.00,,---,0.00,VWS V14.01,2013-06-24 17:18:00,
2013-06-24 12:19:00,92.4,65.3,30.00,South,180,6.3,6.5,41,0.00,,---,0.00,VWS V14.01,2013-06-24 17:19:00,
2013-06-24 12:20:00,92.2,65.2,30.00,South,180,2.9,6.5,41,0.00,,---,0.00,VWS V14.01,2013-06-24 17:20:00,
2013-06-24 12:21:00,92.4,65.3,30.00,South,180,2.5,8.5,41,0.00,,---,0.00,VWS V14.01,2013-06-24 17:21:00,
2013-06-24 12:22:00,92.6,65.5,30.00,SE,135,6.7,10.3,41,0.00,,---,0.00,VWS V14.01,2013-06-24 17:22:00,
2013-06-24 12:23:00,92.8,65.7,30.00,SSW,202,13.0,13.2,41,0.00,,---,0.00,VWS V14.01,2013-06-24 17:23:00,
2013-06-24 12:24:00,92.8,64.9,30.00,SE,135,12.8,14.1,40,0.00,,---,0.00,VWS V14.01,2013-06-24 17:24:00,
2013-06-24 12:25:00,93.1,65.2,30.00,South,180,4.0,12.8,40,0.00,,---,0.00,VWS V14.01,2013-06-24 17:25:00,
2013-06-24 12:26:00,93.1,65.2,30.00,SSW,202,8.1,8.1,40,0.00,,---,0.00,VWS V14.01,2013-06-24 17:26:00,
2013-06-24 12:27:00,93.1,65.2,30.00,ESE,112,4.3,14.1,40,0.00,,---,0.00,VWS V14.01,2013-06-24 17:27:00,
2013-06-24 12:28:00,93.0,64.4,30.00,South,180,12.8,12.8,39,0.00,,---,0.00,VWS V14.01,2013-06-24 17:28:00,
2013-06-24 12:29:00,92.8,64.2,30.00,South,180,7.6,13.4,39,0.00,,---,0.00,VWS V14.01,2013-06-24 17:29:00,
2013-06-24 12:30:00,92.8,64.2,30.00,SSW,202,8.5,8.5,39,0.00,,---,0.00,VWS V14.01,2013-06-24 17:30:00,
2013-06-24 12:31:00,92.8,64.2,30.00,East,90,9.0,9.0,39,0.00,,---,0.00,VWS V14.01,2013-06-24 17:31:00,
2013-06-24 12:32:00,91.9,63.4,30.00,SE,135,5.6,11.9,39,0.00,,---,0.00,VWS V14.01,2013-06-24 17:32:00,
2013-06-24 12:33:00,92.2,63.7,30.00,ESE,112,6.5,6.5,39,0.00,,---,0.00,VWS V14.01,2013-06-24 17:33:00,
2013-06-24 12:34:00,92.4,63.9,30.00,SW,225,3.8,7.4,39,0.00,,---,0.00,VWS V14.01,2013-06-24 17:34:00,
2013-06-24 12:35:00,93.0,64.4,30.00,SSW,202,5.8,5.8,39,0.00,,---,0.00,VWS V14.01,2013-06-24 17:35:00,
2013-06-24 12:36:00,92.8,64.2,30.00,SE,135,7.6,7.6,39,0.00,,---,0.00,VWS V14.01,2013-06-24 17:36:00,
2013-06-24 12:37:00,93.0,64.4,30.00,SSW,202,7.4,9.8,39,0.00,,---,0.00,VWS V14.01,2013-06-24 17:37:00,
2013-06-24 12:38:00,93.0,64.4,30.00,NW,315,7.4,8.7,39,0.00,,---,0.00,VWS V14.01,2013-06-24 17:38:00,
2013-06-24 12:39:00,92.8,64.2,30.00,ESE,112,3.6,7.4,39,0.00,,---,0.00,VWS V14.01,2013-06-24 17:39:00,
2013-06-24 12:40:00,91.9,63.4,30.00,SE,135,4.7,4.7,39,0.00,,---,0.00,VWS V14.01,2013-06-24 17:40:00,
2013-06-24 12:41:00,91.9,63.4,30.00,WSW,248,6.5,6.5,39,0.00,,---,0.00,VWS V14.01,2013-06-24 17:41:00,
2013-06-24 12:42:00,92.2,63.7,30.00,East,90,7.6,7.6,39,0.00,,---,0.00,VWS V14.01,2013-06-24 17:42:00,
2013-06-24 12:43:00,92.1,63.6,30.00,SSW,202,4.7,7.6,39,0.00,,---,0.00,VWS V14.01,2013-06-24 17:43:00,
2013-06-24 12:44:00,92.8,64.2,30.00,South,180,3.8,7.2,39,0.00,,---,0.00,VWS V14.01,2013-06-24 17:44:00,
2013-06-24 12:45:00,92.8,64.2,30.00,SE,135,8.1,8.1,39,0.00,,---,0.00,VWS V14.01,2013-06-24 17:45:00,
2013-06-24 12:46:00,93.0,64.4,30.00,East,90,2.9,8.1,39,0.00,,---,0.00,VWS V14.01,2013-06-24 17:46:00,
2013-06-24 12:47:00,93.5,64.8,30.00,SE,135,4.5,8.7,39,0.00,,---,0.00,VWS V14.01,2013-06-24 17:47:00,
2013-06-24 12:48:00,93.0,64.4,30.00,South,180,11.0,11.0,39,0.00,,---,0.00,VWS V14.01,2013-06-24 17:48:00,
2013-06-24 12:49:00,93.7,65.0,30.00,SE,135,3.1,11.0,39,0.00,,---,0.00,VWS V14.01,2013-06-24 17:49:00,
2013-06-24 12:50:00,94.0,64.6,30.00,South,180,4.7,4.7,38,0.00,,---,0.00,VWS V14.01,2013-06-24 17:50:00,
2013-06-24 12:51:00,92.8,64.2,30.00,SSW,202,6.0,13.0,39,0.00,,---,0.00,VWS V14.01,2013-06-24 17:51:00,
2013-06-24 12:52:00,92.4,63.9,30.00,South,180,4.7,17.0,39,0.00,,---,0.00,VWS V14.01,2013-06-24 17:52:00,
2013-06-24 12:53:00,92.6,64.1,30.00,South,180,10.5,16.6,39,0.00,,---,0.00,VWS V14.01,2013-06-24 17:53:00,
2013-06-24 12:54:00,92.8,63.5,30.00,ESE,112,2.0,12.5,38,0.00,,---,0.00,VWS V14.01,2013-06-24 17:54:00,
2013-06-24 12:55:00,93.0,63.6,30.00,South,180,7.8,7.8,38,0.00,,---,0.00,VWS V14.01,2013-06-24 17:55:00,
2013-06-24 12:56:00,92.8,63.5,30.00,East,90,7.8,12.1,38,0.00,,---,0.00,VWS V14.01,2013-06-24 17:56:00,
2013-06-24 12:57:00,93.1,63.8,30.00,South,180,3.8,7.8,38,0.00,,---,0.00,VWS V14.01,2013-06-24 17:57:00,
2013-06-24 12:58:00,93.0,63.6,30.00,South,180,6.3,13.0,38,0.00,,---,0.00,VWS V14.01,2013-06-24 17:58:00,
2013-06-24 12:59:00,93.3,63.9,30.00,SE,135,6.5,6.5,38,0.00,,---,0.00,VWS V14.01,2013-06-24 17:59:00,
2013-06-24 13:00:00,93.5,64.8,30.00,ESE,112,4.0,7.2,39,0.00,,---,0.00,VWS V14.01,2013-06-24 18:00:00,
2013-06-24 13:01:00,93.8,64.4,30.00,ESE,112,7.8,7.8,38,0.00,,---,0.00,VWS V14.01,2013-06-24 18:01:00,
2013-06-24 13:02:00,94.2,64.7,30.00,SSW,202,4.3,7.8,38,0.00,,---,0.00,VWS V14.01,2013-06-24 18:02:00,
2013-06-24 13:03:00,94.4,64.9,30.00,SW,225,2.9,6.0,38,0.00,,---,0.00,VWS V14.01,2013-06-24 18:03:00,
2013-06-24 13:04:00,94.0,63.8,30.00,SSW,202,13.2,13.2,37,0.00,,---,0.00,VWS V14.01,2013-06-24 18:04:00,
2013-06-24 13:05:00,93.3,63.2,30.00,SSW,202,8.7,19.9,37,0.00,,---,0.00,VWS V14.01,2013-06-24 18:05:00,
2013-06-24 13:06:00,93.1,63.0,30.00,South,180,10.7,13.0,37,0.00,,---,0.00,VWS V14.01,2013-06-24 18:06:00,
2013-06-24 13:07:00,93.3,63.9,30.00,South,180,5.8,10.7,38,0.00,,---,0.00,VWS V14.01,2013-06-24 18:07:00,
2013-06-24 13:08:00,93.7,64.3,30.00,ESE,112,3.4,6.9,38,0.00,,---,0.00,VWS V14.01,2013-06-24 18:08:00,
2013-06-24 13:09:00,94.6,64.3,30.00,South,180,6.9,10.7,37,0.00,,---,0.00,VWS V14.01,2013-06-24 18:09:00,
2013-06-24 13:10:00,94.0,63.8,30.00,SSE,158,10.3,10.3,37,0.00,,---,0.00,VWS V14.01,2013-06-24 18:10:00,
2013-06-24 13:11:00,94.4,64.9,30.00,SSW,202,8.7,10.3,38,0.00,,---,0.00,VWS V14.01,2013-06-24 18:11:00,
2013-06-24 13:12:00,93.8,64.4,30.00,SSW,202,3.4,8.7,38,0.00,,---,0.00,VWS V14.01,2013-06-24 18:12:00,
2013-06-24 13:13:00,94.6,64.3,30.00,ESE,112,3.6,9.4,37,0.00,,---,0.00,VWS V14.01,2013-06-24 18:13:00,
2013-06-24 13:14:00,94.6,64.3,30.00,South,180,10.5,11.4,37,0.00,,---,0.00,VWS V14.01,2013-06-24 18:14:00,
2013-06-24 13:15:00,94.4,64.1,30.00,South,180,3.4,12.3,37,0.00,,---,0.00,VWS V14.01,2013-06-24 18:15:00,
2013-06-24 13:16:00,94.0,63.8,30.00,SE,135,9.6,9.6,37,0.00,,---,0.00,VWS V14.01,2013-06-24 18:16:00,
2013-06-24 13:17:00,94.0,63.8,30.00,SE,135,4.9,9.6,37,0.00,,---,0.00,VWS V14.01,2013-06-24 18:17:00,
2013-06-24 13:18:00,94.4,64.1,30.00,South,180,6.5,6.5,37,0.00,,---,0.00,VWS V14.01,2013-06-24 18:18:00,
2013-06-24 13:19:00,94.4,64.1,30.00,SSE,158,8.1,10.3,37,0.00,,---,0.00,VWS V14.01,2013-06-24 18:19:00,
2013-06-24 13:20:00,94.6,64.3,30.00,South,180,9.8,10.3,37,0.00,,---,0.00,VWS V14.01,2013-06-24 18:20:00,
2013-06-24 13:21:00,94.7,64.4,30.00,South,180,6.3,9.8,37,0.00,,---,0.00,VWS V14.01,2013-06-24 18:21:00,
2013-06-24 13:22:00,94.7,64.4,30.00,SSE,158,7.4,7.4,37,0.00,,---,0.00,VWS V14.01,2013-06-24 18:22:00,
2013-06-24 13:23:00,94.9,64.6,30.00,SE,135,4.0,7.4,37,0.00,,---,0.00,VWS V14.01,2013-06-24 18:23:00,
2013-06-24 13:24:00,95.1,64.8,30.00,SSE,158,6.3,6.5,37,0.00,,---,0.00,VWS V14.01,2013-06-24 18:24:00,
2013-06-24 13:25:00,94.9,64.6,30.00,South,180,12.5,12.5,37,0.00,,---,0.00,VWS V14.01,2013-06-24 18:25:00,
2013-06-24 13:26:00,94.0,63.8,30.00,South,180,7.2,14.8,37,0.00,,---,0.00,VWS V14.01,2013-06-24 18:26:00,
2013-06-24 13:27:00,94.0,63.8,30.00,SE,135,7.2,14.5,37,0.00,,---,0.00,VWS V14.01,2013-06-24 18:27:00,
2013-06-24 13:28:00,94.0,63.8,30.00,SE,135,6.5,7.2,37,0.00,,---,0.00,VWS V14.01,2013-06-24 18:28:00,
2013-06-24 13:29:00,94.0,63.8,30.00,East,90,4.0,7.4,37,0.00,,---,0.00,VWS V14.01,2013-06-24 18:29:00,
2013-06-24 13:30:00,93.8,63.7,30.00,ESE,112,8.1,8.1,37,0.00,,---,0.00,VWS V14.01,2013-06-24 18:30:00,
2013-06-24 13:31:00,94.4,64.1,30.03,NE,45,6.3,8.1,37,0.00,,---,0.00,VWS V14.01,2013-06-24 18:31:00,
2013-06-24 13:32:00,94.7,64.4,30.03,East,90,4.0,6.3,37,0.00,,---,0.00,VWS V14.01,2013-06-24 18:32:00,
2013-06-24 13:33:00,95.1,64.8,30.03,West,270,5.6,5.6,37,0.00,,---,0.00,VWS V14.01,2013-06-24 18:33:00,
2013-06-24 13:34:00,95.1,64.8,30.03,SSW,202,12.5,12.5,37,0.00,,---,0.00,VWS V14.01,2013-06-24 18:34:00,
2013-06-24 13:35:00,94.9,63.8,30.03,SE,135,6.5,12.5,36,0.00,,---,0.00,VWS V14.01,2013-06-24 18:35:00,
2013-06-24 13:36:00,95.3,64.9,30.03,South,180,2.9,6.5,37,0.00,,---,0.00,VWS V14.01,2013-06-24 18:36:00,
2013-06-24 13:37:00,95.8,65.4,30.03,SE,135,5.8,5.8,37,0.00,,---,0.00,VWS V14.01,2013-06-24 18:37:00,
2013-06-24 13:38:00,95.6,65.2,30.03,SSE,158,7.4,7.4,37,0.00,,---,0.00,VWS V14.01,2013-06-24 18:38:00,
2013-06-24 13:39:00,94.9,64.6,30.03,SE,135,2.7,7.8,37,0.00,,---,0.00,VWS V14.01,2013-06-24 18:39:00,
2013-06-24 13:40:00,94.7,64.4,30.03,South,180,3.6,6.5,37,0.00,,---,0.00,VWS V14.01,2013-06-24 18:40:00,
2013-06-24 13:41:00,94.7,64.4,30.03,SSE,158,3.1,6.5,37,0.00,,---,0.00,VWS V14.01,2013-06-24 18:41:00,
2013-06-24 13:42:00,95.1,64.8,30.03,East,90,2.7,3.1,37,0.00,,---,0.00,VWS V14.01,2013-06-24 18:42:00,
2013-06-24 13:43:00,95.4,65.1,30.03,SE,135,3.6,6.0,37,0.00,,---,0.00,VWS V14.01,2013-06-24 18:43:00,
2013-06-24 13:44:00,95.6,64.4,30.03,South,180,2.7,3.8,36,0.00,,---,0.00,VWS V14.01,2013-06-24 18:44:00,
2013-06-24 13:45:00,94.9,63.8,30.03,South,180,5.8,11.9,36,0.00,,---,0.00,VWS V14.01,2013-06-24 18:45:00,
2013-06-24 13:46:00,94.6,64.3,30.00,ESE,112,3.8,7.4,37,0.00,,---,0.00,VWS V14.01,2013-06-24 18:46:00,
2013-06-24 13:47:00,93.5,63.3,30.00,SE,135,4.7,13.0,37,0.00,,---,0.00,VWS V14.01,2013-06-24 18:47:00,
2013-06-24 13:48:00,93.8,62.9,30.00,SSW,202,5.8,5.8,36,0.00,,---,0.00,VWS V14.01,2013-06-24 18:48:00,
2013-06-24 13:49:00,94.0,63.0,30.00,SSW,202,3.1,8.7,36,0.00,,---,0.00,VWS V14.01,2013-06-24 18:49:00,
2013-06-24 13:50:00,93.1,63.0,30.00,SE,135,10.5,10.5,37,0.00,,---,0.00,VWS V14.01,2013-06-24 18:50:00,
2013-06-24 13:51:00,92.8,61.9,30.00,SSW,202,8.5,10.5,36,0.00,,---,0.00,VWS V14.01,2013-06-24 18:51:00,
2013-06-24 13:52:00,92.2,62.2,30.00,South,180,6.3,8.5,37,0.00,,---,0.00,VWS V14.01,2013-06-24 18:52:00,
2013-06-24 13:53:00,92.1,62.1,30.00,East,90,2.7,6.3,37,0.00,,---,0.00,VWS V14.01,2013-06-24 18:53:00,
2013-06-24 13:54:00,91.7,61.8,30.00,ESE,112,7.6,7.6,37,0.00,,---,0.00,VWS V14.01,2013-06-24 18:54:00,
2013-06-24 13:55:00,91.4,61.5,30.00,South,180,14.3,14.3,37,0.00,,---,0.00,VWS V14.01,2013-06-24 18:55:00,
2013-06-24 13:56:00,92.6,62.6,30.00,SE,135,3.4,14.1,37,0.00,,---,0.00,VWS V14.01,2013-06-24 18:56:00,
2013-06-24 13:57:00,92.6,62.6,30.00,SE,135,3.4,14.1,37,0.00,,---,0.00,VWS V14.01,2013-06-24 18:57:00,
2013-06-24 13:58:00,92.6,62.6,30.00,SW,225,5.4,6.5,37,0.00,,---,0.00,VWS V14.01,2013-06-24 18:58:00,
2013-06-24 13:59:00,93.5,63.3,30.00,SE,135,5.6,5.8,37,0.00,,---,0.00,VWS V14.01,2013-06-24 18:59:00,
2013-06-24 14:00:00,93.5,63.3,30.00,SE,135,4.9,6.3,37,0.00,,---,0.00,VWS V14.01,2013-06-24 19:00:00,
2013-06-24 14:01:00,94.0,63.8,29.97,East,90,3.4,10.7,37,0.00,,---,0.00,VWS V14.01,2013-06-24 19:01:00,
2013-06-24 14:02:00,93.0,62.9,29.97,SE,135,2.9,7.2,37,0.00,,---,0.00,VWS V14.01,2013-06-24 19:02:00,
2013-06-24 14:03:00,92.8,62.7,29.97,SSE,158,3.4,6.0,37,0.00,,---,0.00,VWS V14.01,2013-06-24 19:03:00,
2013-06-24 14:04:00,92.4,62.4,29.97,East,90,4.0,11.0,37,0.00,,---,0.00,VWS V14.01,2013-06-24 19:04:00,
2013-06-24 14:05:00,92.1,62.1,29.97,SE,135,6.5,6.5,37,0.00,,---,0.00,VWS V14.01,2013-06-24 19:05:00,
2013-06-24 14:06:00,93.1,63.0,29.97,WSW,248,4.0,6.5,37,0.00,,---,0.00,VWS V14.01,2013-06-24 19:06:00,
2013-06-24 14:07:00,93.5,63.3,29.97,South,180,8.5,8.5,37,0.00,,---,0.00,VWS V14.01,2013-06-24 19:07:00,
2013-06-24 14:08:00,94.2,64.0,29.97,SSW,202,2.9,8.5,37,0.00,,---,0.00,VWS V14.01,2013-06-24 19:08:00,
2013-06-24 14:09:00,94.9,64.6,29.97,ENE,68,3.8,5.6,37,0.00,,---,0.00,VWS V14.01,2013-06-24 19:09:00,
2013-06-24 14:10:00,95.8,65.4,29.97,South,180,3.4,4.0,37,0.00,,---,0.00,VWS V14.01,2013-06-24 19:10:00,
2013-06-24 14:11:00,96.0,64.7,29.97,South,180,6.5,7.8,36,0.00,,---,0.00,VWS V14.01,2013-06-24 19:11:00,
2013-06-24 14:12:00,95.8,64.6,29.97,East,90,6.0,10.5,36,0.00,,---,0.00,VWS V14.01,2013-06-24 19:12:00,
2013-06-24 14:13:00,96.0,64.7,29.97,South,180,7.2,7.2,36,0.00,,---,0.00,VWS V14.01,2013-06-24 19:13:00,
2013-06-24 14:14:00,96.2,64.9,29.97,South,180,3.8,7.2,36,0.00,,---,0.00,VWS V14.01,2013-06-24 19:14:00,
2013-06-24 14:15:00,96.3,65.1,29.97,SSW,202,3.4,8.7,36,0.00,,---,0.00,VWS V14.01,2013-06-24 19:15:00,
2013-06-24 14:16:00,96.3,65.1,29.97,South,180,3.8,7.6,36,0.00,,---,0.00,VWS V14.01,2013-06-24 19:16:00,
2013-06-24 14:17:00,96.3,65.1,29.97,SE,135,10.1,12.3,36,0.00,,---,0.00,VWS V14.01,2013-06-24 19:17:00,
2013-06-24 14:18:00,96.0,63.9,29.97,South,180,10.5,14.3,35,0.00,,---,0.00,VWS V14.01,2013-06-24 19:18:00,
2013-06-24 14:19:00,95.6,64.4,29.97,ESE,112,4.5,10.5,36,0.00,,---,0.00,VWS V14.01,2013-06-24 19:19:00,
2013-06-24 14:20:00,95.3,64.1,29.97,SE,135,6.5,6.5,36,0.00,,---,0.00,VWS V14.01,2013-06-24 19:20:00,
2013-06-24 14:21:00,95.6,64.4,29.97,SSW,202,8.1,8.1,36,0.00,,---,0.00,VWS V14.01,2013-06-24 19:21:00,
2013-06-24 14:22:00,95.4,64.3,29.97,South,180,6.3,6.3,36,0.00,,---,0.00,VWS V14.01,2013-06-24 19:22:00,
2013-06-24 14:23:00,95.4,64.3,29.97,West,270,6.3,8.5,36,0.00,,---,0.00,VWS V14.01,2013-06-24 19:23:00,
2013-06-24 14:24:00,95.6,64.4,29.97,ESE,112,10.7,10.7,36,0.00,,---,0.00,VWS V14.01,2013-06-24 19:24:00,
2013-06-24 14:25:00,94.2,63.2,29.97,East,90,3.6,10.7,36,0.00,,---,0.00,VWS V14.01,2013-06-24 19:25:00,
2013-06-24 14:26:00,93.8,62.1,29.97,SE,135,3.1,10.7,35,0.00,,---,0.00,VWS V14.01,2013-06-24 19:26:00,
2013-06-24 14:27:00,93.7,62.7,29.97,East,90,2.9,5.4,36,0.00,,---,0.00,VWS V14.01,2013-06-24 19:27:00,
2013-06-24 14:28:00,94.6,63.5,29.97,South,180,3.1,4.7,36,0.00,,---,0.00,VWS V14.01,2013-06-24 19:28:00,
2013-06-24 14:29:00,94.9,63.0,29.97,SSE,158,3.8,7.6,35,0.00,,---,0.00,VWS V14.01,2013-06-24 19:29:00,
2013-06-24 14:30:00,95.3,63.3,29.97,South,180,4.9,5.4,35,0.00,,---,0.00,VWS V14.01,2013-06-24 19:30:00,
2013-06-24 14:31:00,95.3,63.3,29.97,SSE,158,3.6,7.8,35,0.00,,---,0.00,VWS V14.01,2013-06-24 19:31:00,
2013-06-24 14:32:00,95.4,63.5,29.97,East,90,6.0,6.0,35,0.00,,---,0.00,VWS V14.01,2013-06-24 19:32:00,
2013-06-24 14:33:00,95.4,63.5,29.97,SSW,202,8.7,9.6,35,0.00,,---,0.00,VWS V14.01,2013-06-24 19:33:00,
2013-06-24 14:34:00,95.4,63.5,29.97,SSW,202,6.5,8.7,35,0.00,,---,0.00,VWS V14.01,2013-06-24 19:34:00,
2013-06-24 14:35:00,94.9,63.0,29.97,SSE,158,4.3,8.7,35,0.00,,---,0.00,VWS V14.01,2013-06-24 19:35:00,
2013-06-24 14:36:00,95.3,63.3,29.97,ESE,112,4.3,7.2,35,0.00,,---,0.00,VWS V14.01,2013-06-24 19:36:00,
2013-06-24 14:37:00,96.0,63.9,29.97,SE,135,5.8,5.8,35,0.00,,---,0.00,VWS V14.01,2013-06-24 19:37:00,
2013-06-24 14:38:00,96.3,64.2,29.97,SSW,202,5.4,5.8,35,0.00,,---,0.00,VWS V14.01,2013-06-24 19:38:00,
2013-06-24 14:39:00,96.9,64.7,29.97,ESE,112,5.6,5.6,35,0.00,,---,0.00,VWS V14.01,2013-06-24 19:39:00,
2013-06-24 14:40:00,96.9,64.7,29.97,East,90,4.0,5.6,35,0.00,,---,0.00,VWS V14.01,2013-06-24 19:40:00,
2013-06-24 14:41:00,97.0,64.0,29.97,South,180,8.1,8.1,34,0.00,,---,0.00,VWS V14.01,2013-06-24 19:41:00,
2013-06-24 14:42:00,96.9,63.0,29.97,SE,135,8.7,8.7,33,0.00,,---,0.00,VWS V14.01,2013-06-24 19:42:00,
2013-06-24 14:43:00,96.9,63.0,29.97,SSW,202,12.8,12.8,33,0.00,,---,0.00,VWS V14.01,2013-06-24 19:43:00,
2013-06-24 14:44:00,96.7,63.7,29.97,South,180,5.4,12.8,34,0.00,,---,0.00,VWS V14.01,2013-06-24 19:44:00,
2013-06-24 14:45:00,96.5,63.6,29.97,South,180,9.6,9.6,34,0.00,,---,0.00,VWS V14.01,2013-06-24 19:45:00,
2013-06-24 14:46:00,96.5,62.7,29.97,South,180,6.3,9.6,33,0.00,,---,0.00,VWS V14.01,2013-06-24 19:46:00,
2013-06-24 14:47:00,96.5,62.7,29.97,South,180,7.6,13.2,33,0.00,,---,0.00,VWS V14.01,2013-06-24 19:47:00,
2013-06-24 14:48:00,96.3,62.6,29.97,SE,135,3.4,6.5,33,0.00,,---,0.00,VWS V14.01,2013-06-24 19:48:00,
2013-06-24 14:49:00,96.7,62.9,29.97,SE,135,7.2,7.2,33,0.00,,---,0.00,VWS V14.01,2013-06-24 19:49:00,
2013-06-24 14:50:00,96.9,63.0,29.97,South,180,22.8,22.8,33,0.00,,---,0.00,VWS V14.01,2013-06-24 19:50:00,
2013-06-24 14:51:00,96.5,61.8,29.97,South,180,10.7,22.8,32,0.00,,---,0.00,VWS V14.01,2013-06-24 19:51:00,
2013-06-24 14:52:00,95.6,61.1,29.97,SSW,202,14.8,14.8,32,0.00,,---,0.00,VWS V14.01,2013-06-24 19:52:00,
2013-06-24 14:53:00,95.1,60.6,29.97,South,180,14.5,15.4,32,0.00,,---,0.00,VWS V14.01,2013-06-24 19:53:00,
2013-06-24 14:54:00,95.1,60.6,29.97,ESE,112,8.1,19.0,32,0.00,,---,0.00,VWS V14.01,2013-06-24 19:54:00,
2013-06-24 14:55:00,96.0,62.3,29.97,ESE,112,4.7,8.1,33,0.00,,---,0.00,VWS V14.01,2013-06-24 19:55:00,
2013-06-24 14:56:00,96.3,62.6,29.97,SE,135,6.0,6.5,33,0.00,,---,0.00,VWS V14.01,2013-06-24 19:56:00,
2013-06-24 14:57:00,96.5,62.7,29.97,SSW,202,6.5,6.5,33,0.00,,---,0.00,VWS V14.01,2013-06-24 19:57:00,
2013-06-24 14:58:00,97.0,63.2,29.97,South,180,7.8,7.8,33,0.00,,---,0.00,VWS V14.01,2013-06-24 19:58:00,
2013-06-24 14:59:00,97.2,63.3,29.97,WSW,248,3.6,7.8,33,0.00,,---,0.00,VWS V14.01,2013-06-24 19:59:00,
2013-06-24 15:00:00,97.2,63.3,29.97,SSE,158,2.9,10.3,33,0.00,,---,0.00,VWS V14.01,2013-06-24 20:00:00,
2013-06-24 15:01:00,97.8,63.8,29.97,SSE,158,9.8,9.8,33,0.00,,---,0.00,VWS V14.01,2013-06-24 20:01:00,
2013-06-24 15:02:00,97.6,62.8,29.97,South,180,4.3,9.8,32,0.00,,---,0.00,VWS V14.01,2013-06-24 20:02:00,
2013-06-24 15:03:00,97.6,62.8,29.97,ESE,112,3.8,11.0,32,0.00,,---,0.00,VWS V14.01,2013-06-24 20:03:00,
2013-06-24 15:04:00,97.6,62.8,29.97,SE,135,2.9,9.8,32,0.00,,---,0.00,VWS V14.01,2013-06-24 20:04:00,
2013-06-24 15:05:00,97.8,62.9,29.97,South,180,1.3,4.3,32,0.00,,---,0.00,VWS V14.01,2013-06-24 20:05:00,
2013-06-24 15:06:00,97.8,62.9,29.97,East,90,3.6,6.3,32,0.00,,---,0.00,VWS V14.01,2013-06-24 20:06:00,
2013-06-24 15:07:00,97.9,63.1,29.97,ESE,112,7.4,14.8,32,0.00,,---,0.00,VWS V14.01,2013-06-24 20:07:00,
2013-06-24 15:08:00,97.9,63.1,29.97,SSW,202,4.0,8.7,32,0.00,,---,0.00,VWS V14.01,2013-06-24 20:08:00,
2013-06-24 15:09:00,97.9,64.0,29.97,ENE,68,5.6,5.6,33,0.00,,---,0.00,VWS V14.01,2013-06-24 20:09:00,
2013-06-24 15:10:00,97.9,64.0,29.97,South,180,6.0,6.0,33,0.00,,---,0.00,VWS V14.01,2013-06-24 20:10:00,
2013-06-24 15:11:00,97.0,62.3,29.97,SSE,158,11.0,11.0,32,0.00,,---,0.00,VWS V14.01,2013-06-24 20:11:00,
2013-06-24 15:12:00,96.7,62.0,29.97,South,180,6.5,12.3,32,0.00,,---,0.00,VWS V14.01,2013-06-24 20:12:00,
2013-06-24 15:13:00,96.0,61.4,29.97,SE,135,10.1,10.1,32,0.00,,---,0.00,VWS V14.01,2013-06-24 20:13:00,
2013-06-24 15:14:00,95.3,61.6,29.97,SE,135,4.0,10.1,33,0.00,,---,0.00,VWS V14.01,2013-06-24 20:14:00,
2013-06-24 15:15:00,94.7,61.2,29.97,SE,135,7.4,7.4,33,0.00,,---,0.00,VWS V14.01,2013-06-24 20:15:00,
2013-06-24 15:16:00,95.1,61.5,29.94,South,180,8.5,8.5,33,0.00,,---,0.00,VWS V14.01,2013-06-24 20:16:00,
2013-06-24 15:17:00,95.3,61.6,29.94,South,180,12.1,12.1,33,0.00,,---,0.00,VWS V14.01,2013-06-24 20:17:00,
2013-06-24 15:18:00,95.6,62.0,29.94,SW,225,11.9,12.1,33,0.00,,---,0.00,VWS V14.01,2013-06-24 20:18:00,
2013-06-24 15:19:00,95.8,62.1,29.94,South,180,6.5,12.3,33,0.00,,---,0.00,VWS V14.01,2013-06-24 20:19:00,
2013-06-24 15:20:00,96.2,62.4,29.94,SE,135,6.0,8.1,33,0.00,,---,0.00,VWS V14.01,2013-06-24 20:20:00,
2013-06-24 15:21:00,96.3,62.6,29.94,South,180,6.3,10.7,33,0.00,,---,0.00,VWS V14.01,2013-06-24 20:21:00,
2013-06-24 15:22:00,96.7,62.9,29.94,South,180,3.1,6.3,33,0.00,,---,0.00,VWS V14.01,2013-06-24 20:22:00,
2013-06-24 15:23:00,97.0,63.2,29.94,SE,135,3.6,6.0,33,0.00,,---,0.00,VWS V14.01,2013-06-24 20:23:00,
2013-06-24 15:24:00,97.2,63.3,29.94,South,180,6.3,6.3,33,0.00,,---,0.00,VWS V14.01,2013-06-24 20:24:00,
2013-06-24 15:25:00,97.2,63.3,29.94,South,180,6.0,10.1,33,0.00,,---,0.00,VWS V14.01,2013-06-24 20:25:00,
2013-06-24 15:26:00,96.2,61.5,29.94,South,180,7.4,12.3,32,0.00,,---,0.00,VWS V14.01,2013-06-24 20:26:00,
2013-06-24 15:27:00,96.3,61.7,29.94,South,180,7.8,7.8,32,0.00,,---,0.00,VWS V14.01,2013-06-24 20:27:00,
2013-06-24 15:28:00,96.3,62.6,29.94,SE,135,6.5,7.8,33,0.00,,---,0.00,VWS V14.01,2013-06-24 20:28:00,
2013-06-24 15:29:00,96.7,62.9,29.94,South,180,7.4,7.4,33,0.00,,---,0.00,VWS V14.01,2013-06-24 20:29:00,
2013-06-24 15:30:00,96.9,63.0,29.94,SSE,158,9.4,9.4,33,0.00,,---,0.00,VWS V14.01,2013-06-24 20:30:00,
2013-06-24 15:31:00,96.9,63.0,29.94,South,180,4.0,9.4,33,0.00,,---,0.00,VWS V14.01,2013-06-24 20:31:00,
2013-06-24 15:32:00,97.2,62.5,29.94,SSW,202,10.3,14.3,32,0.00,,---,0.00,VWS V14.01,2013-06-24 20:32:00,
2013-06-24 15:33:00,96.9,62.2,29.94,SSW,202,16.3,17.5,32,0.00,,---,0.00,VWS V14.01,2013-06-24 20:33:00,
2013-06-24 15:34:00,96.5,61.8,29.94,South,180,7.2,16.3,32,0.00,,---,0.00,VWS V14.01,2013-06-24 20:34:00,
2013-06-24 15:35:00,96.5,61.8,29.94,SSW,202,5.6,8.5,32,0.00,,---,0.00,VWS V14.01,2013-06-24 20:35:00,
2013-06-24 15:36:00,96.5,61.8,29.94,SE,135,6.3,12.1,32,0.00,,---,0.00,VWS V14.01,2013-06-24 20:36:00,
2013-06-24 15:37:00,96.9,62.2,29.94,South,180,5.4,6.3,32,0.00,,---,0.00,VWS V14.01,2013-06-24 20:37:00,
2013-06-24 15:38:00,96.7,62.0,29.94,SSW,202,12.3,12.3,32,0.00,,---,0.00,VWS V14.01,2013-06-24 20:38:00,
2013-06-24 15:39:00,96.5,61.8,29.94,South,180,8.1,12.3,32,0.00,,---,0.00,VWS V14.01,2013-06-24 20:39:00,
2013-06-24 15:40:00,96.5,61.8,29.94,SE,135,7.8,12.1,32,0.00,,---,0.00,VWS V14.01,2013-06-24 20:40:00,
2013-06-24 15:41:00,96.9,63.0,29.94,SE,135,6.0,7.8,33,0.00,,---,0.00,VWS V14.01,2013-06-24 20:41:00,
2013-06-24 15:42:00,97.0,62.3,29.94,SSW,202,7.2,7.2,32,0.00,,---,0.00,VWS V14.01,2013-06-24 20:42:00,
2013-06-24 15:43:00,97.2,62.5,29.94,SSW,202,5.4,14.1,32,0.00,,---,0.00,VWS V14.01,2013-06-24 20:43:00,
2013-06-24 15:44:00,97.0,62.3,29.94,SE,135,7.6,7.6,32,0.00,,---,0.00,VWS V14.01,2013-06-24 20:44:00,
2013-06-24 15:45:00,97.0,62.3,29.94,SE,135,3.6,10.3,32,0.00,,---,0.00,VWS V14.01,2013-06-24 20:45:00,
2013-06-24 15:46:00,97.0,62.3,29.94,SW,225,8.1,8.7,32,0.00,,---,0.00,VWS V14.01,2013-06-24 20:46:00,
2013-06-24 15:47:00,96.3,61.7,29.94,South,180,5.6,8.1,32,0.00,,---,0.00,VWS V14.01,2013-06-24 20:47:00,
2013-06-24 15:48:00,96.5,61.8,29.94,SSW,202,13.0,15.9,32,0.00,,---,0.00,VWS V14.01,2013-06-24 20:48:00,
2013-06-24 15:49:00,96.5,61.8,29.94,SSW,202,13.0,13.0,32,0.00,,---,0.00,VWS V14.01,2013-06-24 20:49:00,
2013-06-24 15:50:00,96.5,61.8,29.94,SE,135,10.3,13.0,32,0.00,,---,0.00,VWS V14.01,2013-06-24 20:50:00,
2013-06-24 15:51:00,96.7,62.0,29.94,SE,135,6.9,10.3,32,0.00,,---,0.00,VWS V14.01,2013-06-24 20:51:00,
2013-06-24 15:52:00,96.5,61.8,29.94,SSW,202,12.5,12.5,32,0.00,,---,0.00,VWS V14.01,2013-06-24 20:52:00,
2013-06-24 15:53:00,96.5,61.8,29.94,SSW,202,23.3,23.3,32,0.00,,---,0.00,VWS V14.01,2013-06-24 20:53:00,
2013-06-24 15:54:00,96.3,61.7,29.94,SE,135,11.0,23.3,32,0.00,,---,0.00,VWS V14.01,2013-06-24 20:54:00,
2013-06-24 15:55:00,96.5,61.8,29.94,South,180,8.1,11.0,32,0.00,,---,0.00,VWS V14.01,2013-06-24 20:55:00,
2013-06-24 15:56:00,96.9,62.2,29.94,SSW,202,10.1,12.5,32,0.00,,---,0.00,VWS V14.01,2013-06-24 20:56:00,
2013-06-24 15:57:00,95.8,61.2,29.94,SSE,158,6.3,7.8,32,0.00,,---,0.00,VWS V14.01,2013-06-24 20:57:00,
2013-06-24 15:58:00,95.3,60.8,29.94,South,180,6.5,7.8,32,0.00,,---,0.00,VWS V14.01,2013-06-24 20:58:00,
2013-06-24 15:59:00,94.7,61.2,29.94,South,180,3.8,6.5,33,0.00,,---,0.00,VWS V14.01,2013-06-24 20:59:00,
2013-06-24 16:00:00,94.7,61.2,29.94,South,180,3.6,5.6,33,0.00,,---,0.00,VWS V14.01,2013-06-24 21:00:00,
2013-06-24 16:01:00,94.9,61.3,29.94,East,90,2.7,4.3,33,0.00,,---,0.00,VWS V14.01,2013-06-24 21:01:00,
2013-06-24 16:02:00,95.1,61.5,29.94,North,0,3.8,3.8,33,0.00,,---,0.00,VWS V14.01,2013-06-24 21:02:00,
2013-06-24 16:03:00,95.6,62.0,29.94,South,180,6.3,9.6,33,0.00,,---,0.00,VWS V14.01,2013-06-24 21:03:00,
2013-06-24 16:04:00,96.0,61.4,29.94,SE,135,7.4,7.4,32,0.00,,---,0.00,VWS V14.01,2013-06-24 21:04:00,
2013-06-24 16:05:00,95.4,60.9,29.94,SSW,202,9.8,11.4,32,0.00,,---,0.00,VWS V14.01,2013-06-24 21:05:00,
2013-06-24 16:06:00,95.1,59.7,29.94,SSE,158,8.7,9.8,31,0.00,,---,0.00,VWS V14.01,2013-06-24 21:06:00,
2013-06-24 16:07:00,95.4,60.9,29.94,SE,135,4.9,10.5,32,0.00,,---,0.00,VWS V14.01,2013-06-24 21:07:00,
2013-06-24 16:08:00,95.6,61.1,29.94,SE,135,8.5,8.5,32,0.00,,---,0.00,VWS V14.01,2013-06-24 21:08:00,
2013-06-24 16:09:00,95.8,60.3,29.94,SSW,202,3.4,3.4,31,0.00,,---,0.00,VWS V14.01,2013-06-24 21:09:00,
2013-06-24 16:10:00,96.2,61.5,29.94,West,270,3.8,5.4,32,0.00,,---,0.00,VWS V14.01,2013-06-24 21:10:00,
2013-06-24 16:11:00,96.5,61.8,29.94,ESE,112,7.2,7.2,32,0.00,,---,0.00,VWS V14.01,2013-06-24 21:11:00,
2013-06-24 16:12:00,96.5,61.8,29.94,SSW,202,12.5,12.5,32,0.00,,---,0.00,VWS V14.01,2013-06-24 21:12:00,
2013-06-24 16:13:00,96.5,61.8,29.94,NE,45,10.1,12.5,32,0.00,,---,0.00,VWS V14.01,2013-06-24 21:13:00,
2013-06-24 16:14:00,96.7,62.0,29.94,South,180,3.4,10.1,32,0.00,,---,0.00,VWS V14.01,2013-06-24 21:14:00,
2013-06-24 16:15:00,96.7,62.0,29.94,South,180,5.6,11.0,32,0.00,,---,0.00,VWS V14.01,2013-06-24 21:15:00,
2013-06-24 16:16:00,96.9,62.2,29.91,SW,225,4.3,6.7,32,0.00,,---,0.00,VWS V14.01,2013-06-24 21:16:00,
2013-06-24 16:17:00,96.9,61.3,29.91,South,180,15.4,15.4,31,0.00,,---,0.00,VWS V14.01,2013-06-24 21:17:00,
2013-06-24 16:18:00,96.9,61.3,29.91,South,180,15.4,15.4,31,0.00,,---,0.00,VWS V14.01,2013-06-24 21:18:00,
2013-06-24 16:19:00,96.5,61.0,29.91,South,180,5.8,15.4,31,0.00,,---,0.00,VWS V14.01,2013-06-24 21:19:00,
2013-06-24 16:20:00,96.5,60.0,29.91,SSW,202,17.2,17.2,30,0.00,,---,0.00,VWS V14.01,2013-06-24 21:20:00,
2013-06-24 16:21:00,96.5,61.0,29.91,South,180,11.4,17.2,31,0.00,,---,0.00,VWS V14.01,2013-06-24 21:21:00,
2013-06-24 16:22:00,96.5,61.0,29.91,SW,225,9.8,11.9,31,0.00,,---,0.00,VWS V14.01,2013-06-24 21:22:00,
2013-06-24 16:23:00,96.3,60.8,29.91,SE,135,5.8,12.1,31,0.00,,---,0.00,VWS V14.01,2013-06-24 21:23:00,
2013-06-24 16:24:00,96.3,60.8,29.91,ESE,112,7.4,12.1,31,0.00,,---,0.00,VWS V14.01,2013-06-24 21:24:00,
2013-06-24 16:25:00,96.5,61.0,29.91,ESE,112,3.1,7.4,31,0.00,,---,0.00,VWS V14.01,2013-06-24 21:25:00,
2013-06-24 16:26:00,97.0,61.4,29.91,SE,135,4.3,5.8,31,0.00,,---,0.00,VWS V14.01,2013-06-24 21:26:00,
2013-06-24 16:27:00,97.0,61.4,29.91,South,180,6.5,6.5,31,0.00,,---,0.00,VWS V14.01,2013-06-24 21:27:00,
2013-06-24 16:28:00,97.2,61.6,29.91,SE,135,13.0,13.0,31,0.00,,---,0.00,VWS V14.01,2013-06-24 21:28:00,
2013-06-24 16:29:00,97.2,61.6,29.91,South,180,7.2,13.0,31,0.00,,---,0.00,VWS V14.01,2013-06-24 21:29:00,
2013-06-24 16:30:00,97.0,61.4,29.91,South,180,5.8,8.7,31,0.00,,---,0.00,VWS V14.01,2013-06-24 21:30:00,
2013-06-24 16:31:00,97.0,61.4,29.94,SSE,158,4.5,10.5,31,0.00,,---,0.00,VWS V14.01,2013-06-24 21:31:00,
2013-06-24 16:32:00,96.9,61.3,29.94,East,90,4.9,6.3,31,0.00,,---,0.00,VWS V14.01,2013-06-24 21:32:00,
2013-06-24 16:33:00,96.9,61.3,29.94,SE,135,3.8,7.8,31,0.00,,---,0.00,VWS V14.01,2013-06-24 21:33:00,
2013-06-24 16:34:00,96.5,61.0,29.94,SE,135,4.0,9.6,31,0.00,,---,0.00,VWS V14.01,2013-06-24 21:34:00,
2013-06-24 16:35:00,96.5,61.0,29.94,SE,135,7.2,11.4,31,0.00,,---,0.00,VWS V14.01,2013-06-24 21:35:00,
2013-06-24 16:36:00,96.2,61.5,29.94,South,180,4.0,7.2,32,0.00,,---,0.00,VWS V14.01,2013-06-24 21:36:00,
2013-06-24 16:37:00,96.3,61.7,29.94,SE,135,6.0,6.3,32,0.00,,---,0.00,VWS V14.01,2013-06-24 21:37:00,
2013-06-24 16:38:00,96.3,61.7,29.94,South,180,3.6,8.1,32,0.00,,---,0.00,VWS V14.01,2013-06-24 21:38:00,
2013-06-24 16:39:00,96.0,61.4,29.94,SSE,158,5.8,9.4,32,0.00,,---,0.00,VWS V14.01,2013-06-24 21:39:00,
2013-06-24 16:40:00,96.2,61.5,29.94,SSE,158,12.1,12.1,32,0.00,,---,0.00,VWS V14.01,2013-06-24 21:40:00,
2013-06-24 16:41:00,96.2,61.5,29.94,SE,135,2.9,12.1,32,0.00,,---,0.00,VWS V14.01,2013-06-24 21:41:00,
2013-06-24 16:42:00,96.3,60.8,29.94,SE,135,10.1,11.0,31,0.00,,---,0.00,VWS V14.01,2013-06-24 21:42:00,
2013-06-24 16:43:00,96.3,60.8,29.94,South,180,4.0,10.1,31,0.00,,---,0.00,VWS V14.01,2013-06-24 21:43:00,
2013-06-24 16:44:00,96.3,61.7,29.94,South,180,3.8,7.4,32,0.00,,---,0.00,VWS V14.01,2013-06-24 21:44:00,
2013-06-24 16:45:00,96.3,61.7,29.94,East,90,4.3,7.8,32,0.00,,---,0.00,VWS V14.01,2013-06-24 21:45:00,
2013-06-24 16:46:00,96.3,60.8,29.91,South,180,3.1,10.7,31,0.00,,---,0.00,VWS V14.01,2013-06-24 21:46:00,
2013-06-24 16:47:00,96.2,60.7,29.91,South,180,3.8,6.5,31,0.00,,---,0.00,VWS V14.01,2013-06-24 21:47:00,
2013-06-24 16:48:00,96.3,60.8,29.91,South,180,4.7,4.9,31,0.00,,---,0.00,VWS V14.01,2013-06-24 21:48:00,
2013-06-24 16:49:00,96.2,60.7,29.91,SSW,202,10.3,10.3,31,0.00,,---,0.00,VWS V14.01,2013-06-24 21:49:00,
2013-06-24 16:50:00,95.4,60.9,29.91,South,180,5.6,13.6,32,0.00,,---,0.00,VWS V14.01,2013-06-24 21:50:00,
2013-06-24 16:51:00,94.9,60.5,29.91,SE,135,5.6,9.8,32,0.00,,---,0.00,VWS V14.01,2013-06-24 21:51:00,
2013-06-24 16:52:00,95.1,60.6,29.91,South,180,4.0,4.0,32,0.00,,---,0.00,VWS V14.01,2013-06-24 21:52:00,
2013-06-24 16:53:00,95.3,60.8,29.91,South,180,3.8,4.9,32,0.00,,---,0.00,VWS V14.01,2013-06-24 21:53:00,
2013-06-24 16:54:00,95.8,60.3,29.91,South,180,7.4,7.4,31,0.00,,---,0.00,VWS V14.01,2013-06-24 21:54:00,
2013-06-24 16:55:00,95.8,60.3,29.91,SSE,158,10.3,10.3,31,0.00,,---,0.00,VWS V14.01,2013-06-24 21:55:00,
2013-06-24 16:56:00,95.6,60.2,29.91,South,180,6.5,12.1,31,0.00,,---,0.00,VWS V14.01,2013-06-24 21:56:00,
2013-06-24 16:57:00,94.6,60.2,29.91,SSW,202,5.8,9.8,32,0.00,,---,0.00,VWS V14.01,2013-06-24 21:57:00,
2013-06-24 16:58:00,94.2,59.8,29.91,SSW,202,3.6,5.8,32,0.00,,---,0.00,VWS V14.01,2013-06-24 21:58:00,
2013-06-24 16:59:00,94.2,59.8,29.91,SSW,202,8.1,8.7,32,0.00,,---,0.00,VWS V14.01,2013-06-24 21:59:00,
2013-06-24 17:00:00,94.4,60.0,29.91,SSE,158,2.5,8.7,32,0.00,,---,0.00,VWS V14.01,2013-06-24 22:00:00,
2013-06-24 17:01:00,94.6,60.2,29.91,SE,135,6.5,7.6,32,0.00,,---,0.00,VWS V14.01,2013-06-24 22:01:00,
2013-06-24 17:02:00,94.9,60.5,29.91,South,180,2.2,6.5,32,0.00,,---,0.00,VWS V14.01,2013-06-24 22:02:00,
2013-06-24 17:03:00,95.3,60.8,29.91,South,180,7.8,9.8,32,0.00,,---,0.00,VWS V14.01,2013-06-24 22:03:00,
2013-06-24 17:04:00,95.3,60.8,29.91,SE,135,6.0,6.5,32,0.00,,---,0.00,VWS V14.01,2013-06-24 22:04:00,
2013-06-24 17:05:00,95.4,60.9,29.91,East,90,6.0,6.5,32,0.00,,---,0.00,VWS V14.01,2013-06-24 22:05:00,
2013-06-24 17:06:00,95.4,60.9,29.91,South,180,9.6,9.6,32,0.00,,---,0.00,VWS V14.01,2013-06-24 22:06:00,
2013-06-24 17:07:00,95.1,60.6,29.91,SSE,158,3.6,9.6,32,0.00,,---,0.00,VWS V14.01,2013-06-24 22:07:00,
2013-06-24 17:08:00,95.3,60.8,29.91,South,180,6.5,6.5,32,0.00,,---,0.00,VWS V14.01,2013-06-24 22:08:00,
2013-06-24 17:09:00,95.3,60.8,29.91,South,180,3.8,6.5,32,0.00,,---,0.00,VWS V14.01,2013-06-24 22:09:00,
2013-06-24 17:10:00,95.1,60.6,29.91,SW,225,4.0,8.7,32,0.00,,---,0.00,VWS V14.01,2013-06-24 22:10:00,
2013-06-24 17:11:00,95.3,61.6,29.91,East,90,8.7,8.7,33,0.00,,---,0.00,VWS V14.01,2013-06-24 22:11:00,
2013-06-24 17:12:00,95.1,61.5,29.91,SSE,158,11.0,11.0,33,0.00,,---,0.00,VWS V14.01,2013-06-24 22:12:00,
2013-06-24 17:13:00,94.9,61.3,29.91,SSW,202,9.6,12.3,33,0.00,,---,0.00,VWS V14.01,2013-06-24 22:13:00,
2013-06-24 17:14:00,95.1,61.5,29.91,NW,315,7.8,9.6,33,0.00,,---,0.00,VWS V14.01,2013-06-24 22:14:00,
2013-06-24 17:15:00,94.6,61.0,29.91,South,180,7.2,10.3,33,0.00,,---,0.00,VWS V14.01,2013-06-24 22:15:00,
2013-06-24 17:16:00,94.6,61.0,29.91,SSW,202,5.4,7.2,33,0.00,,---,0.00,VWS V14.01,2013-06-24 22:16:00,
2013-06-24 17:17:00,94.2,60.7,29.91,SSE,158,2.7,6.0,33,0.00,,---,0.00,VWS V14.01,2013-06-24 22:17:00,
2013-06-24 17:18:00,94.0,60.6,29.91,SSE,158,4.7,6.0,33,0.00,,---,0.00,VWS V14.01,2013-06-24 22:18:00,
2013-06-24 17:19:00,94.0,60.6,29.91,NE,45,2.0,6.5,33,0.00,,---,0.00,VWS V14.01,2013-06-24 22:19:00,
2013-06-24 17:20:00,94.0,60.6,29.91,ESE,112,4.7,6.5,33,0.00,,---,0.00,VWS V14.01,2013-06-24 22:20:00,
2013-06-24 17:21:00,94.2,61.6,29.91,East,90,7.8,8.1,34,0.00,,---,0.00,VWS V14.01,2013-06-24 22:21:00,
2013-06-24 17:22:00,94.4,61.7,29.91,SE,135,4.9,7.8,34,0.00,,---,0.00,VWS V14.01,2013-06-24 22:22:00,
2013-06-24 17:23:00,94.4,60.9,29.91,ENE,68,3.1,7.4,33,0.00,,---,0.00,VWS V14.01,2013-06-24 22:23:00,
2013-06-24 17:24:00,94.4,60.9,29.91,SSE,158,7.4,7.4,33,0.00,,---,0.00,VWS V14.01,2013-06-24 22:24:00,
2013-06-24 17:25:00,94.6,61.0,29.91,NE,45,1.3,7.4,33,0.00,,---,0.00,VWS V14.01,2013-06-24 22:25:00,
2013-06-24 17:26:00,94.7,61.2,29.91,South,180,4.0,8.7,33,0.00,,---,0.00,VWS V14.01,2013-06-24 22:26:00,
2013-06-24 17:27:00,94.9,61.3,29.91,SSE,158,4.7,6.0,33,0.00,,---,0.00,VWS V14.01,2013-06-24 22:27:00,
2013-06-24 17:28:00,95.1,61.5,29.91,SSE,158,6.5,6.5,33,0.00,,---,0.00,VWS V14.01,2013-06-24 22:28:00,
2013-06-24 17:29:00,95.1,61.5,29.91,East,90,3.6,10.1,33,0.00,,---,0.00,VWS V14.01,2013-06-24 22:29:00,
2013-06-24 17:30:00,95.3,61.6,29.91,SE,135,2.9,4.3,33,0.00,,---,0.00,VWS V14.01,2013-06-24 22:30:00,
2013-06-24 17:31:00,95.3,61.6,29.91,SSE,158,10.1,10.1,33,0.00,,---,0.00,VWS V14.01,2013-06-24 22:31:00,
2013-06-24 17:32:00,95.1,61.5,29.91,ENE,68,10.1,10.1,33,0.00,,---,0.00,VWS V14.01,2013-06-24 22:32:00,
2013-06-24 17:33:00,94.6,61.0,29.91,ESE,112,9.0,12.1,33,0.00,,---,0.00,VWS V14.01,2013-06-24 22:33:00,
2013-06-24 17:34:00,93.5,60.1,29.91,South,180,8.1,9.0,33,0.00,,---,0.00,VWS V14.01,2013-06-24 22:34:00,
2013-06-24 17:35:00,93.3,60.0,29.91,South,180,9.8,9.8,33,0.00,,---,0.00,VWS V14.01,2013-06-24 22:35:00,
2013-06-24 17:36:00,93.0,59.6,29.91,SSE,158,5.6,9.8,33,0.00,,---,0.00,VWS V14.01,2013-06-24 22:36:00,
2013-06-24 17:37:00,92.8,59.5,29.91,ESE,112,6.3,6.3,33,0.00,,---,0.00,VWS V14.01,2013-06-24 22:37:00,
2013-06-24 17:38:00,92.6,59.3,29.91,SSW,202,6.0,6.0,33,0.00,,---,0.00,VWS V14.01,2013-06-24 22:38:00,
2013-06-24 17:39:00,92.6,59.3,29.91,SW,225,7.2,7.2,33,0.00,,---,0.00,VWS V14.01,2013-06-24 22:39:00,
2013-06-24 17:40:00,92.6,59.3,29.91,South,180,3.1,7.2,33,0.00,,---,0.00,VWS V14.01,2013-06-24 22:40:00,
2013-06-24 17:41:00,92.6,60.2,29.91,SE,135,6.3,6.3,34,0.00,,---,0.00,VWS V14.01,2013-06-24 22:41:00,
2013-06-24 17:42:00,92.1,59.7,29.91,SSW,202,5.8,7.6,34,0.00,,---,0.00,VWS V14.01,2013-06-24 22:42:00,
2013-06-24 17:43:00,92.1,59.7,29.91,ESE,112,3.8,5.8,34,0.00,,---,0.00,VWS V14.01,2013-06-24 22:43:00,
2013-06-24 17:44:00,91.9,60.4,29.91,SE,135,8.5,8.5,35,0.00,,---,0.00,VWS V14.01,2013-06-24 22:44:00,
2013-06-24 17:45:00,91.7,60.2,29.91,East,90,3.6,8.5,35,0.00,,---,0.00,VWS V14.01,2013-06-24 22:45:00,
2013-06-24 17:46:00,91.5,60.0,29.91,ESE,112,4.5,5.8,35,0.00,,---,0.00,VWS V14.01,2013-06-24 22:46:00,
2013-06-24 17:47:00,91.4,59.9,29.91,South,180,7.6,10.5,35,0.00,,---,0.00,VWS V14.01,2013-06-24 22:47:00,
2013-06-24 17:48:00,91.4,59.9,29.91,South,180,6.0,8.1,35,0.00,,---,0.00,VWS V14.01,2013-06-24 22:48:00,
2013-06-24 17:49:00,91.4,59.9,29.91,South,180,5.4,8.7,35,0.00,,---,0.00,VWS V14.01,2013-06-24 22:49:00,
2013-06-24 17:50:00,91.2,59.7,29.91,South,180,4.3,9.0,35,0.00,,---,0.00,VWS V14.01,2013-06-24 22:50:00,
2013-06-24 17:51:00,91.2,59.7,29.91,SSW,202,3.6,8.1,35,0.00,,---,0.00,VWS V14.01,2013-06-24 22:51:00,
2013-06-24 17:52:00,91.0,59.6,29.91,South,180,9.6,9.6,35,0.00,,---,0.00,VWS V14.01,2013-06-24 22:52:00,
2013-06-24 17:53:00,91.0,59.6,29.91,SSW,202,6.0,9.6,35,0.00,,---,0.00,VWS V14.01,2013-06-24 22:53:00,
2013-06-24 17:54:00,91.0,59.6,29.91,South,180,5.6,12.1,35,0.00,,---,0.00,VWS V14.01,2013-06-24 22:54:00,
2013-06-24 17:55:00,91.0,59.6,29.91,SSW,202,11.9,11.9,35,0.00,,---,0.00,VWS V14.01,2013-06-24 22:55:00,
2013-06-24 17:56:00,91.2,59.7,29.91,South,180,12.1,17.7,35,0.00,,---,0.00,VWS V14.01,2013-06-24 22:56:00,
2013-06-24 17:57:00,91.5,60.0,29.91,South,180,4.0,13.2,35,0.00,,---,0.00,VWS V14.01,2013-06-24 22:57:00,
2013-06-24 17:58:00,91.5,60.0,29.91,SE,135,5.4,5.4,35,0.00,,---,0.00,VWS V14.01,2013-06-24 22:58:00,
2013-06-24 17:59:00,91.7,60.2,29.91,SE,135,3.8,5.4,35,0.00,,---,0.00,VWS V14.01,2013-06-24 22:59:00,
2013-06-24 18:00:00,91.7,60.2,29.91,South,180,11.0,14.8,35,0.00,,---,0.00,VWS V14.01,2013-06-24 23:00:00,
2013-06-24 18:01:00,91.5,60.0,29.91,SE,135,5.6,11.0,35,0.00,,---,0.00,VWS V14.01,2013-06-24 23:01:00,
2013-06-24 18:02:00,91.5,60.0,29.91,SE,135,7.4,7.4,35,0.00,,---,0.00,VWS V14.01,2013-06-24 23:02:00,
2013-06-24 18:03:00,91.5,60.0,29.91,SE,135,3.6,7.4,35,0.00,,---,0.00,VWS V14.01,2013-06-24 23:03:00,
2013-06-24 18:04:00,91.4,60.7,29.91,South,180,3.4,4.7,36,0.00,,---,0.00,VWS V14.01,2013-06-24 23:04:00,
2013-06-24 18:05:00,91.4,59.9,29.91,SW,225,2.7,5.8,35,0.00,,---,0.00,VWS V14.01,2013-06-24 23:05:00,
2013-06-24 18:06:00,91.5,60.8,29.91,SSE,158,3.6,4.9,36,0.00,,---,0.00,VWS V14.01,2013-06-24 23:06:00,
2013-06-24 18:07:00,91.5,60.8,29.91,SE,135,3.8,3.8,36,0.00,,---,0.00,VWS V14.01,2013-06-24 23:07:00,
2013-06-24 18:08:00,91.5,60.8,29.91,ESE,112,7.4,10.7,36,0.00,,---,0.00,VWS V14.01,2013-06-24 23:08:00,
2013-06-24 18:09:00,91.5,60.8,29.91,SSW,202,2.7,7.4,36,0.00,,---,0.00,VWS V14.01,2013-06-24 23:09:00,
2013-06-24 18:10:00,91.5,60.8,29.91,East,90,2.9,4.9,36,0.00,,---,0.00,VWS V14.01,2013-06-24 23:10:00,
2013-06-24 18:11:00,91.5,60.8,29.91,South,180,4.9,7.4,36,0.00,,---,0.00,VWS V14.01,2013-06-24 23:11:00,
2013-06-24 18:12:00,91.4,60.7,29.91,South,180,12.8,12.8,36,0.00,,---,0.00,VWS V14.01,2013-06-24 23:12:00,
2013-06-24 18:13:00,91.4,60.7,29.91,SSE,158,4.5,4.5,36,0.00,,---,0.00,VWS V14.01,2013-06-24 23:13:00,
2013-06-24 18:14:00,91.2,60.5,29.91,ESE,112,3.8,5.6,36,0.00,,---,0.00,VWS V14.01,2013-06-24 23:14:00,
2013-06-24 18:15:00,91.2,60.5,29.91,SSW,202,3.4,7.6,36,0.00,,---,0.00,VWS V14.01,2013-06-24 23:15:00,
2013-06-24 18:16:00,91.0,60.4,29.91,ENE,68,5.6,7.8,36,0.00,,---,0.00,VWS V14.01,2013-06-24 23:16:00,
2013-06-24 18:17:00,90.8,59.4,29.91,ENE,68,6.0,8.5,35,0.00,,---,0.00,VWS V14.01,2013-06-24 23:17:00,
2013-06-24 18:18:00,90.8,59.4,29.91,ESE,112,7.4,7.4,35,0.00,,---,0.00,VWS V14.01,2013-06-24 23:18:00,
2013-06-24 18:19:00,90.7,59.3,29.91,SSW,202,6.0,7.4,35,0.00,,---,0.00,VWS V14.01,2013-06-24 23:19:00,
2013-06-24 18:20:00,90.5,58.3,29.91,South,180,6.3,6.3,34,0.00,,---,0.00,VWS V14.01,2013-06-24 23:20:00,
2013-06-24 18:21:00,90.5,59.1,29.91,SSW,202,4.3,6.3,35,0.00,,---,0.00,VWS V14.01,2013-06-24 23:21:00,
2013-06-24 18:22:00,90.5,59.1,29.91,SSE,158,5.8,8.5,35,0.00,,---,0.00,VWS V14.01,2013-06-24 23:22:00,
2013-06-24 18:23:00,90.3,59.0,29.91,WSW,248,3.4,6.0,35,0.00,,---,0.00,VWS V14.01,2013-06-24 23:23:00,
2013-06-24 18:24:00,90.3,59.0,29.91,South,180,6.0,6.0,35,0.00,,---,0.00,VWS V14.01,2013-06-24 23:24:00,
2013-06-24 18:25:00,90.1,58.8,29.91,SSW,202,2.9,5.4,35,0.00,,---,0.00,VWS V14.01,2013-06-24 23:25:00,
2013-06-24 18:26:00,90.1,58.8,29.91,SE,135,3.1,5.4,35,0.00,,---,0.00,VWS V14.01,2013-06-24 23:26:00,
2013-06-24 18:27:00,90.1,58.8,29.91,SE,135,3.4,4.3,35,0.00,,---,0.00,VWS V14.01,2013-06-24 23:27:00,
2013-06-24 18:28:00,89.9,58.7,29.91,East,90,3.4,4.0,35,0.00,,---,0.00,VWS V14.01,2013-06-24 23:28:00,
2013-06-24 18:29:00,89.9,58.7,29.91,SSW,202,3.8,4.3,35,0.00,,---,0.00,VWS V14.01,2013-06-24 23:29:00,
2013-06-24 18:30:00,89.9,59.4,29.91,SSE,158,4.0,4.3,36,0.00,,---,0.00,VWS V14.01,2013-06-24 23:30:00,
2013-06-24 18:31:00,89.9,59.4,29.91,SE,135,2.7,4.3,36,0.00,,---,0.00,VWS V14.01,2013-06-24 23:31:00,
2013-06-24 18:32:00,89.9,59.4,29.91,South,180,2.9,6.3,36,0.00,,---,0.00,VWS V14.01,2013-06-24 23:32:00,
2013-06-24 18:33:00,89.9,59.4,29.91,SW,225,5.4,5.6,36,0.00,,---,0.00,VWS V14.01,2013-06-24 23:33:00,
2013-06-24 18:34:00,89.9,59.4,29.91,South,180,4.7,5.6,36,0.00,,---,0.00,VWS V14.01,2013-06-24 23:34:00,
2013-06-24 18:35:00,89.8,59.3,29.91,SE,135,7.4,9.0,36,0.00,,---,0.00,VWS V14.01,2013-06-24 23:35:00,
2013-06-24 18:36:00,89.8,59.3,29.91,SE,135,7.4,9.0,36,0.00,,---,0.00,VWS V14.01,2013-06-24 23:36:00,
2013-06-24 18:37:00,89.8,59.3,29.91,SE,135,5.6,7.4,36,0.00,,---,0.00,VWS V14.01,2013-06-24 23:37:00,
2013-06-24 18:38:00,89.6,59.1,29.91,SE,135,6.9,8.5,36,0.00,,---,0.00,VWS V14.01,2013-06-24 23:38:00,
2013-06-24 18:39:00,89.6,59.1,29.91,SSE,158,2.9,6.9,36,0.00,,---,0.00,VWS V14.01,2013-06-24 23:39:00,
2013-06-24 18:40:00,89.6,59.1,29.91,ESE,112,6.0,6.0,36,0.00,,---,0.00,VWS V14.01,2013-06-24 23:40:00,
2013-06-24 18:41:00,89.6,59.1,29.91,South,180,4.3,6.0,36,0.00,,---,0.00,VWS V14.01,2013-06-24 23:41:00,
2013-06-24 18:42:00,89.6,59.1,29.91,East,90,7.4,13.2,36,0.00,,---,0.00,VWS V14.01,2013-06-24 23:42:00,
2013-06-24 18:43:00,89.4,59.0,29.91,South,180,5.6,7.4,36,0.00,,---,0.00,VWS V14.01,2013-06-24 23:43:00,
2013-06-24 18:44:00,89.4,59.0,29.91,SSW,202,1.3,5.6,36,0.00,,---,0.00,VWS V14.01,2013-06-24 23:44:00,
2013-06-24 18:45:00,89.4,59.0,29.91,ESE,112,4.0,4.0,36,0.00,,---,0.00,VWS V14.01,2013-06-24 23:45:00,
2013-06-24 18:46:00,89.4,59.0,29.91,South,180,5.4,5.4,36,0.00,,---,0.00,VWS V14.01,2013-06-24 23:46:00,
2013-06-24 18:47:00,89.2,58.8,29.91,SSW,202,4.9,6.0,36,0.00,,---,0.00,VWS V14.01,2013-06-24 23:47:00,
2013-06-24 18:48:00,89.2,58.8,29.91,South,180,2.9,2.9,36,0.00,,---,0.00,VWS V14.01,2013-06-24 23:48:00,
2013-06-24 18:49:00,89.2,58.8,29.91,South,180,1.3,6.0,36,0.00,,---,0.00,VWS V14.01,2013-06-24 23:49:00,
2013-06-24 18:50:00,89.1,58.7,29.91,East,90,2.2,3.4,36,0.00,,---,0.00,VWS V14.01,2013-06-24 23:50:00,
2013-06-24 18:51:00,89.1,58.7,29.91,South,180,6.7,7.8,36,0.00,,---,0.00,VWS V14.01,2013-06-24 23:51:00,
2013-06-24 18:52:00,89.1,59.4,29.91,SE,135,2.5,7.6,37,0.00,,---,0.00,VWS V14.01,2013-06-24 23:52:00,
2013-06-24 18:53:00,89.1,59.4,29.91,SSE,158,3.1,4.5,37,0.00,,---,0.00,VWS V14.01,2013-06-24 23:53:00,
2013-06-24 18:54:00,89.1,59.4,29.91,South,180,2.7,4.0,37,0.00,,---,0.00,VWS V14.01,2013-06-24 23:54:00,
2013-06-24 18:55:00,89.1,59.4,29.91,SSE,158,3.1,4.3,37,0.00,,---,0.00,VWS V14.01,2013-06-24 23:55:00,
2013-06-24 18:56:00,88.9,59.3,29.91,SE,135,5.6,6.5,37,0.00,,---,0.00,VWS V14.01,2013-06-24 23:56:00,
2013-06-24 18:57:00,88.9,59.3,29.91,SE,135,5.6,6.5,37,0.00,,---,0.00,VWS V14.01,2013-06-24 23:57:00,
2013-06-24 18:58:00,88.9,59.3,29.91,East,90,4.9,5.6,37,0.00,,---,0.00,VWS V14.01,2013-06-24 23:58:00,
2013-06-24 18:59:00,88.9,59.3,29.91,SW,225,5.4,5.4,37,0.00,,---,0.00,VWS V14.01,2013-06-24 23:59:00,
2013-06-24 19:00:00,88.9,59.3,29.91,SE,135,2.9,5.4,37,0.00,,---,0.00,VWS V14.01,2013-06-25 00:00:00,
2013-06-24 19:01:00,88.9,59.3,29.91,South,180,1.1,3.8,37,0.00,,---,0.00,VWS V14.01,2013-06-25 00:01:00,
2013-06-24 19:02:00,88.9,59.3,29.91,South,180,3.1,7.8,37,0.00,,---,0.00,VWS V14.01,2013-06-25 00:02:00,
2013-06-24 19:03:00,88.7,59.1,29.91,SW,225,3.6,4.3,37,0.00,,---,0.00,VWS V14.01,2013-06-25 00:03:00,
2013-06-24 19:04:00,88.7,59.1,29.91,SE,135,3.8,5.4,37,0.00,,---,0.00,VWS V14.01,2013-06-25 00:04:00,
2013-06-24 19:05:00,88.7,59.1,29.91,East,90,2.9,3.8,37,0.00,,---,0.00,VWS V14.01,2013-06-25 00:05:00,
2013-06-24 19:06:00,88.5,59.0,29.91,SSW,202,2.9,3.4,37,0.00,,---,0.00,VWS V14.01,2013-06-25 00:06:00,
2013-06-24 19:07:00,88.5,59.0,29.91,ESE,112,1.6,2.9,37,0.00,,---,0.00,VWS V14.01,2013-06-25 00:07:00,
2013-06-24 19:08:00,88.5,59.0,29.91,East,90,4.3,5.8,37,0.00,,---,0.00,VWS V14.01,2013-06-25 00:08:00,
2013-06-24 19:09:00,88.5,59.0,29.91,SW,225,3.8,4.5,37,0.00,,---,0.00,VWS V14.01,2013-06-25 00:09:00,
2013-06-24 19:10:00,88.3,59.5,29.91,South,180,3.4,3.8,38,0.00,,---,0.00,VWS V14.01,2013-06-25 00:10:00,
2013-06-24 19:11:00,88.3,59.5,29.91,South,180,3.1,5.8,38,0.00,,---,0.00,VWS V14.01,2013-06-25 00:11:00,
2013-06-24 19:12:00,88.3,59.5,29.91,East,90,3.6,3.6,38,0.00,,---,0.00,VWS V14.01,2013-06-25 00:12:00,
2013-06-24 19:13:00,88.3,59.5,29.91,SSE,158,2.7,3.6,38,0.00,,---,0.00,VWS V14.01,2013-06-25 00:13:00,
2013-06-24 19:14:00,88.2,59.4,29.91,SE,135,4.7,5.4,38,0.00,,---,0.00,VWS V14.01,2013-06-25 00:14:00,
2013-06-24 19:15:00,88.2,59.4,29.91,ESE,112,2.5,2.5,38,0.00,,---,0.00,VWS V14.01,2013-06-25 00:15:00,
2013-06-24 19:16:00,88.0,59.2,29.94,SE,135,3.4,3.4,38,0.00,,---,0.00,VWS V14.01,2013-06-25 00:16:00,
2013-06-24 19:17:00,88.0,59.2,29.94,SSW,202,1.1,3.6,38,0.00,,---,0.00,VWS V14.01,2013-06-25 00:17:00,
2013-06-24 19:18:00,88.0,59.2,29.94,South,180,5.4,5.4,38,0.00,,---,0.00,VWS V14.01,2013-06-25 00:18:00,
2013-06-24 19:19:00,88.0,59.2,29.94,SSE,158,3.6,7.2,38,0.00,,---,0.00,VWS V14.01,2013-06-25 00:19:00,
2013-06-24 19:20:00,88.0,59.2,29.94,East,90,4.3,4.3,38,0.00,,---,0.00,VWS V14.01,2013-06-25 00:20:00,
2013-06-24 19:21:00,87.8,59.1,29.94,ESE,112,6.3,6.3,38,0.00,,---,0.00,VWS V14.01,2013-06-25 00:21:00,
2013-06-24 19:22:00,87.8,59.1,29.94,SSW,202,3.6,6.3,38,0.00,,---,0.00,VWS V14.01,2013-06-25 00:22:00,
2013-06-24 19:23:00,87.8,59.1,29.94,South,180,5.6,5.6,38,0.00,,---,0.00,VWS V14.01,2013-06-25 00:23:00,
2013-06-24 19:24:00,87.8,59.1,29.94,ESE,112,6.0,6.0,38,0.00,,---,0.00,VWS V14.01,2013-06-25 00:24:00,
2013-06-24 19:25:00,87.8,59.1,29.94,SE,135,5.4,6.3,38,0.00,,---,0.00,VWS V14.01,2013-06-25 00:25:00,
2013-06-24 19:26:00,87.8,59.1,29.94,ESE,112,3.4,5.6,38,0.00,,---,0.00,VWS V14.01,2013-06-25 00:26:00,
2013-06-24 19:27:00,87.8,59.1,29.94,NNE,22,1.1,8.1,38,0.00,,---,0.00,VWS V14.01,2013-06-25 00:27:00,
2013-06-24 19:28:00,87.6,58.9,29.94,ESE,112,3.6,9.6,38,0.00,,---,0.00,VWS V14.01,2013-06-25 00:28:00,
2013-06-24 19:29:00,87.6,58.9,29.94,North,0,6.0,6.0,38,0.00,,---,0.00,VWS V14.01,2013-06-25 00:29:00,
2013-06-24 19:30:00,87.6,58.9,29.94,East,90,5.8,6.5,38,0.00,,---,0.00,VWS V14.01,2013-06-25 00:30:00,
2013-06-24 19:31:00,87.5,58.8,29.94,SSW,202,3.4,8.7,38,0.00,,---,0.00,VWS V14.01,2013-06-25 00:31:00,
2013-06-24 19:32:00,87.5,58.8,29.94,ESE,112,6.3,6.5,38,0.00,,---,0.00,VWS V14.01,2013-06-25 00:32:00,
2013-06-24 19:33:00,87.5,58.8,29.94,SSE,158,2.0,6.3,38,0.00,,---,0.00,VWS V14.01,2013-06-25 00:33:00,
2013-06-24 19:34:00,87.5,58.8,29.94,SE,135,3.4,3.4,38,0.00,,---,0.00,VWS V14.01,2013-06-25 00:34:00,
2013-06-24 19:35:00,87.3,58.6,29.94,South,180,7.6,7.6,38,0.00,,---,0.00,VWS V14.01,2013-06-25 00:35:00,
2013-06-24 19:36:00,87.3,58.6,29.94,SE,135,4.9,7.6,38,0.00,,---,0.00,VWS V14.01,2013-06-25 00:36:00,
2013-06-24 19:37:00,87.3,58.6,29.94,SSE,158,2.5,4.9,38,0.00,,---,0.00,VWS V14.01,2013-06-25 00:37:00,
2013-06-24 19:38:00,87.3,58.6,29.94,SSW,202,3.4,5.8,38,0.00,,---,0.00,VWS V14.01,2013-06-25 00:38:00,
2013-06-24 19:39:00,87.3,58.6,29.94,South,180,4.0,5.8,38,0.00,,---,0.00,VWS V14.01,2013-06-25 00:39:00,
2013-06-24 19:40:00,87.1,58.5,29.94,SE,135,2.2,6.0,38,0.00,,---,0.00,VWS V14.01,2013-06-25 00:40:00,
2013-06-24 19:41:00,87.1,58.5,29.94,SE,135,1.3,3.8,38,0.00,,---,0.00,VWS V14.01,2013-06-25 00:41:00,
2013-06-24 19:42:00,87.1,58.5,29.94,SSE,158,3.6,5.4,38,0.00,,---,0.00,VWS V14.01,2013-06-25 00:42:00,
2013-06-24 19:43:00,87.1,58.5,29.94,East,90,3.8,6.5,38,0.00,,---,0.00,VWS V14.01,2013-06-25 00:43:00,
2013-06-24 19:44:00,86.9,58.3,29.94,SE,135,2.2,10.3,38,0.00,,---,0.00,VWS V14.01,2013-06-25 00:44:00,
2013-06-24 19:45:00,86.9,58.3,29.94,South,180,2.0,4.9,38,0.00,,---,0.00,VWS V14.01,2013-06-25 00:45:00,
2013-06-24 19:46:00,86.9,58.3,29.94,ESE,112,4.9,4.9,38,0.00,,---,0.00,VWS V14.01,2013-06-25 00:46:00,
2013-06-24 19:47:00,86.8,58.1,29.94,ESE,112,4.0,4.9,38,0.00,,---,0.00,VWS V14.01,2013-06-25 00:47:00,
2013-06-24 19:48:00,86.8,58.1,29.94,SE,135,7.2,7.2,38,0.00,,---,0.00,VWS V14.01,2013-06-25 00:48:00,
2013-06-24 19:49:00,86.8,58.9,29.94,SE,135,5.4,7.2,39,0.00,,---,0.00,VWS V14.01,2013-06-25 00:49:00,
2013-06-24 19:50:00,86.8,58.9,29.94,SE,135,3.1,6.3,39,0.00,,---,0.00,VWS V14.01,2013-06-25 00:50:00,
2013-06-24 19:51:00,86.6,58.7,29.94,East,90,3.6,4.3,39,0.00,,---,0.00,VWS V14.01,2013-06-25 00:51:00,
2013-06-24 19:52:00,86.4,58.5,29.94,SSW,202,2.7,3.6,39,0.00,,---,0.00,VWS V14.01,2013-06-25 00:52:00,
2013-06-24 19:53:00,86.4,58.5,29.94,East,90,0.9,8.7,39,0.00,,---,0.00,VWS V14.01,2013-06-25 00:53:00,
2013-06-24 19:54:00,86.4,58.5,29.94,SSW,202,2.0,4.0,39,0.00,,---,0.00,VWS V14.01,2013-06-25 00:54:00,
2013-06-24 19:55:00,86.4,59.2,29.94,SE,135,3.6,6.0,40,0.00,,---,0.00,VWS V14.01,2013-06-25 00:55:00,
2013-06-24 19:56:00,86.2,59.1,29.94,South,180,4.9,6.5,40,0.00,,---,0.00,VWS V14.01,2013-06-25 00:56:00,
2013-06-24 19:57:00,86.2,59.1,29.94,South,180,3.1,8.1,40,0.00,,---,0.00,VWS V14.01,2013-06-25 00:57:00,
2013-06-24 19:58:00,86.2,59.1,29.94,SW,225,4.9,4.9,40,0.00,,---,0.00,VWS V14.01,2013-06-25 00:58:00,
2013-06-24 19:59:00,86.1,58.9,29.94,SE,135,3.6,4.9,40,0.00,,---,0.00,VWS V14.01,2013-06-25 00:59:00,
2013-06-24 20:01:00,85.9,58.8,29.94,SE,135,4.0,4.0,40,0.00,,---,0.00,VWS V14.01,2013-06-25 01:01:00,
2013-06-24 20:02:00,85.9,58.8,29.94,NE,45,2.2,4.0,40,0.00,,---,0.00,VWS V14.01,2013-06-25 01:02:00,
2013-06-24 20:03:00,85.9,58.8,29.94,ESE,112,5.8,8.5,40,0.00,,---,0.00,VWS V14.01,2013-06-25 01:03:00,
2013-06-24 20:04:00,85.9,58.8,29.94,ESE,112,2.0,5.8,40,0.00,,---,0.00,VWS V14.01,2013-06-25 01:04:00,
2013-06-24 20:05:00,85.9,58.8,29.94,South,180,5.8,5.8,40,0.00,,---,0.00,VWS V14.01,2013-06-25 01:05:00,
2013-06-24 20:06:00,85.9,59.5,29.94,SE,135,4.3,5.8,41,0.00,,---,0.00,VWS V14.01,2013-06-25 01:06:00,
2013-06-24 20:07:00,85.7,59.3,29.94,SE,135,0.0,4.3,41,0.00,,---,0.00,VWS V14.01,2013-06-25 01:07:00,
2013-06-24 20:08:00,85.7,59.3,29.94,SE,135,4.0,4.0,41,0.00,,---,0.00,VWS V14.01,2013-06-25 01:08:00,
2013-06-24 20:09:00,85.7,59.3,29.94,ESE,112,2.9,7.6,41,0.00,,---,0.00,VWS V14.01,2013-06-25 01:09:00,
2013-06-24 20:10:00,85.5,59.2,29.94,SSE,158,5.8,7.2,41,0.00,,---,0.00,VWS V14.01,2013-06-25 01:10:00,
2013-06-24 20:11:00,85.5,59.2,29.94,East,90,2.5,5.8,41,0.00,,---,0.00,VWS V14.01,2013-06-25 01:11:00,
2013-06-24 20:12:00,85.5,59.2,29.94,SE,135,2.9,4.3,41,0.00,,---,0.00,VWS V14.01,2013-06-25 01:12:00,
2013-06-24 20:13:00,85.3,59.0,29.94,ESE,112,3.4,3.4,41,0.00,,---,0.00,VWS V14.01,2013-06-25 01:13:00,
2013-06-24 20:14:00,85.3,59.0,29.94,SSE,158,2.2,3.8,41,0.00,,---,0.00,VWS V14.01,2013-06-25 01:14:00,
2013-06-24 20:15:00,85.3,59.0,29.94,NE,45,1.1,3.8,41,0.00,,---,0.00,VWS V14.01,2013-06-25 01:15:00,
2013-06-24 20:16:00,85.3,59.0,29.94,South,180,5.8,5.8,41,0.00,,---,0.00,VWS V14.01,2013-06-25 01:16:00,
2013-06-24 20:17:00,85.3,59.0,29.94,SE,135,2.9,5.8,41,0.00,,---,0.00,VWS V14.01,2013-06-25 01:17:00,
2013-06-24 20:18:00,85.3,59.0,29.94,ESE,112,1.1,2.9,41,0.00,,---,0.00,VWS V14.01,2013-06-25 01:18:00,
2013-06-24 20:19:00,85.3,59.0,29.94,South,180,2.9,6.0,41,0.00,,---,0.00,VWS V14.01,2013-06-25 01:19:00,
2013-06-24 20:20:00,85.2,59.5,29.94,South,180,2.9,3.6,42,0.00,,---,0.00,VWS V14.01,2013-06-25 01:20:00,
2013-06-24 20:21:00,85.0,59.3,29.94,SSW,202,3.8,4.0,42,0.00,,---,0.00,VWS V14.01,2013-06-25 01:21:00,
2013-06-24 20:22:00,85.0,59.3,29.94,SE,135,6.0,6.0,42,0.00,,---,0.00,VWS V14.01,2013-06-25 01:22:00,
2013-06-24 20:23:00,85.0,59.3,29.94,SE,135,2.5,6.0,42,0.00,,---,0.00,VWS V14.01,2013-06-25 01:23:00,
2013-06-24 20:24:00,85.0,59.3,29.94,SSW,202,5.4,5.4,42,0.00,,---,0.00,VWS V14.01,2013-06-25 01:24:00,
2013-06-24 20:25:00,84.8,59.2,29.94,SE,135,3.4,5.4,42,0.00,,---,0.00,VWS V14.01,2013-06-25 01:25:00,
2013-06-24 20:26:00,84.8,59.2,29.94,SW,225,4.9,6.0,42,0.00,,---,0.00,VWS V14.01,2013-06-25 01:26:00,
2013-06-24 20:27:00,84.8,59.2,29.94,SSW,202,4.0,6.5,42,0.00,,---,0.00,VWS V14.01,2013-06-25 01:27:00,
2013-06-24 20:28:00,84.8,59.2,29.94,SE,135,2.7,5.8,42,0.00,,---,0.00,VWS V14.01,2013-06-25 01:28:00,
2013-06-24 20:29:00,84.8,59.2,29.94,SE,135,3.1,5.6,42,0.00,,---,0.00,VWS V14.01,2013-06-25 01:29:00,
2013-06-24 20:30:00,84.8,59.8,29.94,SSE,158,2.2,7.2,43,0.00,,---,0.00,VWS V14.01,2013-06-25 01:30:00,
2013-06-24 20:31:00,84.8,59.8,29.91,SE,135,2.9,4.3,43,0.00,,---,0.00,VWS V14.01,2013-06-25 01:31:00,
2013-06-24 20:32:00,84.8,59.8,29.91,SSE,158,3.8,4.9,43,0.00,,---,0.00,VWS V14.01,2013-06-25 01:32:00,
2013-06-24 20:33:00,84.8,59.8,29.91,East,90,4.3,4.3,43,0.00,,---,0.00,VWS V14.01,2013-06-25 01:33:00,
2013-06-24 20:34:00,84.6,59.7,29.91,East,90,2.9,4.7,43,0.00,,---,0.00,VWS V14.01,2013-06-25 01:34:00,
2013-06-24 20:35:00,84.6,59.7,29.91,South,180,3.1,5.8,43,0.00,,---,0.00,VWS V14.01,2013-06-25 01:35:00,
2013-06-24 20:36:00,84.6,59.7,29.91,South,180,4.3,5.6,43,0.00,,---,0.00,VWS V14.01,2013-06-25 01:36:00,
2013-06-24 20:37:00,84.6,59.7,29.91,South,180,4.3,6.7,43,0.00,,---,0.00,VWS V14.01,2013-06-25 01:37:00,
2013-06-24 20:38:00,84.6,59.7,29.91,ESE,112,2.9,8.1,43,0.00,,---,0.00,VWS V14.01,2013-06-25 01:38:00,
2013-06-24 20:39:00,84.6,59.7,29.91,SSW,202,6.0,6.0,43,0.00,,---,0.00,VWS V14.01,2013-06-25 01:39:00,
2013-06-24 20:40:00,84.4,59.5,29.91,East,90,4.0,10.5,43,0.00,,---,0.00,VWS V14.01,2013-06-25 01:40:00,
2013-06-24 20:41:00,84.4,59.5,29.91,SSE,158,4.0,4.0,43,0.00,,---,0.00,VWS V14.01,2013-06-25 01:41:00,
2013-06-24 20:42:00,84.4,60.2,29.91,SE,135,2.9,7.2,44,0.00,,---,0.00,VWS V14.01,2013-06-25 01:42:00,
2013-06-24 20:43:00,84.4,59.5,29.91,ESE,112,4.0,7.4,43,0.00,,---,0.00,VWS V14.01,2013-06-25 01:43:00,
2013-06-24 20:44:00,84.3,60.0,29.91,South,180,2.7,2.7,44,0.00,,---,0.00,VWS V14.01,2013-06-25 01:44:00,
2013-06-24 20:45:00,84.3,60.0,29.91,NW,315,1.3,8.5,44,0.00,,---,0.00,VWS V14.01,2013-06-25 01:45:00,
2013-06-24 20:46:00,84.3,60.0,29.94,South,180,3.4,6.5,44,0.00,,---,0.00,VWS V14.01,2013-06-25 01:46:00,
2013-06-24 20:47:00,84.3,60.0,29.94,SSW,202,3.6,4.3,44,0.00,,---,0.00,VWS V14.01,2013-06-25 01:47:00,
2013-06-24 20:48:00,84.3,60.0,29.94,SSE,158,4.0,4.0,44,0.00,,---,0.00,VWS V14.01,2013-06-25 01:48:00,
2013-06-24 20:49:00,84.1,59.8,29.94,SE,135,6.0,7.2,44,0.00,,---,0.00,VWS V14.01,2013-06-25 01:49:00,
2013-06-24 20:50:00,84.1,59.8,29.94,SE,135,3.4,6.0,44,0.00,,---,0.00,VWS V14.01,2013-06-25 01:50:00,
2013-06-24 20:51:00,84.1,60.5,29.94,SE,135,5.4,8.1,45,0.00,,---,0.00,VWS V14.01,2013-06-25 01:51:00,
2013-06-24 20:52:00,84.1,60.5,29.94,South,180,6.3,6.3,45,0.00,,---,0.00,VWS V14.01,2013-06-25 01:52:00,
2013-06-24 20:53:00,84.1,60.5,29.94,ESE,112,4.0,6.3,45,0.00,,---,0.00,VWS V14.01,2013-06-25 01:53:00,
2013-06-24 20:54:00,83.9,60.3,29.94,West,270,3.4,4.0,45,0.00,,---,0.00,VWS V14.01,2013-06-25 01:54:00,
2013-06-24 20:55:00,83.9,60.3,29.94,ENE,68,5.4,5.4,45,0.00,,---,0.00,VWS V14.01,2013-06-25 01:55:00,
2013-06-24 20:56:00,83.9,60.3,29.94,SSW,202,7.6,7.6,45,0.00,,---,0.00,VWS V14.01,2013-06-25 01:56:00,
2013-06-24 20:57:00,83.9,60.3,29.94,South,180,4.7,7.6,45,0.00,,---,0.00,VWS V14.01,2013-06-25 01:57:00,
2013-06-24 20:58:00,83.9,60.3,29.94,South,180,5.4,5.4,45,0.00,,---,0.00,VWS V14.01,2013-06-25 01:58:00,
2013-06-24 20:59:00,83.9,60.3,29.94,East,90,2.0,5.4,45,0.00,,---,0.00,VWS V14.01,2013-06-25 01:59:00,
2013-06-24 21:00:00,83.7,60.8,29.94,NW,315,3.4,5.4,46,0.00,,---,0.00,VWS V14.01,2013-06-25 02:00:00,
2013-06-24 21:01:00,83.7,60.8,29.94,SE,135,2.9,8.5,46,0.00,,---,0.00,VWS V14.01,2013-06-25 02:01:00,
2013-06-24 21:02:00,83.7,60.8,29.94,SSE,158,1.1,5.4,46,0.00,,---,0.00,VWS V14.01,2013-06-25 02:02:00,
2013-06-24 21:03:00,83.7,60.8,29.94,SSE,158,4.9,4.9,46,0.00,,---,0.00,VWS V14.01,2013-06-25 02:03:00,
2013-06-24 21:04:00,83.7,60.8,29.94,SSW,202,3.1,3.1,46,0.00,,---,0.00,VWS V14.01,2013-06-25 02:04:00,
2013-06-24 21:05:00,83.7,60.8,29.94,ESE,112,2.2,7.6,46,0.00,,---,0.00,VWS V14.01,2013-06-25 02:05:00,
2013-06-24 21:06:00,83.6,60.6,29.94,ESE,112,3.6,3.6,46,0.00,,---,0.00,VWS V14.01,2013-06-25 02:06:00,
2013-06-24 21:07:00,83.6,60.6,29.94,South,180,3.4,4.9,46,0.00,,---,0.00,VWS V14.01,2013-06-25 02:07:00,
2013-06-24 21:08:00,83.6,60.6,29.94,SE,135,1.6,3.4,46,0.00,,---,0.00,VWS V14.01,2013-06-25 02:08:00,
2013-06-24 21:09:00,83.4,60.5,29.94,South,180,4.3,6.0,46,0.00,,---,0.00,VWS V14.01,2013-06-25 02:09:00,
2013-06-24 21:10:00,83.4,60.5,29.94,SE,135,4.0,4.3,46,0.00,,---,0.00,VWS V14.01,2013-06-25 02:10:00,
2013-06-24 21:11:00,83.4,61.1,29.94,SW,225,4.3,4.9,47,0.00,,---,0.00,VWS V14.01,2013-06-25 02:11:00,
2013-06-24 21:12:00,83.4,61.1,29.94,ESE,112,4.9,10.7,47,0.00,,---,0.00,VWS V14.01,2013-06-25 02:12:00,
2013-06-24 21:13:00,83.4,61.1,29.94,South,180,3.4,8.7,47,0.00,,---,0.00,VWS V14.01,2013-06-25 02:13:00,
2013-06-24 21:14:00,83.4,61.1,29.94,East,90,4.3,6.5,47,0.00,,---,0.00,VWS V14.01,2013-06-25 02:14:00,
2013-06-24 21:15:00,83.4,61.1,29.94,SSW,202,3.8,7.2,47,0.00,,---,0.00,VWS V14.01,2013-06-25 02:15:00,
2013-06-24 21:16:00,83.4,61.1,29.94,NNW,338,3.8,4.3,47,0.00,,---,0.00,VWS V14.01,2013-06-25 02:16:00,
2013-06-24 21:17:00,83.4,61.1,29.94,SSE,158,4.3,6.3,47,0.00,,---,0.00,VWS V14.01,2013-06-25 02:17:00,
2013-06-24 21:18:00,83.2,60.9,29.94,SSW,202,0.0,4.3,47,0.00,,---,0.00,VWS V14.01,2013-06-25 02:18:00,
2013-06-24 21:19:00,83.2,60.9,29.94,South,180,6.3,6.3,47,0.00,,---,0.00,VWS V14.01,2013-06-25 02:19:00,
2013-06-24 21:20:00,83.2,60.9,29.94,SE,135,2.5,6.3,47,0.00,,---,0.00,VWS V14.01,2013-06-25 02:20:00,
2013-06-24 21:21:00,83.0,61.3,29.94,SE,135,2.0,3.8,48,0.00,,---,0.00,VWS V14.01,2013-06-25 02:21:00,
2013-06-24 21:22:00,83.0,61.3,29.94,South,180,2.9,5.6,48,0.00,,---,0.00,VWS V14.01,2013-06-25 02:22:00,
2013-06-24 21:23:00,83.0,61.3,29.94,East,90,4.0,5.6,48,0.00,,---,0.00,VWS V14.01,2013-06-25 02:23:00,
2013-06-24 21:24:00,83.0,61.3,29.94,SSW,202,4.0,4.0,48,0.00,,---,0.00,VWS V14.01,2013-06-25 02:24:00,
2013-06-24 21:25:00,83.0,61.3,29.94,SE,135,7.6,7.6,48,0.00,,---,0.00,VWS V14.01,2013-06-25 02:25:00,
2013-06-24 21:26:00,82.9,61.2,29.94,SSW,202,4.0,7.6,48,0.00,,---,0.00,VWS V14.01,2013-06-25 02:26:00,
2013-06-24 21:27:00,82.9,61.2,29.94,East,90,3.4,4.0,48,0.00,,---,0.00,VWS V14.01,2013-06-25 02:27:00,
2013-06-24 21:28:00,82.9,61.2,29.94,South,180,4.3,8.7,48,0.00,,---,0.00,VWS V14.01,2013-06-25 02:28:00,
2013-06-24 21:29:00,82.9,61.2,29.94,ESE,112,4.0,6.7,48,0.00,,---,0.00,VWS V14.01,2013-06-25 02:29:00,
2013-06-24 21:30:00,82.9,61.2,29.94,SE,135,3.8,4.9,48,0.00,,---,0.00,VWS V14.01,2013-06-25 02:30:00,
2013-06-24 21:31:00,82.9,61.2,29.94,WNW,292,3.8,14.5,48,0.00,,---,0.00,VWS V14.01,2013-06-25 02:31:00,
2013-06-24 21:32:00,82.7,61.0,29.94,South,180,2.5,6.0,48,0.00,,---,0.00,VWS V14.01,2013-06-25 02:32:00,
2013-06-24 21:33:00,82.7,61.0,29.94,East,90,4.0,4.0,48,0.00,,---,0.00,VWS V14.01,2013-06-25 02:33:00,
2013-06-24 21:35:00,82.7,61.0,29.94,East,90,3.4,9.2,48,0.00,,---,0.00,VWS V14.01,2013-06-25 02:35:00,
2013-06-24 21:36:00,82.7,61.0,29.94,SSE,158,5.8,9.0,48,0.00,,---,0.00,VWS V14.01,2013-06-25 02:36:00,
2013-06-24 21:37:00,82.7,61.0,29.94,SW,225,4.9,9.0,48,0.00,,---,0.00,VWS V14.01,2013-06-25 02:37:00,
2013-06-24 21:38:00,82.5,61.4,29.94,WSW,248,7.6,7.6,49,0.00,,---,0.00,VWS V14.01,2013-06-25 02:38:00,
2013-06-24 21:39:00,82.5,61.4,29.94,East,90,4.3,7.6,49,0.00,,---,0.00,VWS V14.01,2013-06-25 02:39:00,
2013-06-24 21:40:00,82.5,61.4,29.94,East,90,4.0,6.5,49,0.00,,---,0.00,VWS V14.01,2013-06-25 02:40:00,
2013-06-24 21:41:00,82.5,61.4,29.94,SSE,158,1.3,4.0,49,0.00,,---,0.00,VWS V14.01,2013-06-25 02:41:00,
2013-06-24 21:42:00,82.5,61.4,29.94,ESE,112,2.7,6.0,49,0.00,,---,0.00,VWS V14.01,2013-06-25 02:42:00,
2013-06-24 21:43:00,82.3,61.3,29.94,SE,135,1.3,5.8,49,0.00,,---,0.00,VWS V14.01,2013-06-25 02:43:00,
2013-06-24 21:44:00,82.3,61.3,29.94,West,270,3.1,3.1,49,0.00,,---,0.00,VWS V14.01,2013-06-25 02:44:00,
2013-06-24 21:45:00,82.3,61.3,29.94,South,180,6.0,6.0,49,0.00,,---,0.00,VWS V14.01,2013-06-25 02:45:00,
2013-06-24 21:46:00,82.3,61.3,29.94,SE,135,6.0,6.5,49,0.00,,---,0.00,VWS V14.01,2013-06-25 02:46:00,
2013-06-24 21:47:00,82.3,61.3,29.94,SSW,202,3.4,6.0,49,0.00,,---,0.00,VWS V14.01,2013-06-25 02:47:00,
2013-06-24 21:48:00,82.3,61.3,29.94,South,180,5.8,7.6,49,0.00,,---,0.00,VWS V14.01,2013-06-25 02:48:00,
2013-06-24 21:49:00,82.3,61.3,29.94,SE,135,9.0,9.0,49,0.00,,---,0.00,VWS V14.01,2013-06-25 02:49:00,
2013-06-24 21:50:00,82.3,61.3,29.94,South,180,6.0,9.0,49,0.00,,---,0.00,VWS V14.01,2013-06-25 02:50:00,
2013-06-24 21:51:00,82.3,61.3,29.94,East,90,3.1,10.5,49,0.00,,---,0.00,VWS V14.01,2013-06-25 02:51:00,
2013-06-24 21:52:00,82.2,61.1,29.94,East,90,2.9,4.0,49,0.00,,---,0.00,VWS V14.01,2013-06-25 02:52:00,
2013-06-24 21:53:00,82.2,61.1,29.94,SSE,158,6.3,10.1,49,0.00,,---,0.00,VWS V14.01,2013-06-25 02:53:00,
2013-06-24 21:54:00,82.2,61.1,29.94,SSW,202,5.6,6.3,49,0.00,,---,0.00,VWS V14.01,2013-06-25 02:54:00,
2013-06-24 21:56:00,82.2,61.1,29.94,SSE,158,5.8,6.3,49,0.00,,---,0.00,VWS V14.01,2013-06-25 02:56:00,
2013-06-24 21:57:00,82.2,61.1,29.94,East,90,2.9,7.4,49,0.00,,---,0.00,VWS V14.01,2013-06-25 02:57:00,
2013-06-24 21:58:00,82.0,61.0,29.94,East,90,1.1,2.5,49,0.00,,---,0.00,VWS V14.01,2013-06-25 02:58:00,
2013-06-24 21:59:00,82.0,61.0,29.94,ESE,112,3.1,5.6,49,0.00,,---,0.00,VWS V14.01,2013-06-25 02:59:00,
2013-06-24 22:00:00,82.0,61.5,29.94,SSW,202,5.6,6.9,50,0.00,,---,0.00,VWS V14.01,2013-06-25 03:00:00,
2013-06-24 22:01:00,82.0,61.5,29.97,ESE,112,4.9,6.3,50,0.00,,---,0.00,VWS V14.01,2013-06-25 03:01:00,
2013-06-24 22:02:00,81.8,61.3,29.97,SE,135,2.5,4.9,50,0.00,,---,0.00,VWS V14.01,2013-06-25 03:02:00,
2013-06-24 22:03:00,81.8,61.3,29.97,SE,135,6.3,6.3,50,0.00,,---,0.00,VWS V14.01,2013-06-25 03:03:00,
2013-06-24 22:04:00,81.8,61.3,29.97,SSW,202,6.3,6.3,50,0.00,,---,0.00,VWS V14.01,2013-06-25 03:04:00,
2013-06-24 22:05:00,81.8,61.3,29.97,SE,135,7.4,7.4,50,0.00,,---,0.00,VWS V14.01,2013-06-25 03:05:00,
2013-06-24 22:06:00,81.8,61.9,29.97,South,180,4.3,9.8,51,0.00,,---,0.00,VWS V14.01,2013-06-25 03:06:00,
2013-06-24 22:07:00,81.8,61.9,29.97,SE,135,6.5,9.8,51,0.00,,---,0.00,VWS V14.01,2013-06-25 03:07:00,
2013-06-24 22:08:00,81.8,61.9,29.97,SE,135,4.3,4.3,51,0.00,,---,0.00,VWS V14.01,2013-06-25 03:08:00,
2013-06-24 22:10:00,81.6,61.8,29.97,North,0,5.4,7.2,51,0.00,,---,0.00,VWS V14.01,2013-06-25 03:10:00,
2013-06-24 22:11:00,81.6,61.8,29.97,East,90,5.6,9.4,51,0.00,,---,0.00,VWS V14.01,2013-06-25 03:11:00,
2013-06-24 22:12:00,81.6,61.8,29.97,ESE,112,8.5,8.5,51,0.00,,---,0.00,VWS V14.01,2013-06-25 03:12:00,
2013-06-24 22:13:00,81.6,62.3,29.97,SE,135,5.8,5.8,52,0.00,,---,0.00,VWS V14.01,2013-06-25 03:13:00,
2013-06-24 22:14:00,81.6,62.3,29.97,WSW,248,1.3,5.8,52,0.00,,---,0.00,VWS V14.01,2013-06-25 03:14:00,
2013-06-24 22:15:00,81.4,62.1,29.97,South,180,12.1,12.1,52,0.00,,---,0.00,VWS V14.01,2013-06-25 03:15:00,
2013-06-24 22:16:00,81.4,62.1,29.97,South,180,7.4,12.1,52,0.00,,---,0.00,VWS V14.01,2013-06-25 03:16:00,
2013-06-24 22:17:00,81.4,62.1,29.97,SW,225,6.0,9.6,52,0.00,,---,0.00,VWS V14.01,2013-06-25 03:17:00,
2013-06-24 22:18:00,81.4,62.1,29.97,ESE,112,11.9,11.9,52,0.00,,---,0.00,VWS V14.01,2013-06-25 03:18:00,
2013-06-24 22:19:00,81.4,62.1,29.97,SE,135,6.0,11.9,52,0.00,,---,0.00,VWS V14.01,2013-06-25 03:19:00,
2013-06-24 22:20:00,81.4,62.7,29.97,ESE,112,6.5,6.5,53,0.00,,---,0.00,VWS V14.01,2013-06-25 03:20:00,
2013-06-24 22:21:00,81.3,62.5,29.97,West,270,2.2,8.1,53,0.00,,---,0.00,VWS V14.01,2013-06-25 03:21:00,
2013-06-24 22:22:00,81.3,62.5,29.97,ESE,112,2.7,5.8,53,0.00,,---,0.00,VWS V14.01,2013-06-25 03:22:00,
2013-06-24 22:23:00,81.3,63.0,29.97,NNW,338,18.8,18.8,54,0.00,,---,0.00,VWS V14.01,2013-06-25 03:23:00,
2013-06-24 22:24:00,81.3,63.0,29.97,SE,135,4.3,18.8,54,0.00,,---,0.00,VWS V14.01,2013-06-25 03:24:00,
2013-06-24 22:25:00,81.3,63.0,29.97,ESE,112,7.4,8.1,54,0.00,,---,0.00,VWS V14.01,2013-06-25 03:25:00,
2013-06-24 22:26:00,81.1,62.9,29.97,South,180,10.5,10.5,54,0.00,,---,0.00,VWS V14.01,2013-06-25 03:26:00,
2013-06-24 22:27:00,81.1,62.9,29.97,SW,225,3.8,10.5,54,0.00,,---,0.00,VWS V14.01,2013-06-25 03:27:00,
2013-06-24 22:28:00,81.1,62.9,29.97,East,90,2.9,10.7,54,0.00,,---,0.00,VWS V14.01,2013-06-25 03:28:00,
2013-06-24 22:29:00,81.1,62.9,29.97,South,180,4.0,8.1,54,0.00,,---,0.00,VWS V14.01,2013-06-25 03:29:00,
2013-06-24 22:30:00,80.9,63.2,29.97,South,180,1.3,9.6,55,0.00,,---,0.00,VWS V14.01,2013-06-25 03:30:00,
2013-06-24 22:31:00,80.9,63.2,30.00,NE,45,7.6,8.1,55,0.00,,---,0.00,VWS V14.01,2013-06-25 03:31:00,
2013-06-24 22:32:00,80.9,63.2,30.00,ESE,112,5.4,8.1,55,0.00,,---,0.00,VWS V14.01,2013-06-25 03:32:00,
2013-06-24 22:33:00,80.9,63.8,30.00,East,90,4.7,6.3,56,0.00,,---,0.00,VWS V14.01,2013-06-25 03:33:00,
2013-06-24 22:34:00,80.9,63.8,30.00,South,180,8.7,8.7,56,0.00,,---,0.00,VWS V14.01,2013-06-25 03:34:00,
2013-06-24 22:35:00,80.9,63.8,30.00,ESE,112,4.7,10.1,56,0.00,,---,0.00,VWS V14.01,2013-06-25 03:35:00,
2013-06-24 22:36:00,80.7,63.6,30.00,West,270,2.9,7.2,56,0.00,,---,0.00,VWS V14.01,2013-06-25 03:36:00,
2013-06-24 22:37:00,80.7,63.6,30.00,South,180,4.7,5.6,56,0.00,,---,0.00,VWS V14.01,2013-06-25 03:37:00,
2013-06-24 22:38:00,80.6,63.4,30.00,SE,135,3.8,7.6,56,0.00,,---,0.00,VWS V14.01,2013-06-25 03:38:00,
2013-06-24 22:39:00,80.6,63.4,30.00,South,180,2.0,3.8,56,0.00,,---,0.00,VWS V14.01,2013-06-25 03:39:00,
2013-06-24 22:40:00,80.6,63.9,30.00,SSE,158,10.5,10.5,57,0.00,,---,0.00,VWS V14.01,2013-06-25 03:40:00,
2013-06-24 22:41:00,80.6,64.4,30.00,SSE,158,2.5,11.0,58,0.00,,---,0.00,VWS V14.01,2013-06-25 03:41:00,
2013-06-24 22:42:00,80.6,63.9,30.00,South,180,6.0,6.0,57,0.00,,---,0.00,VWS V14.01,2013-06-25 03:42:00,
2013-06-24 22:43:00,80.6,64.4,30.00,SSE,158,5.4,6.0,58,0.00,,---,0.00,VWS V14.01,2013-06-25 03:43:00,
2013-06-24 22:44:00,80.4,64.3,30.00,NNE,22,3.8,7.8,58,0.00,,---,0.00,VWS V14.01,2013-06-25 03:44:00,
2013-06-24 22:45:00,80.4,64.3,30.00,South,180,9.6,9.6,58,0.00,,---,0.00,VWS V14.01,2013-06-25 03:45:00,
2013-06-24 22:46:00,80.4,64.3,29.97,ESE,112,4.7,9.6,58,0.00,,---,0.00,VWS V14.01,2013-06-25 03:46:00,
2013-06-24 22:47:00,80.4,64.8,29.97,SSE,158,2.5,8.7,59,0.00,,---,0.00,VWS V14.01,2013-06-25 03:47:00,
2013-06-24 22:48:00,80.2,64.6,29.97,NNE,22,7.2,7.2,59,0.00,,---,0.00,VWS V14.01,2013-06-25 03:48:00,
2013-06-24 22:49:00,80.2,64.6,29.97,SE,135,3.6,7.6,59,0.00,,---,0.00,VWS V14.01,2013-06-25 03:49:00,
2013-06-24 22:50:00,80.2,64.6,29.97,South,180,3.8,6.7,59,0.00,,---,0.00,VWS V14.01,2013-06-25 03:50:00,
2013-06-24 22:51:00,80.2,64.6,29.97,ESE,112,9.6,9.6,59,0.00,,---,0.00,VWS V14.01,2013-06-25 03:51:00,
2013-06-24 22:52:00,80.2,64.6,29.97,ESE,112,9.8,10.1,59,0.00,,---,0.00,VWS V14.01,2013-06-25 03:52:00,
2013-06-24 22:53:00,80.2,64.6,29.97,SSW,202,5.4,9.8,59,0.00,,---,0.00,VWS V14.01,2013-06-25 03:53:00,
2013-06-24 22:54:00,80.0,64.4,29.97,SW,225,4.9,5.8,59,0.00,,---,0.00,VWS V14.01,2013-06-25 03:54:00,
2013-06-24 22:55:00,80.0,64.4,29.97,West,270,3.6,4.9,59,0.00,,---,0.00,VWS V14.01,2013-06-25 03:55:00,
2013-06-24 22:56:00,80.0,64.9,29.97,East,90,3.4,5.6,60,0.00,,---,0.00,VWS V14.01,2013-06-25 03:56:00,
2013-06-24 22:57:00,80.0,64.9,29.97,East,90,4.9,4.9,60,0.00,,---,0.00,VWS V14.01,2013-06-25 03:57:00,
2013-06-24 22:58:00,80.0,64.9,29.97,ESE,112,4.0,7.4,60,0.00,,---,0.00,VWS V14.01,2013-06-25 03:58:00,
2013-06-24 22:59:00,80.0,64.4,29.97,SSW,202,0.9,4.0,59,0.00,,---,0.00,VWS V14.01,2013-06-25 03:59:00,
2013-06-24 23:00:00,79.8,64.2,29.97,ESE,112,2.2,4.0,59,0.00,,---,0.00,VWS V14.01,2013-06-25 04:00:00,
2013-06-24 23:01:00,79.7,64.6,30.00,SE,135,2.7,4.7,60,0.00,,---,0.00,VWS V14.01,2013-06-25 04:01:00,
2013-06-24 23:02:00,79.7,64.6,30.00,NW,315,3.1,4.0,60,0.00,,---,0.00,VWS V14.01,2013-06-25 04:02:00,
2013-06-24 23:03:00,79.7,64.6,30.00,SSE,158,3.6,7.2,60,0.00,,---,0.00,VWS V14.01,2013-06-25 04:03:00,
2013-06-24 23:04:00,79.7,64.6,30.00,SSW,202,7.4,7.4,60,0.00,,---,0.00,VWS V14.01,2013-06-25 04:04:00,
2013-06-24 23:05:00,79.7,64.6,30.00,ESE,112,4.3,7.4,60,0.00,,---,0.00,VWS V14.01,2013-06-25 04:05:00,
2013-06-24 23:06:00,79.5,64.9,30.00,SE,135,4.3,7.8,61,0.00,,---,0.00,VWS V14.01,2013-06-25 04:06:00,
2013-06-24 23:07:00,79.5,64.9,30.00,SE,135,3.8,7.6,61,0.00,,---,0.00,VWS V14.01,2013-06-25 04:07:00,
2013-06-24 23:08:00,79.5,64.9,30.00,SE,135,4.7,5.8,61,0.00,,---,0.00,VWS V14.01,2013-06-25 04:08:00,
2013-06-24 23:09:00,79.5,64.9,30.00,South,180,2.7,5.6,61,0.00,,---,0.00,VWS V14.01,2013-06-25 04:09:00,
2013-06-24 23:10:00,79.5,65.3,30.00,SW,225,3.4,7.2,62,0.00,,---,0.00,VWS V14.01,2013-06-25 04:10:00,
2013-06-24 23:11:00,79.3,64.7,30.00,South,180,6.3,6.3,61,0.00,,---,0.00,VWS V14.01,2013-06-25 04:11:00,
2013-06-24 23:12:00,79.3,65.2,30.00,South,180,6.0,6.3,62,0.00,,---,0.00,VWS V14.01,2013-06-25 04:12:00,
2013-06-24 23:13:00,79.3,65.2,30.00,SSE,158,5.8,6.3,62,0.00,,---,0.00,VWS V14.01,2013-06-25 04:13:00,
2013-06-24 23:14:00,79.3,65.2,30.00,ESE,112,2.9,6.5,62,0.00,,---,0.00,VWS V14.01,2013-06-25 04:14:00,
2013-06-24 23:15:00,79.1,65.5,30.00,SE,135,2.2,4.3,63,0.00,,---,0.00,VWS V14.01,2013-06-25 04:15:00,
2013-06-24 23:16:00,79.1,65.5,30.00,SE,135,1.6,5.6,63,0.00,,---,0.00,VWS V14.01,2013-06-25 04:16:00,
2013-06-24 23:17:00,79.1,65.5,30.00,East,90,9.8,9.8,63,0.00,,---,0.00,VWS V14.01,2013-06-25 04:17:00,
2013-06-24 23:18:00,79.1,65.9,30.00,WNW,292,3.8,9.8,64,0.00,,---,0.00,VWS V14.01,2013-06-25 04:18:00,
2013-06-24 23:19:00,78.9,65.3,30.00,South,180,9.6,9.6,63,0.00,,---,0.00,VWS V14.01,2013-06-25 04:19:00,
2013-06-24 23:20:00,78.9,65.8,30.00,SSE,158,6.3,9.6,64,0.00,,---,0.00,VWS V14.01,2013-06-25 04:20:00,
2013-06-24 23:21:00,78.9,65.8,30.00,SSW,202,12.5,12.5,64,0.00,,---,0.00,VWS V14.01,2013-06-25 04:21:00,
2013-06-24 23:22:00,78.9,65.8,30.00,SSE,158,3.8,12.5,64,0.00,,---,0.00,VWS V14.01,2013-06-25 04:22:00,
2013-06-24 23:23:00,78.9,65.8,30.00,ENE,68,3.6,4.7,64,0.00,,---,0.00,VWS V14.01,2013-06-25 04:23:00,
2013-06-24 23:24:00,78.9,65.8,30.00,ENE,68,4.3,5.6,64,0.00,,---,0.00,VWS V14.01,2013-06-25 04:24:00,
2013-06-24 23:25:00,78.8,65.6,30.00,ESE,112,3.1,5.6,64,0.00,,---,0.00,VWS V14.01,2013-06-25 04:25:00,
2013-06-24 23:26:00,78.8,65.6,30.00,SSE,158,4.3,4.3,64,0.00,,---,0.00,VWS V14.01,2013-06-25 04:26:00,
2013-06-24 23:27:00,78.8,66.0,30.00,South,180,5.6,11.0,65,0.00,,---,0.00,VWS V14.01,2013-06-25 04:27:00,
2013-06-24 23:28:00,78.8,66.0,30.00,SE,135,6.9,8.5,65,0.00,,---,0.00,VWS V14.01,2013-06-25 04:28:00,
2013-06-24 23:29:00,78.8,66.0,30.00,SE,135,6.0,6.9,65,0.00,,---,0.00,VWS V14.01,2013-06-25 04:29:00,
2013-06-24 23:30:00,78.8,66.0,30.00,NNE,22,5.4,5.4,65,0.00,,---,0.00,VWS V14.01,2013-06-25 04:30:00,
2013-06-24 23:31:00,78.6,65.9,30.00,East,90,3.4,10.1,65,0.00,,---,0.00,VWS V14.01,2013-06-25 04:31:00,
2013-06-24 23:32:00,78.6,65.9,30.00,ESE,112,2.0,3.4,65,0.00,,---,0.00,VWS V14.01,2013-06-25 04:32:00,
2013-06-24 23:33:00,78.6,65.9,30.00,East,90,1.6,6.0,65,0.00,,---,0.00,VWS V14.01,2013-06-25 04:33:00,
2013-06-24 23:34:00,78.6,66.3,30.00,South,180,7.6,8.7,66,0.00,,---,0.00,VWS V14.01,2013-06-25 04:34:00,
2013-06-24 23:35:00,78.4,66.1,30.00,SE,135,3.6,7.6,66,0.00,,---,0.00,VWS V14.01,2013-06-25 04:35:00,
2013-06-24 23:36:00,78.4,65.7,30.00,ESE,112,3.1,8.5,65,0.00,,---,0.00,VWS V14.01,2013-06-25 04:36:00,
2013-06-24 23:37:00,78.4,66.1,30.00,NE,45,7.4,7.4,66,0.00,,---,0.00,VWS V14.01,2013-06-25 04:37:00,
2013-06-24 23:38:00,78.4,66.6,30.00,SE,135,5.6,7.4,67,0.00,,---,0.00,VWS V14.01,2013-06-25 04:38:00,
2013-06-24 23:39:00,78.2,66.0,30.00,SE,135,4.7,5.6,66,0.00,,---,0.00,VWS V14.01,2013-06-25 04:39:00,
2013-06-24 23:40:00,78.2,66.0,30.00,SSE,158,2.5,4.7,66,0.00,,---,0.00,VWS V14.01,2013-06-25 04:40:00,
2013-06-24 23:41:00,78.2,66.4,30.00,SE,135,3.4,4.5,67,0.00,,---,0.00,VWS V14.01,2013-06-25 04:41:00,
2013-06-24 23:42:00,78.2,66.4,30.00,SSW,202,5.4,12.1,67,0.00,,---,0.00,VWS V14.01,2013-06-25 04:42:00,
2013-06-24 23:43:00,78.2,66.8,30.00,South,180,7.4,10.5,68,0.00,,---,0.00,VWS V14.01,2013-06-25 04:43:00,
2013-06-24 23:44:00,78.1,66.7,30.00,South,180,1.6,7.4,68,0.00,,---,0.00,VWS V14.01,2013-06-25 04:44:00,
2013-06-24 23:45:00,78.1,66.7,30.00,South,180,4.3,4.3,68,0.00,,---,0.00,VWS V14.01,2013-06-25 04:45:00,
2013-06-24 23:46:00,78.1,66.2,30.00,ESE,112,2.7,4.3,67,0.00,,---,0.00,VWS V14.01,2013-06-25 04:46:00,
2013-06-24 23:47:00,77.9,66.5,30.00,East,90,2.7,4.9,68,0.00,,---,0.00,VWS V14.01,2013-06-25 04:47:00,
2013-06-24 23:48:00,77.9,66.5,30.00,North,0,4.0,5.8,68,0.00,,---,0.00,VWS V14.01,2013-06-25 04:48:00,
2013-06-24 23:49:00,77.9,66.5,30.00,SE,135,1.1,4.9,68,0.00,,---,0.00,VWS V14.01,2013-06-25 04:49:00,
2013-06-24 23:50:00,77.7,66.3,30.00,SSW,202,3.1,5.8,68,0.00,,---,0.00,VWS V14.01,2013-06-25 04:50:00,
2013-06-24 23:51:00,77.7,66.7,30.00,SSW,202,7.2,7.2,69,0.00,,---,0.00,VWS V14.01,2013-06-25 04:51:00,
2013-06-24 23:52:00,77.7,66.7,30.00,ESE,112,4.9,10.5,69,0.00,,---,0.00,VWS V14.01,2013-06-25 04:52:00,
2013-06-24 23:53:00,77.7,66.7,30.00,ESE,112,6.3,6.3,69,0.00,,---,0.00,VWS V14.01,2013-06-25 04:53:00,
2013-06-24 23:54:00,77.7,66.7,30.00,South,180,3.8,6.3,69,0.00,,---,0.00,VWS V14.01,2013-06-25 04:54:00,
2013-06-24 23:55:00,77.7,66.7,30.00,SE,135,4.7,13.0,69,0.00,,---,0.00,VWS V14.01,2013-06-25 04:55:00,
2013-06-24 23:56:00,77.7,66.7,30.00,East,90,6.0,11.0,69,0.00,,---,0.00,VWS V14.01,2013-06-25 04:56:00,
2013-06-24 23:57:00,77.7,66.7,30.00,SE,135,4.5,6.0,69,0.00,,---,0.00,VWS V14.01,2013-06-25 04:57:00,
2013-06-24 23:58:00,77.5,66.6,30.00,ESE,112,9.4,9.4,69,0.00,,---,0.00,VWS V14.01,2013-06-25 04:58:00,
2013-06-24 23:59:00,77.5,66.6,30.00,SE,135,10.1,10.1,69,0.00,,---,0.00,VWS V14.01,2013-06-25 04:59:00,